[[{"header":{"parameterUnit":"m.s-1","parameterCategory":1,"la1":31.0,"la2":29.5877,"lo1":-88.7671,"lo2":-86.6584,"dy":0.0162,"dx":0.0185,"nx":115,"ny":88,"refTime":"2023-08-21T18:00:00:Z","depth":0,"parameterNumber":2,"parameterNumberName":"U-component_of_WINDS"},"data":[0.0,0.0,0.0,0.0,0.0,0.0,0.0,0.0,0.0,0.0,0.0,0.0,0.0,0.0,0.0,0.0,0.0,0.0,0.0,0.0,0.0,0.0,0.0,0.0,0.0,0.0,0.0,0.0,0.0,0.0,0.0,0.0,0.0,0.0,0.0,0.0,0.0,0.0,0.0,0.0,0.0,0.0,0.0,0.0,0.0,0.0,0.0,0.0,0.0,0.0,0.0,0.0,0.0,0.0,0.0,0.0,0.0,0.0,0.0,0.0,0.0,0.0,0.0,0.0,0.0,0.0,0.0,0.0,0.0,0.0,0.0,0.0,0.0,0.0,0.0,0.0,0.0,0.0,0.0,0.0,0.0,0.0,0.0,0.0,0.0,0.0,0.0,0.0,0.0,0.0,0.0,0.0,0.0,0.0,0.0,0.0,0.0,0.0,0.0,0.0,0.0,0.0,0.0,0.0,0.0,0.0,0.0,0.0,0.0,0.0,0.0,0.0,0.0,0.0,0.0,0.0,0.0,0.0,0.0,0.0,0.0,0.0,0.0,0.0,0.0,0.0,0.0,0.0,0.0,0.0,0.0,0.0,0.0,0.0,0.0,0.0,0.0,0.0,0.0,0.0,0.0,0.0,0.0,0.0,0.0,0.0,0.0,0.0,0.0,0.0,0.0,0.0,0.0,0.0,0.0,0.0,0.0,0.0,0.0,0.0,0.0,0.0,0.0,0.0,0.0,0.0,0.0,0.0,0.0,0.0,0.0,0.0,0.0,0.0,0.0,0.0,0.0,0.0,0.0,0.0,0.0,0.0,0.0,0.0,0.0,0.0,0.0,0.0,0.0,0.0,0.0,0.0,0.0,0.0,0.0,0.0,0.0,0.0,0.0,0.0,0.0,0.0,0.0,0.0,0.0,0.0,0.0,0.0,0.0,0.0,0.0,0.0,0.0,0.0,0.0,0.0,0.0,0.0,0.0,0.0,0.0,0.0,0.0,0.0,0.0,0.0,0.0,0.0,0.0,0.0,0.0,0.0,0.0,0.0,0.0,0.0,0.0,0.0,0.0,0.0,0.0,0.0,0.0,0.0,0.0,0.0,0.0,0.0,0.0,0.0,0.0,0.0,0.0,0.0,0.0,0.0,0.0,0.0,0.0,0.0,0.0,0.0,0.0,0.0,0.0,0.0,0.0,0.0,0.0,0.0,0.0,0.0,0.0,0.0,0.0,0.0,0.0,0.0,0.0,0.0,0.0,0.0,0.0,0.0,0.0,0.0,0.0,0.0,0.0,0.0,0.0,0.0,0.0,0.0,0.0,0.0,0.0,0.0,0.0,0.0,0.0,0.0,0.0,0.0,0.0,0.0,0.0,0.0,0.0,0.0,0.0,0.0,0.0,0.0,0.0,0.0,0.0,0.0,0.0,0.0,0.0,0.0,0.0,0.0,0.0,0.0,0.0,0.0,0.0,0.0,0.0,0.0,0.0,0.0,0.0,0.0,0.0,0.0,0.0,0.0,0.0,0.0,0.0,0.0,0.0,0.0,0.0,0.0,0.0,0.0,0.0,0.0,0.0,0.0,0.0,0.0,0.0,0.0,0.0,0.0,0.0,0.0,0.0,0.0,0.0,0.0,0.0,0.0,0.0,0.0,0.0,0.0,0.0,0.0,0.0,0.0,0.0,0.0,0.0,0.0,0.0,0.0,0.0,0.0,0.0,0.0,0.0,0.0,0.0,0.0,0.0,0.0,0.0,0.0,0.0,0.0,0.0,0.0,0.0,0.0,0.0,0.0,0.0,0.0,0.0,0.0,0.0,0.0,0.0,0.0,0.0,0.0,0.0,0.0,0.0,0.0,0.0,0.0,0.0,0.0,0.0,0.0,0.0,0.0,0.0,0.0,0.0,0.0,0.0,0.0,0.0,0.0,0.0,0.0,0.0,0.0,0.0,0.0,0.0,0.0,0.0,0.0,0.0,0.0,0.0,0.0,0.0,0.0,0.0,0.0,0.0,0.0,0.0,0.0,0.0,0.0,0.0,0.0,0.0,0.0,0.0,0.0,0.0,0.0,0.0,0.0,0.0,0.0,0.0,0.0,0.0,0.0,0.0,0.0,0.0,0.0,0.0,0.0,0.0,0.0,0.0,0.0,0.0,0.0,0.0,0.0,0.0,0.0,0.0,0.0,0.0,0.0,0.0,0.0,0.0,0.0,0.0,0.0,0.0,0.0,0.0,0.0,0.0,0.0,0.0,0.0,0.0,0.0,0.0,0.0,0.0,0.0,0.0,0.0,0.0,0.0,0.0,0.0,0.0,0.0,0.0,0.0,0.0,0.0,0.0,0.0,0.0,0.0,0.0,0.0,0.0,0.0,0.0,0.0,0.0,0.0,0.0,0.0,0.0,0.0,0.0,0.0,0.0,0.0,0.0,0.0,0.0,0.0,0.0,0.0,0.0,0.0,0.0,0.0,0.0,0.0,0.0,0.0,0.0,0.0,0.0,0.0,0.0,0.0,0.0,0.0,0.0,0.0,0.0,0.0,0.0,0.0,0.0,0.0,0.0,0.0,0.0,0.0,0.0,0.0,0.0,0.0,0.0,0.0,0.0,0.0,0.0,0.0,0.0,0.0,0.0,0.0,0.0,0.0,0.0,0.0,0.0,0.0,0.0,0.0,0.0,0.0,0.0,0.0,0.0,0.0,0.0,0.0,0.0,0.0,0.0,0.0,0.0,0.0,0.0,0.0,0.0,0.0,0.0,0.0,0.0,0.0,0.0,0.0,0.0,0.0,0.0,0.0,0.0,0.0,0.0,0.0,0.0,0.0,0.0,0.0,0.0,0.0,0.0,0.0,0.0,0.0,0.0,0.0,0.0,0.0,0.0,0.0,0.0,0.0,0.0,0.0,0.0,0.0,0.0,0.0,0.0,0.0,0.0,0.0,0.0,0.0,0.0,0.0,0.0,0.0,0.0,0.0,0.0,0.0,0.0,0.0,0.0,0.0,0.0,0.0,0.0,0.0,0.0,0.0,0.0,0.0,0.0,0.0,0.0,0.0,0.0,0.0,0.0,0.0,0.0,0.0,0.0,0.0,0.0,0.0,0.0,0.0,0.0,0.0,0.0,0.0,0.0,0.0,0.0,0.0,0.0,0.0,0.0,0.0,0.0,0.0,0.0,0.0,0.0,0.0,0.0,0.0,0.0,0.0,0.0,0.0,0.0,0.0,0.0,0.0,0.0,0.0,0.0,0.0,0.0,0.0,0.0,0.0,0.0,0.0,0.0,0.0,0.0,0.0,0.0,0.0,0.0,0.0,0.0,0.0,0.0,0.0,0.0,0.0,0.0,0.0,0.0,0.0,0.0,0.0,0.0,0.0,0.0,0.0,0.0,0.0,0.0,0.0,0.0,0.0,0.0,0.0,0.0,0.0,0.0,0.0,0.0,0.0,0.0,0.0,0.0,0.0,0.0,0.0,0.0,0.0,0.0,0.0,0.0,0.0,0.0,0.0,0.0,0.0,0.0,0.0,0.0,0.0,0.0,0.0,0.0,0.0,0.0,0.0,0.0,0.0,0.0,0.0,0.0,0.0,0.0,0.0,0.0,0.0,0.0,0.0,0.0,0.0,0.0,0.0,0.0,0.0,0.0,0.0,0.0,0.0,0.0,0.0,0.0,0.0,0.0,0.0,0.0,0.0,0.0,0.0,0.0,0.0,0.0,0.0,0.0,0.0,0.0,0.0,0.0,0.0,0.0,0.0,0.0,0.0,0.0,0.0,0.0,0.0,0.0,0.0,0.0,0.0,0.0,0.0,0.0,0.0,0.0,0.0,0.0,0.0,0.0,0.0,0.0,0.0,0.0,0.0,0.0,0.0,0.0,0.0,0.0,0.0,0.0,0.0,0.0,0.0,0.0,0.0,0.0,0.0,0.0,0.0,0.0,0.0,0.0,0.0,0.0,0.0,0.0,0.0,0.0,0.0,0.0,0.0,0.0,0.0,0.0,0.0,0.0,0.0,0.0,0.0,0.0,0.0,0.0,0.0,0.0,0.0,0.0,0.0,0.0,0.0,0.0,0.0,0.0,0.0,0.0,0.0,0.0,0.0,0.0,0.0,0.0,0.0,0.0,0.0,0.0,0.0,0.0,0.0,0.0,0.0,0.0,0.0,0.0,0.0,0.0,0.0,0.0,0.0,0.0,0.0,0.0,0.0,0.0,0.0,0.0,0.0,0.0,0.0,0.0,0.0,0.0,0.0,0.0,0.0,0.0,0.0,0.0,0.0,0.0,0.0,0.0,0.0,-2.6378,0.0,0.0,0.0,0.0,0.0,0.0,0.0,0.0,0.0,0.0,0.0,0.0,0.0,0.0,0.0,0.0,0.0,0.0,0.0,0.0,0.0,0.0,0.0,0.0,0.0,0.0,0.0,0.0,0.0,0.0,0.0,0.0,0.0,0.0,0.0,0.0,0.0,0.0,0.0,0.0,0.0,0.0,0.0,0.0,0.0,0.0,0.0,0.0,0.0,0.0,0.0,0.0,0.0,0.0,0.0,0.0,0.0,0.0,0.0,0.0,0.0,0.0,0.0,0.0,0.0,0.0,0.0,0.0,0.0,0.0,0.0,0.0,0.0,0.0,0.0,0.0,0.0,0.0,0.0,0.0,0.0,0.0,0.0,0.0,0.0,0.0,0.0,0.0,0.0,0.0,0.0,0.0,0.0,0.0,0.0,0.0,0.0,0.0,0.0,0.0,0.0,0.0,0.0,0.0,0.0,0.0,0.0,0.0,0.0,0.0,-3.0639,-2.9347,-2.8505,-2.7605,-2.667,0.0,0.0,0.0,0.0,0.0,0.0,0.0,0.0,0.0,0.0,0.0,0.0,0.0,0.0,0.0,0.0,0.0,0.0,0.0,0.0,0.0,0.0,0.0,0.0,0.0,0.0,0.0,0.0,0.0,0.0,0.0,0.0,0.0,0.0,0.0,0.0,0.0,0.0,0.0,0.0,0.0,0.0,0.0,0.0,0.0,0.0,0.0,0.0,0.0,0.0,0.0,0.0,0.0,0.0,0.0,0.0,0.0,0.0,0.0,0.0,0.0,0.0,0.0,0.0,0.0,0.0,0.0,0.0,0.0,0.0,0.0,0.0,0.0,0.0,0.0,0.0,0.0,0.0,0.0,0.0,0.0,0.0,0.0,0.0,0.0,0.0,0.0,0.0,0.0,0.0,0.0,0.0,0.0,0.0,0.0,0.0,0.0,0.0,0.0,0.0,0.0,0.0,0.0,0.0,0.0,0.0,0.0,0.0,0.0,0.0,0.0,0.0,-2.9607,-2.8594,-2.7451,0.0,0.0,0.0,0.0,0.0,0.0,0.0,0.0,0.0,0.0,0.0,0.0,0.0,0.0,0.0,0.0,0.0,0.0,0.0,0.0,0.0,0.0,0.0,0.0,0.0,0.0,0.0,0.0,0.0,0.0,0.0,0.0,0.0,0.0,0.0,0.0,0.0,0.0,0.0,0.0,0.0,0.0,0.0,0.0,0.0,0.0,0.0,0.0,0.0,0.0,0.0,0.0,0.0,0.0,0.0,0.0,0.0,0.0,0.0,0.0,0.0,0.0,0.0,0.0,0.0,0.0,0.0,0.0,0.0,0.0,0.0,0.0,0.0,0.0,0.0,0.0,0.0,0.0,0.0,0.0,0.0,0.0,0.0,0.0,0.0,0.0,0.0,0.0,0.0,0.0,0.0,0.0,0.0,0.0,0.0,0.0,0.0,0.0,0.0,0.0,0.0,0.0,0.0,0.0,0.0,0.0,0.0,0.0,0.0,0.0,-3.1761,-3.4699,-3.3269,0.0,-2.992,0.0,0.0,0.0,0.0,0.0,0.0,0.0,0.0,0.0,0.0,0.0,0.0,0.0,0.0,0.0,0.0,0.0,0.0,0.0,0.0,0.0,0.0,0.0,0.0,0.0,0.0,0.0,0.0,0.0,0.0,0.0,0.0,0.0,0.0,0.0,0.0,0.0,0.0,0.0,0.0,0.0,0.0,0.0,0.0,0.0,0.0,0.0,0.0,0.0,0.0,0.0,0.0,0.0,0.0,0.0,0.0,0.0,0.0,0.0,0.0,0.0,0.0,0.0,0.0,0.0,0.0,0.0,0.0,0.0,0.0,0.0,0.0,0.0,0.0,0.0,0.0,0.0,0.0,0.0,0.0,0.0,0.0,0.0,0.0,0.0,0.0,0.0,0.0,0.0,0.0,0.0,0.0,0.0,0.0,0.0,0.0,0.0,0.0,0.0,0.0,0.0,0.0,0.0,0.0,0.0,0.0,0.0,0.0,0.0,0.0,-3.214,-3.4457,-3.2917,-3.1005,0.0,0.0,0.0,0.0,0.0,0.0,0.0,0.0,0.0,0.0,0.0,0.0,0.0,0.0,0.0,0.0,0.0,0.0,0.0,0.0,0.0,0.0,0.0,0.0,0.0,0.0,0.0,0.0,0.0,0.0,0.0,0.0,0.0,0.0,0.0,0.0,0.0,0.0,0.0,0.0,0.0,0.0,0.0,0.0,0.0,0.0,0.0,0.0,0.0,0.0,0.0,0.0,0.0,0.0,0.0,0.0,0.0,0.0,0.0,0.0,0.0,0.0,0.0,0.0,0.0,0.0,0.0,0.0,0.0,0.0,0.0,0.0,0.0,0.0,0.0,0.0,0.0,0.0,0.0,0.0,0.0,0.0,0.0,0.0,0.0,0.0,0.0,0.0,0.0,0.0,0.0,0.0,0.0,0.0,0.0,0.0,0.0,0.0,0.0,0.0,0.0,0.0,0.0,0.0,0.0,0.0,0.0,0.0,0.0,0.0,-3.2233,-3.2997,-3.4696,-3.2897,-3.0858,-2.8796,0.0,0.0,0.0,0.0,0.0,0.0,0.0,0.0,0.0,0.0,0.0,0.0,0.0,0.0,0.0,0.0,0.0,0.0,0.0,0.0,0.0,0.0,0.0,0.0,0.0,0.0,0.0,0.0,0.0,0.0,0.0,0.0,0.0,0.0,0.0,0.0,0.0,0.0,0.0,0.0,0.0,0.0,0.0,0.0,0.0,0.0,0.0,0.0,0.0,0.0,0.0,0.0,0.0,0.0,0.0,0.0,0.0,0.0,0.0,0.0,0.0,0.0,0.0,0.0,0.0,0.0,0.0,0.0,0.0,0.0,0.0,0.0,0.0,0.0,0.0,0.0,0.0,0.0,0.0,0.0,0.0,0.0,0.0,0.0,0.0,0.0,0.0,0.0,0.0,0.0,0.0,0.0,0.0,0.0,0.0,0.0,0.0,0.0,0.0,0.0,0.0,0.0,0.0,0.0,0.0,0.0,0.0,0.0,-3.7809,-3.5201,-3.4867,-3.7148,-3.4268,-3.2119,0.0,0.0,0.0,0.0,0.0,0.0,0.0,0.0,0.0,0.0,0.0,0.0,0.0,0.0,0.0,0.0,0.0,0.0,0.0,0.0,0.0,0.0,0.0,0.0,0.0,0.0,0.0,0.0,0.0,0.0,0.0,0.0,0.0,0.0,0.0,0.0,0.0,0.0,0.0,0.0,0.0,0.0,0.0,0.0,0.0,0.0,0.0,0.0,0.0,0.0,0.0,0.0,0.0,0.0,0.0,0.0,0.0,0.0,0.0,0.0,0.0,0.0,0.0,0.0,0.0,0.0,0.0,0.0,0.0,0.0,0.0,0.0,0.0,0.0,0.0,0.0,0.0,0.0,0.0,0.0,0.0,0.0,0.0,0.0,0.0,0.0,0.0,0.0,0.0,0.0,0.0,0.0,0.0,0.0,0.0,0.0,0.0,0.0,0.0,0.0,0.0,0.0,0.0,0.0,0.0,0.0,0.0,0.0,0.0,-3.2937,-3.353,-3.4486,-3.5854,-3.3277,-3.1676,0.0,0.0,0.0,0.0,0.0,0.0,0.0,0.0,0.0,0.0,0.0,0.0,0.0,0.0,0.0,0.0,0.0,0.0,0.0,0.0,0.0,0.0,0.0,0.0,0.0,0.0,0.0,0.0,0.0,0.0,0.0,0.0,0.0,0.0,0.0,0.0,0.0,0.0,0.0,0.0,0.0,0.0,0.0,0.0,0.0,0.0,0.0,0.0,0.0,0.0,0.0,0.0,0.0,0.0,0.0,0.0,0.0,0.0,0.0,0.0,0.0,0.0,0.0,0.0,0.0,0.0,0.0,0.0,0.0,0.0,0.0,0.0,0.0,0.0,0.0,0.0,0.0,0.0,0.0,0.0,0.0,0.0,0.0,0.0,0.0,0.0,0.0,0.0,0.0,0.0,0.0,0.0,0.0,0.0,0.0,0.0,0.0,0.0,0.0,0.0,0.0,0.0,0.0,0.0,0.0,0.0,0.0,0.0,0.0,-3.1943,0.0,-3.542,-3.5278,-3.294,-3.1084,0.0,0.0,0.0,0.0,0.0,0.0,0.0,0.0,0.0,0.0,0.0,0.0,0.0,0.0,0.0,0.0,0.0,0.0,0.0,0.0,0.0,0.0,0.0,0.0,0.0,0.0,0.0,0.0,0.0,0.0,0.0,0.0,0.0,0.0,0.0,0.0,0.0,0.0,0.0,0.0,0.0,0.0,0.0,0.0,0.0,0.0,0.0,0.0,0.0,0.0,0.0,0.0,0.0,0.0,0.0,0.0,0.0,0.0,0.0,0.0,0.0,0.0,0.0,0.0,0.0,0.0,0.0,0.0,0.0,0.0,0.0,0.0,0.0,0.0,0.0,0.0,0.0,0.0,0.0,0.0,0.0,0.0,0.0,0.0,0.0,0.0,0.0,0.0,0.0,0.0,0.0,0.0,0.0,0.0,0.0,0.0,0.0,0.0,0.0,0.0,0.0,0.0,0.0,0.0,0.0,0.0,0.0,0.0,-3.1723,-3.5883,-3.7599,-3.757,-3.5985,-3.3438,-3.0537,0.0,0.0,0.0,0.0,0.0,0.0,0.0,0.0,0.0,0.0,0.0,0.0,0.0,0.0,0.0,0.0,0.0,0.0,0.0,0.0,0.0,0.0,0.0,0.0,0.0,0.0,0.0,0.0,0.0,0.0,0.0,0.0,0.0,0.0,0.0,0.0,0.0,0.0,0.0,0.0,0.0,0.0,0.0,0.0,0.0,0.0,0.0,0.0,0.0,0.0,0.0,0.0,0.0,0.0,0.0,0.0,0.0,0.0,0.0,0.0,0.0,0.0,0.0,0.0,0.0,0.0,0.0,0.0,0.0,0.0,0.0,0.0,0.0,0.0,0.0,0.0,0.0,0.0,0.0,0.0,0.0,0.0,0.0,0.0,0.0,0.0,0.0,0.0,0.0,0.0,0.0,0.0,0.0,0.0,0.0,0.0,0.0,0.0,0.0,0.0,0.0,0.0,0.0,0.0,0.0,0.0,0.0,0.0,0.0,-3.331,-3.5247,-3.6833,-3.7815,-3.2926,-3.0698,0.0,0.0,0.0,0.0,0.0,0.0,0.0,0.0,0.0,0.0,0.0,0.0,0.0,0.0,0.0,0.0,0.0,0.0,0.0,0.0,0.0,0.0,0.0,0.0,0.0,0.0,0.0,0.0,0.0,0.0,0.0,0.0,0.0,0.0,0.0,0.0,0.0,0.0,0.0,0.0,0.0,0.0,0.0,0.0,0.0,0.0,0.0,0.0,0.0,0.0,0.0,0.0,0.0,0.0,0.0,0.0,0.0,0.0,0.0,0.0,0.0,0.0,0.0,0.0,0.0,0.0,0.0,0.0,0.0,0.0,0.0,0.0,0.0,0.0,0.0,0.0,0.0,0.0,0.0,0.0,0.0,0.0,0.0,0.0,0.0,0.0,0.0,0.0,0.0,0.0,0.0,0.0,0.0,0.0,0.0,0.0,0.0,0.0,0.0,0.0,0.0,0.0,0.0,0.0,0.0,0.0,0.0,0.0,0.0,-3.4488,-3.6144,-3.7327,-3.7928,-3.3326,-3.1176,-3.1837,0.0,0.0,0.0,0.0,0.0,0.0,0.0,0.0,0.0,0.0,0.0,0.0,0.0,0.0,0.0,0.0,0.0,0.0,0.0,0.0,0.0,0.0,0.0,0.0,0.0,0.0,0.0,0.0,0.0,0.0,0.0,0.0,0.0,0.0,0.0,0.0,0.0,0.0,0.0,0.0,0.0,0.0,0.0,0.0,0.0,0.0,0.0,0.0,0.0,0.0,0.0,0.0,0.0,0.0,0.0,0.0,0.0,0.0,0.0,0.0,0.0,0.0,0.0,0.0,0.0,0.0,0.0,0.0,0.0,0.0,0.0,0.0,0.0,0.0,0.0,0.0,0.0,0.0,0.0,0.0,0.0,0.0,0.0,0.0,0.0,0.0,0.0,0.0,0.0,0.0,0.0,0.0,0.0,0.0,0.0,0.0,0.0,0.0,0.0,0.0,0.0,0.0,0.0,0.0,0.0,0.0,0.0,0.0,-3.8528,-3.9785,-3.9187,-3.6714,-3.4557,-3.2,0.0,0.0,0.0,0.0,0.0,0.0,0.0,0.0,0.0,0.0,0.0,0.0,0.0,0.0,0.0,0.0,0.0,0.0,0.0,0.0,0.0,0.0,0.0,0.0,0.0,0.0,0.0,0.0,0.0,0.0,0.0,0.0,0.0,0.0,0.0,0.0,0.0,0.0,0.0,0.0,0.0,0.0,0.0,0.0,0.0,0.0,0.0,0.0,0.0,0.0,0.0,0.0,0.0,0.0,0.0,0.0,0.0,0.0,0.0,0.0,0.0,0.0,0.0,0.0,0.0,0.0,0.0,0.0,0.0,0.0,0.0,0.0,0.0,0.0,0.0,0.0,0.0,0.0,0.0,0.0,0.0,0.0,0.0,0.0,0.0,0.0,0.0,0.0,0.0,0.0,0.0,0.0,0.0,0.0,0.0,0.0,0.0,0.0,0.0,0.0,0.0,0.0,0.0,0.0,0.0,0.0,0.0,0.0,0.0,-3.9349,-4.1808,-4.2305,-4.0652,-3.6266,-3.3458,0.0,0.0,0.0,0.0,0.0,0.0,0.0,0.0,0.0,0.0,0.0,0.0,0.0,0.0,0.0,0.0,0.0,0.0,0.0,0.0,0.0,0.0,0.0,0.0,0.0,0.0,0.0,0.0,0.0,0.0,0.0,0.0,0.0,0.0,0.0,0.0,0.0,0.0,0.0,0.0,0.0,0.0,0.0,0.0,0.0,0.0,0.0,0.0,0.0,0.0,0.0,0.0,0.0,0.0,0.0,0.0,0.0,0.0,0.0,0.0,0.0,0.0,0.0,0.0,0.0,0.0,0.0,0.0,0.0,0.0,0.0,0.0,0.0,0.0,0.0,0.0,0.0,0.0,0.0,0.0,0.0,0.0,0.0,0.0,0.0,0.0,0.0,0.0,0.0,0.0,0.0,0.0,0.0,0.0,0.0,0.0,0.0,0.0,0.0,0.0,0.0,0.0,0.0,0.0,0.0,0.0,0.0,0.0,-3.8101,-4.0887,-4.3568,-4.4166,-4.2398,-3.864,-3.549,0.0,0.0,0.0,0.0,0.0,0.0,0.0,0.0,0.0,0.0,0.0,0.0,0.0,0.0,0.0,0.0,0.0,0.0,0.0,0.0,0.0,0.0,0.0,0.0,0.0,0.0,0.0,0.0,0.0,0.0,0.0,0.0,0.0,0.0,0.0,0.0,0.0,0.0,0.0,0.0,0.0,0.0,0.0,0.0,0.0,0.0,0.0,0.0,0.0,0.0,0.0,0.0,0.0,0.0,0.0,0.0,0.0,0.0,0.0,0.0,0.0,0.0,0.0,0.0,0.0,0.0,0.0,0.0,0.0,0.0,0.0,0.0,0.0,0.0,0.0,0.0,0.0,0.0,0.0,0.0,0.0,0.0,0.0,0.0,0.0,0.0,0.0,0.0,0.0,0.0,0.0,0.0,0.0,0.0,0.0,0.0,0.0,0.0,0.0,0.0,0.0,0.0,0.0,0.0,0.0,0.0,0.0,0.0,-3.9608,-4.2458,-4.4926,-4.5027,-4.2568,-4.0923,-3.7504,0.0,0.0,0.0,0.0,0.0,0.0,0.0,0.0,0.0,0.0,0.0,0.0,0.0,0.0,0.0,0.0,0.0,0.0,0.0,0.0,0.0,0.0,0.0,0.0,0.0,0.0,0.0,0.0,0.0,0.0,0.0,0.0,0.0,0.0,0.0,0.0,0.0,0.0,0.0,0.0,0.0,0.0,0.0,0.0,0.0,0.0,0.0,0.0,0.0,0.0,0.0,0.0,0.0,0.0,0.0,0.0,0.0,0.0,0.0,0.0,0.0,0.0,0.0,0.0,0.0,0.0,0.0,0.0,0.0,0.0,0.0,0.0,0.0,0.0,0.0,0.0,0.0,0.0,0.0,0.0,0.0,0.0,0.0,0.0,0.0,0.0,0.0,0.0,0.0,0.0,0.0,0.0,0.0,0.0,0.0,0.0,0.0,0.0,0.0,0.0,0.0,0.0,0.0,0.0,0.0,0.0,0.0,0.0,-4.046,-4.1973,-4.4721,-4.5232,-4.3134,-4.0545,-3.7033,0.0,0.0,0.0,0.0,0.0,0.0,0.0,0.0,0.0,0.0,0.0,0.0,0.0,0.0,0.0,0.0,0.0,0.0,0.0,0.0,0.0,0.0,0.0,0.0,0.0,0.0,0.0,0.0,0.0,0.0,0.0,0.0,0.0,0.0,0.0,0.0,0.0,0.0,0.0,0.0,0.0,0.0,0.0,0.0,0.0,0.0,0.0,0.0,-2.6009,0.0,0.0,0.0,0.0,0.0,0.0,0.0,0.0,0.0,0.0,0.0,0.0,0.0,0.0,0.0,0.0,0.0,0.0,0.0,0.0,0.0,0.0,0.0,0.0,0.0,0.0,0.0,0.0,0.0,0.0,0.0,0.0,0.0,0.0,0.0,0.0,0.0,0.0,0.0,0.0,0.0,0.0,0.0,0.0,0.0,0.0,0.0,0.0,0.0,0.0,0.0,0.0,0.0,0.0,0.0,0.0,0.0,0.0,0.0,-4.0657,-4.1366,-4.3897,-4.4178,-4.1852,-3.995,-3.6942,0.0,0.0,0.0,0.0,0.0,0.0,0.0,0.0,0.0,0.0,0.0,0.0,0.0,0.0,0.0,0.0,0.0,0.0,0.0,0.0,0.0,0.0,0.0,0.0,0.0,0.0,0.0,0.0,0.0,0.0,0.0,0.0,0.0,0.0,0.0,0.0,0.0,0.0,0.0,0.0,0.0,0.0,0.0,0.0,0.0,0.0,0.0,0.0,0.0,0.0,0.0,0.0,0.0,0.0,0.0,0.0,0.0,0.0,0.0,0.0,0.0,0.0,0.0,0.0,0.0,0.0,0.0,0.0,0.0,0.0,0.0,0.0,0.0,0.0,0.0,0.0,0.0,0.0,0.0,0.0,0.0,0.0,0.0,0.0,0.0,0.0,0.0,0.0,0.0,0.0,0.0,0.0,0.0,0.0,0.0,0.0,0.0,0.0,0.0,0.0,0.0,0.0,0.0,0.0,0.0,0.0,0.0,-3.8724,-4.0523,-4.1085,-4.2984,-4.2739,-4.0188,-3.9248,-3.6835,-3.2741,0.0,0.0,0.0,0.0,0.0,0.0,0.0,0.0,0.0,0.0,0.0,0.0,0.0,0.0,0.0,0.0,0.0,0.0,0.0,0.0,0.0,0.0,0.0,0.0,0.0,0.0,0.0,0.0,0.0,0.0,0.0,0.0,0.0,0.0,0.0,0.0,0.0,0.0,-2.451,-2.5557,0.0,0.0,0.0,0.0,0.0,0.0,0.0,0.0,-2.7217,0.0,0.0,0.0,0.0,0.0,0.0,0.0,0.0,0.0,0.0,0.0,0.0,0.0,0.0,0.0,0.0,0.0,0.0,0.0,0.0,0.0,0.0,0.0,0.0,0.0,0.0,0.0,0.0,0.0,0.0,0.0,0.0,0.0,0.0,0.0,0.0,0.0,0.0,0.0,0.0,0.0,0.0,0.0,0.0,0.0,0.0,0.0,0.0,0.0,0.0,0.0,0.0,0.0,0.0,0.0,0.0,-3.8211,-3.9296,-4.0535,-4.2022,-4.2783,-4.2199,-4.0163,-3.8715,-3.6036,-3.2055,0.0,0.0,0.0,0.0,0.0,0.0,0.0,0.0,0.0,0.0,0.0,0.0,0.0,0.0,0.0,0.0,0.0,0.0,0.0,0.0,0.0,0.0,0.0,0.0,0.0,0.0,0.0,0.0,0.0,0.0,0.0,0.0,0.0,0.0,0.0,0.0,0.0,0.0,0.0,-2.7954,-2.922,0.0,0.0,0.0,0.0,0.0,0.0,0.0,0.0,-2.6934,0.0,0.0,0.0,0.0,0.0,0.0,0.0,0.0,0.0,0.0,0.0,0.0,0.0,0.0,0.0,0.0,0.0,0.0,0.0,0.0,0.0,0.0,0.0,0.0,0.0,0.0,0.0,0.0,0.0,0.0,0.0,0.0,0.0,0.0,0.0,0.0,0.0,0.0,0.0,0.0,0.0,0.0,0.0,0.0,0.0,0.0,0.0,0.0,0.0,0.0,0.0,0.0,0.0,0.0,0.0,-3.734,-3.9001,-4.029,-4.1272,-4.1519,-4.0669,-3.8564,-3.6343,-3.3829,0.0,0.0,0.0,0.0,0.0,0.0,0.0,0.0,0.0,0.0,0.0,0.0,0.0,0.0,0.0,0.0,0.0,0.0,0.0,0.0,0.0,0.0,0.0,0.0,0.0,0.0,0.0,0.0,0.0,0.0,0.0,0.0,0.0,0.0,0.0,0.0,0.0,0.0,0.0,0.0,-2.8468,-2.9393,-2.9308,0.0,0.0,0.0,0.0,0.0,0.0,-2.7745,-2.7335,0.0,0.0,0.0,0.0,0.0,0.0,0.0,0.0,0.0,0.0,0.0,0.0,0.0,0.0,0.0,0.0,0.0,0.0,0.0,0.0,0.0,0.0,0.0,0.0,0.0,0.0,0.0,0.0,0.0,0.0,0.0,0.0,0.0,0.0,0.0,0.0,0.0,0.0,0.0,0.0,0.0,0.0,0.0,0.0,0.0,0.0,0.0,0.0,0.0,0.0,0.0,0.0,0.0,0.0,0.0,-3.5795,-3.8104,-3.9633,-4.0172,-4.0189,-3.9189,-3.7135,-3.4315,-3.2045,0.0,0.0,0.0,0.0,0.0,0.0,0.0,0.0,0.0,0.0,0.0,0.0,0.0,0.0,0.0,0.0,0.0,0.0,0.0,0.0,0.0,0.0,0.0,0.0,0.0,0.0,0.0,0.0,0.0,0.0,0.0,0.0,0.0,0.0,0.0,0.0,0.0,0.0,0.0,0.0,0.0,-2.9935,-2.9728,-2.9354,0.0,0.0,0.0,0.0,-2.8996,-2.8609,0.0,0.0,0.0,0.0,0.0,0.0,0.0,0.0,0.0,0.0,0.0,0.0,0.0,0.0,0.0,0.0,0.0,0.0,0.0,0.0,0.0,0.0,0.0,0.0,0.0,0.0,0.0,0.0,0.0,0.0,0.0,0.0,0.0,0.0,0.0,0.0,0.0,0.0,0.0,0.0,0.0,0.0,0.0,0.0,0.0,0.0,0.0,0.0,0.0,0.0,0.0,0.0,0.0,0.0,0.0,0.0,-3.5059,-3.6635,-3.8111,-3.9418,-3.9473,-3.8685,-3.7135,-3.4513,-3.2279,0.0,0.0,0.0,0.0,0.0,0.0,0.0,0.0,0.0,0.0,0.0,0.0,0.0,0.0,0.0,0.0,0.0,0.0,0.0,0.0,0.0,0.0,0.0,0.0,0.0,0.0,0.0,0.0,0.0,0.0,0.0,0.0,0.0,0.0,0.0,0.0,0.0,0.0,0.0,0.0,0.0,-3.2814,-3.0758,-3.0696,-3.0953,0.0,0.0,-2.9814,-3.1415,-3.093,0.0,0.0,0.0,0.0,0.0,0.0,0.0,0.0,0.0,0.0,0.0,0.0,0.0,0.0,0.0,0.0,0.0,0.0,0.0,0.0,0.0,0.0,0.0,0.0,0.0,0.0,0.0,0.0,0.0,0.0,0.0,0.0,0.0,0.0,0.0,0.0,0.0,0.0,0.0,0.0,0.0,0.0,0.0,0.0,0.0,0.0,0.0,0.0,0.0,0.0,0.0,0.0,0.0,0.0,0.0,-3.268,-3.4464,-3.5932,-3.7214,-3.8235,-3.7887,-3.7159,-3.6099,-3.2199,-2.995,0.0,0.0,0.0,0.0,0.0,0.0,0.0,0.0,0.0,0.0,0.0,0.0,0.0,0.0,0.0,0.0,0.0,0.0,0.0,0.0,0.0,0.0,0.0,0.0,0.0,0.0,0.0,0.0,0.0,0.0,0.0,0.0,0.0,0.0,0.0,0.0,0.0,0.0,0.0,0.0,0.0,0.0,-3.1138,-3.1684,0.0,0.0,0.0,-3.0847,-3.0945,0.0,0.0,0.0,0.0,0.0,0.0,0.0,0.0,0.0,0.0,0.0,0.0,0.0,0.0,0.0,0.0,0.0,0.0,0.0,0.0,0.0,0.0,0.0,0.0,0.0,0.0,0.0,0.0,0.0,0.0,0.0,0.0,0.0,0.0,0.0,0.0,0.0,0.0,0.0,0.0,0.0,0.0,0.0,0.0,0.0,0.0,0.0,0.0,0.0,0.0,0.0,0.0,0.0,0.0,0.0,0.0,0.0,-3.3558,-3.4913,-3.5963,-3.6668,-3.6153,-3.5609,-3.498,-3.0427,0.0,0.0,0.0,0.0,0.0,0.0,0.0,0.0,0.0,0.0,0.0,0.0,0.0,0.0,0.0,0.0,0.0,0.0,0.0,0.0,0.0,0.0,0.0,0.0,0.0,0.0,0.0,-2.0378,0.0,0.0,0.0,0.0,0.0,0.0,0.0,0.0,0.0,0.0,0.0,0.0,0.0,0.0,-3.1245,-3.1627,-3.2318,-3.2229,0.0,0.0,-3.1757,-3.0671,-3.014,-2.9083,0.0,0.0,0.0,0.0,0.0,0.0,0.0,0.0,0.0,0.0,0.0,0.0,0.0,0.0,0.0,0.0,0.0,0.0,0.0,0.0,0.0,0.0,0.0,0.0,0.0,0.0,0.0,0.0,0.0,0.0,0.0,0.0,0.0,0.0,0.0,0.0,0.0,0.0,0.0,0.0,0.0,0.0,0.0,0.0,0.0,0.0,0.0,0.0,0.0,0.0,0.0,0.0,0.0,0.0,0.0,-3.21,-3.305,-3.3881,-3.456,-3.4481,-3.4406,-3.4311,-3.0404,-2.8687,0.0,0.0,0.0,0.0,0.0,0.0,0.0,0.0,0.0,0.0,0.0,0.0,0.0,0.0,0.0,0.0,0.0,0.0,0.0,0.0,0.0,0.0,0.0,0.0,0.0,0.0,0.0,0.0,0.0,0.0,0.0,0.0,0.0,0.0,0.0,0.0,0.0,0.0,0.0,0.0,0.0,-3.2208,-3.2329,-3.2336,-3.2446,0.0,0.0,-3.2713,-3.1809,-3.285,-3.2762,-2.9712,0.0,0.0,0.0,0.0,0.0,0.0,0.0,0.0,0.0,0.0,0.0,0.0,0.0,0.0,0.0,0.0,0.0,0.0,0.0,0.0,0.0,0.0,0.0,0.0,0.0,0.0,0.0,0.0,0.0,0.0,0.0,0.0,0.0,0.0,0.0,0.0,0.0,0.0,0.0,0.0,0.0,0.0,0.0,0.0,0.0,0.0,0.0,0.0,0.0,0.0,0.0,0.0,0.0,-3.0024,-3.0798,-3.1719,-3.2477,-3.3065,-3.2751,-3.2527,-3.2442,-2.9294,-2.739,0.0,0.0,0.0,0.0,0.0,0.0,0.0,0.0,0.0,0.0,0.0,0.0,0.0,0.0,0.0,0.0,0.0,0.0,0.0,0.0,0.0,0.0,0.0,0.0,0.0,0.0,0.0,0.0,-2.0752,-2.1207,-2.1687,0.0,0.0,0.0,0.0,0.0,0.0,0.0,0.0,0.0,0.0,-3.1497,-3.2506,-3.3475,0.0,0.0,-3.3296,-3.367,-3.2441,-3.1812,-3.0733,-2.8564,-2.6887,0.0,0.0,0.0,0.0,0.0,0.0,0.0,0.0,0.0,0.0,0.0,0.0,0.0,0.0,0.0,0.0,0.0,0.0,0.0,0.0,0.0,0.0,0.0,0.0,0.0,0.0,0.0,0.0,0.0,0.0,0.0,0.0,0.0,0.0,0.0,0.0,0.0,0.0,0.0,0.0,0.0,0.0,0.0,0.0,0.0,0.0,0.0,0.0,0.0,0.0,0.0,0.0,-2.9199,-3.0289,-3.0638,-3.1158,-3.1931,-3.1574,-3.1247,-3.0893,-2.868,-2.6869,0.0,0.0,0.0,0.0,0.0,0.0,0.0,0.0,0.0,0.0,0.0,0.0,0.0,0.0,0.0,0.0,0.0,0.0,0.0,0.0,0.0,0.0,0.0,0.0,0.0,0.0,0.0,0.0,-2.1387,-2.1921,-2.2511,0.0,0.0,0.0,0.0,0.0,0.0,0.0,0.0,0.0,0.0,-3.1428,-3.3205,-3.4308,-3.4343,-3.2827,-3.371,-3.4143,-3.2948,-3.1741,-3.0352,-2.8685,0.0,0.0,0.0,0.0,0.0,0.0,0.0,0.0,0.0,0.0,0.0,0.0,0.0,0.0,0.0,0.0,0.0,0.0,0.0,0.0,0.0,0.0,0.0,0.0,0.0,0.0,0.0,0.0,0.0,0.0,-2.8094,0.0,0.0,0.0,0.0,0.0,0.0,0.0,0.0,0.0,0.0,0.0,0.0,0.0,0.0,0.0,0.0,0.0,0.0,0.0,0.0,0.0,0.0,-2.8446,-3.0706,-2.9729,-2.9805,-3.1073,-3.1102,-3.0748,-3.01,-2.8723,-2.7671,-2.6912,0.0,0.0,0.0,0.0,0.0,0.0,0.0,0.0,0.0,0.0,0.0,0.0,0.0,0.0,0.0,0.0,0.0,0.0,0.0,0.0,0.0,0.0,0.0,0.0,0.0,0.0,-2.4091,-2.2457,-2.1357,0.0,0.0,0.0,0.0,0.0,0.0,0.0,0.0,0.0,0.0,-3.0898,-3.2466,-3.4583,-3.4535,-3.4283,-3.4364,-3.428,-3.4012,-3.3454,-3.3434,-3.2901,0.0,0.0,0.0,0.0,0.0,0.0,0.0,0.0,0.0,0.0,0.0,0.0,0.0,0.0,0.0,0.0,0.0,0.0,0.0,0.0,0.0,0.0,0.0,0.0,0.0,0.0,0.0,-2.8859,-2.8309,0.0,0.0,0.0,0.0,0.0,0.0,0.0,0.0,0.0,0.0,0.0,-2.9574,-2.9506,0.0,0.0,0.0,0.0,0.0,0.0,0.0,0.0,0.0,0.0,0.0,0.0,-2.8564,-3.0008,-2.945,-2.9462,-3.0208,-2.9894,-2.917,-2.8074,-2.7541,-2.693,-2.6203,0.0,0.0,0.0,0.0,0.0,0.0,0.0,0.0,0.0,0.0,0.0,0.0,0.0,0.0,0.0,0.0,0.0,0.0,0.0,0.0,0.0,0.0,0.0,0.0,0.0,-2.323,0.0,0.0,0.0,0.0,0.0,0.0,0.0,0.0,0.0,0.0,0.0,-2.8804,-3.111,-3.1748,-3.2641,-3.4262,-3.4616,-3.4588,0.0,0.0,0.0,0.0,0.0,0.0,0.0,0.0,0.0,0.0,0.0,0.0,0.0,0.0,-3.0041,-2.8246,-2.7995,-2.8047,-2.8085,0.0,0.0,0.0,0.0,0.0,0.0,0.0,0.0,0.0,0.0,0.0,0.0,0.0,0.0,-2.8891,0.0,-2.8948,0.0,0.0,0.0,0.0,0.0,0.0,0.0,0.0,-2.9968,-3.0302,-2.9942,-2.9834,-2.9779,0.0,-2.9692,-2.908,0.0,0.0,0.0,0.0,0.0,0.0,0.0,0.0,-2.8423,-2.9319,-2.8857,-2.8819,-2.932,-2.9016,-2.8219,-2.6909,-2.6241,-2.5573,-2.4847,-2.3702,-2.3038,0.0,0.0,0.0,0.0,0.0,0.0,0.0,0.0,0.0,0.0,0.0,0.0,0.0,0.0,0.0,0.0,0.0,0.0,0.0,0.0,0.0,0.0,0.0,-2.3953,0.0,0.0,0.0,0.0,0.0,0.0,0.0,0.0,0.0,-2.7529,-2.8018,-2.9192,-3.1584,-3.214,-3.2878,-3.4374,0.0,0.0,0.0,0.0,0.0,0.0,0.0,-3.3731,-3.2788,-3.1992,-3.1366,-3.1249,-3.1269,-3.1138,-3.0643,0.0,0.0,-2.8623,-2.8134,-2.8107,-2.8447,-2.8378,-2.8243,-2.8258,-2.8117,-2.798,0.0,0.0,0.0,0.0,0.0,0.0,0.0,0.0,-2.7996,-2.848,0.0,-2.8297,0.0,0.0,0.0,0.0,0.0,-3.0633,0.0,0.0,-3.0446,-3.0859,-2.993,-2.993,-2.9905,-2.993,-3.0407,-2.9779,-2.8257,-2.7881,0.0,0.0,0.0,0.0,0.0,0.0,-2.7898,-2.857,-2.7961,-2.789,-2.8432,-2.846,-2.789,-2.6668,-2.4932,-2.3744,-2.3096,-2.3175,-2.2634,-2.1475,-2.2551,0.0,0.0,0.0,0.0,0.0,0.0,0.0,0.0,0.0,0.0,0.0,0.0,0.0,0.0,0.0,0.0,0.0,0.0,0.0,0.0,-2.5142,0.0,0.0,0.0,0.0,0.0,0.0,0.0,0.0,0.0,0.0,-2.7326,-2.846,-2.98,-3.1268,0.0,0.0,0.0,0.0,-3.487,-3.4388,-3.5352,-3.573,-3.4726,-3.5203,-3.5225,-3.3757,0.0,0.0,-3.1667,-3.1351,-3.1379,-3.1258,-3.0784,-3.0431,-3.1225,-3.0002,-2.9343,-3.0047,-2.9179,-2.8406,-2.8385,-2.8088,-2.7522,-3.0645,0.0,0.0,0.0,0.0,-3.0216,-3.0072,-2.9396,-3.0482,-3.0276,-2.9198,-2.9308,0.0,0.0,0.0,0.0,0.0,0.0,-3.1035,-3.0507,-3.1512,-3.1813,-3.1537,-3.1938,-3.2139,-3.2114,-3.1486,-3.0733,-2.9854,-2.8573,-2.8326,-2.8958,0.0,0.0,0.0,0.0,-2.7461,-2.842,-2.7931,-2.7664,-2.7802,-2.7802,-2.7214,-2.6016,-2.4697,-2.391,-2.3717,-2.3336,-2.299,-2.2688,-2.3011,0.0,0.0,0.0,0.0,0.0,0.0,0.0,0.0,0.0,0.0,0.0,0.0,0.0,0.0,0.0,0.0,0.0,0.0,0.0,-2.3769,-2.3843,-2.3873,0.0,0.0,0.0,0.0,0.0,0.0,0.0,0.0,0.0,-2.8047,-2.8417,-2.9446,0.0,0.0,-3.2536,-3.442,-3.4208,-3.3835,-3.3719,-3.3971,0.0,-3.3921,-3.4496,-3.4825,-3.4413,-3.4757,-3.4537,-3.3059,-3.3207,-3.3389,-3.2848,-3.2577,-3.2544,-3.2564,-3.0722,-2.9268,-2.9359,-2.9141,-2.8973,-2.9059,-2.8609,-2.8164,-3.2719,-3.1434,-3.0069,-2.951,-2.9737,-3.0482,-3.0376,-2.9728,-3.0656,-3.0556,-2.9792,-2.9567,-2.9842,-3.0559,-3.1015,0.0,0.0,0.0,-3.2591,-3.239,-3.2968,-3.3093,-3.2918,-3.3244,-3.3294,-3.3086,-3.239,-3.1763,-3.121,-3.0005,-2.9467,-2.9611,0.0,0.0,-2.92,-2.8189,-2.7792,-2.8032,-2.7663,-2.7359,-2.7129,-2.6863,-2.6392,-2.5659,-2.4602,-2.3989,-2.4003,-2.3243,-2.2801,-2.2825,-2.2642,-2.2616,0.0,0.0,0.0,0.0,0.0,0.0,0.0,0.0,0.0,0.0,0.0,-2.2292,-2.2449,0.0,0.0,0.0,-2.2212,-2.2505,-2.3463,-2.3162,0.0,0.0,0.0,0.0,0.0,0.0,0.0,-2.5887,-2.5989,-2.6452,-2.7619,-2.7901,-2.8925,-3.1486,-3.1202,-3.1353,-3.2996,0.0,-3.2171,-3.2226,-3.2437,-3.2565,-3.2463,-3.3161,-3.3815,-3.4091,-3.4443,-3.4542,-3.4032,-3.4201,-3.4336,-3.3931,-3.3592,-3.3322,-3.3017,-3.1278,-3.0112,-3.0715,-3.0398,-3.0165,-3.0564,-2.966,-2.8834,-3.4631,-3.4049,-3.1899,-3.045,-2.9642,-3.0036,-2.9994,-2.9622,-2.9559,-2.9994,-3.0677,-2.9373,-2.9724,-3.1382,-3.2555,0.0,-3.384,-3.4455,-3.4379,-3.3997,-3.45,-3.4424,-3.3897,-3.3897,-3.3621,-3.3136,-3.3136,-3.2817,-3.2265,-3.1712,-3.121,-3.0683,-2.9263,-2.8768,-2.9147,-2.9022,-2.8473,-2.7504,-2.7408,-2.7128,-2.6575,-2.5996,-2.5636,-2.5511,-2.4582,-2.4029,-2.3904,-2.2924,-2.2347,-2.2297,-2.182,-2.1794,-2.2246,0.0,0.0,0.0,0.0,0.0,0.0,0.0,0.0,0.0,0.0,0.0,0.0,0.0,0.0,0.0,-2.1833,0.0,-2.3629,-2.2958,0.0,0.0,0.0,-2.4515,-2.469,-2.5218,-2.5622,-2.583,0.0,0.0,-2.6841,-2.7375,-2.844,-3.0294,-2.9892,-2.9881,-3.117,-3.0758,-3.028,-3.0428,-3.0886,-3.1103,-3.0879,-3.1662,-3.257,-3.3084,-3.3201,-3.3535,-3.4081,-3.4315,-3.4382,-3.4303,-3.3863,-3.3152,-3.2429,-3.1785,-3.1772,-3.2971,-3.2196,-3.1487,-3.1905,-3.0633,-2.9282,-3.5832,-3.5024,-3.4155,-3.3058,-3.194,-3.2023,-3.2209,-3.2333,-3.1692,-3.145,-3.165,-3.0636,-3.0463,-3.0996,-3.2463,-3.3184,-3.3341,-3.4264,-3.465,-3.455,-3.465,-3.4424,-3.3922,-3.3897,-3.3621,-3.3136,-3.3136,-3.3061,-3.2842,-3.229,-3.1964,-3.1788,-3.1084,-3.0101,-2.8966,-2.8145,-2.7794,-2.7936,-2.7918,-2.7645,-2.7128,-2.6575,-2.5896,-2.5001,-2.4725,-2.4199,-2.3346,-2.307,-2.2719,-2.2347,-2.2196,-2.2171,-2.2297,-2.216,0.0,0.0,0.0,0.0,0.0,0.0,0.0,0.0,0.0,-2.1896,-2.1191,0.0,-2.1901,0.0,-2.1647,-2.2226,-2.2648,-2.3265,0.0,0.0,-2.5257,-2.5943,-2.6519,-2.6772,-2.717,-2.7829,-2.8038,-2.8308,-2.8813,-2.9052,-2.9285,-2.9773,-2.9229,-2.9286,-3.0475,-3.0171,-2.978,-2.9769,-2.9902,-3.0116,-3.0418,-3.1097,-3.1716,-3.2108,-3.2416,-3.2729,-3.304,-3.3381,-3.3587,-3.3639,-3.3558,-3.3119,-3.2395,-3.2598,-3.2476,-3.1975,-3.1492,-3.1196,-3.084,-2.996,-2.9229,-3.668,-3.5997,-3.5542,-3.4817,-3.3886,-3.3492,-3.3451,-3.3675,-3.2934,-3.2623,-3.2582,-3.1692,-3.1454,-3.1804,-3.2951,-3.3718,-3.4222,-3.5065,-3.5454,-3.5454,-3.5454,-3.5152,-3.4625,-3.4374,-3.3972,-3.3445,-3.3194,-3.3136,-3.3111,-3.2742,-3.2466,-3.2215,-3.1913,-3.106,-2.9704,-2.9076,-2.88,-2.885,-2.8122,-2.763,-2.7329,-2.6776,-2.6323,-2.5912,-2.5176,-2.46,-2.4199,-2.3496,-2.307,-2.305,-2.2824,-2.2799,-2.3025,-2.2347,-2.2017,0.0,0.0,0.0,0.0,0.0,0.0,0.0,0.0,0.0,0.0,0.0,-2.159,-2.1792,-2.1878,-2.245,-2.374,-2.4,-2.4322,-2.4893,-2.5653,-2.6281,-2.671,-2.7399,-2.8033,-2.8521,-2.8846,-2.9056,-2.9172,-2.9146,-2.9146,-2.9146,-2.8547,-2.8517,-2.9415,-2.9355,-2.9056,-2.8753,-2.8723,-2.8876,-2.9402,-2.9799,-3.0156,-3.0581,-3.0836,-3.1115,-3.1645,-3.1945,-3.2221,-3.246,-3.2567,-3.2316,-3.1523,-3.163,-3.1529,-3.0601,-3.0266,-3.0236,-3.0149,-2.9359,-2.8663,-3.726,-3.6846,-3.639,-3.5935,-3.5459,-3.4612,-3.43,-3.4196,-3.3679,-3.343,-3.3327,-3.2437,-3.2293,-3.2803,-3.3659,-3.4509,-3.5442,-3.6157,-3.6505,-3.6505,-3.643,-3.6081,-3.5483,-3.4977,-3.4424,-3.3897,-3.3345,-3.3136,-3.3136,-3.3136,-3.2817,-3.234,-3.2315,-3.1863,-3.0959,-3.0859,-3.0482,-2.9779,-2.8348,-2.7595,-2.7595,-2.7027,-2.6901,-2.7193,-2.5737,-2.5059,-2.5335,-2.3973,-2.3421,-2.3853,-2.3371,-2.3346,-2.3828,-2.2498,-2.192,0.0,-2.1518,0.0,0.0,0.0,0.0,0.0,0.0,0.0,0.0,-2.1247,-2.1379,-2.3043,-2.2273,-2.2692,-2.514,-2.4646,-2.4418,-2.4875,-2.5646,-2.6205,-2.6453,-2.7606,-2.8505,-2.867,-2.9295,-2.9502,-2.8996,-2.8906,-2.8996,-2.8966,-2.8573,-2.8364,-2.8517,-2.8547,-2.8278,-2.7645,-2.7585,-2.7911,-2.8223,-2.8284,-2.8477,-2.8935,-2.9025,-2.9243,-2.9991,-3.0183,-3.0376,-3.0794,-3.0976,-3.0788,-2.9888,-2.9848,-2.9702,-2.8908,-2.8807,-2.9077,-2.9465,-2.8861,-2.7962,-3.7446,-3.7322,-3.6867,-3.6411,-3.5914,-3.5477,-3.5273,-3.5107,-3.43,-3.3741,-3.3306,-3.2437,-3.2093,-3.2301,-3.3816,-3.4636,-3.4923,-3.6358,-3.7059,-3.7059,-3.6631,-3.6056,-3.5483,-3.4956,-3.4424,-3.3897,-3.3388,-3.3136,-3.3136,-3.3136,-3.3061,-3.2918,-3.2918,-3.286,-3.2591,0.0,0.0,0.0,-2.9478,-2.9327,-2.9277,-2.8323,-2.762,-2.7268,-2.6088,0.0,-2.433,-2.4004,-2.3678,-2.3271,-2.317,0.0,0.0,0.0,0.0,0.0,0.0,0.0,0.0,0.0,0.0,0.0,-2.261,-2.2445,-2.1697,-2.1437,-2.1665,-2.2413,-2.2284,-2.2377,-2.2911,-2.4061,-2.4781,-2.4914,-2.6029,-2.7029,-2.7583,-2.8116,-2.8628,-2.919,-2.9869,-3.0283,-3.0133,-3.0614,-3.0673,-3.0133,-3.0013,-2.9564,-2.8697,-2.8158,-2.7764,-2.7615,-2.7585,-2.761,-2.7735,-2.776,-2.786,-2.7997,-2.7827,-2.7891,-2.8215,-2.811,-2.8062,-2.841,-2.8608,-2.8649,-2.7921,-2.8501,-2.877,-2.7402,-2.7604,-2.806,-2.8196,-2.8044,-2.7841,-3.7893,0.0,-3.7061,-3.6357,0.0,-3.5405,-3.5161,-3.4881,-3.4207,-3.3534,-3.2881,-3.2798,-3.2468,-3.2241,-3.3519,-3.4137,-3.4221,-3.4973,-3.5322,-3.5298,-3.4845,-3.4679,-3.4773,-3.4472,-3.4428,-3.4545,-3.4129,-3.3897,-3.3872,-3.3621,-3.3495,-3.347,-3.3219,-3.2986,-3.2641,-3.2089,-3.1286,-3.0206,-2.9654,-2.9352,-2.9327,-2.8273,-2.7695,-2.7645,-2.6339,0.0,0.0,0.0,0.0,0.0,0.0,0.0,0.0,-2.4073,0.0,-2.3577,-2.3552,-2.3552,-2.3577,-2.3772,-2.3822,-2.3547,-2.3797,-2.3346,-2.1995,-2.1895,-2.2138,-2.2677,-2.2756,-2.2981,-2.3576,-2.4423,-2.5189,-2.5768,-2.6487,-2.7272,-2.8236,-2.8544,-2.8798,-2.9205,-2.9669,-2.9961,-2.9961,-2.9986,-3.0103,-3.0013,-2.9445,-2.8996,-2.8667,-2.8308,-2.7979,-2.7675,-2.7585,-2.7585,-2.7585,-2.7585,-2.761,-2.7655,-2.7588,-2.7491,-2.7636,-2.7342,-2.7141,-2.7484,-2.7571,-2.7389,-2.7068,-2.7547,-2.7776,-2.6788,-2.6876,-2.7249,-2.7266,-2.7266,-2.7266,-3.8221,-3.7563,-3.7116,-3.6334,-3.5328,-3.5184,-3.4779,-3.4195,0.0,0.0,0.0,-3.3299,-3.3128,-3.258,-3.3441,-3.378,-3.3682,-3.3623,-3.3514,-3.344,-3.2926,-3.3055,-3.37,-3.3646,-3.41,-3.4878,-3.4566,-3.452,-3.4655,-3.4173,-3.3897,-3.3847,-3.3345,-3.2842,-3.2365,-3.1813,-3.126,-3.0733,-2.979,-2.9327,-2.9164,-2.8247,-2.7946,-2.8398,-2.6766,-2.6122,-2.6449,-2.5485,-2.5109,-2.5435,-2.546,-2.546,-2.546,-2.5026,-2.4632,-2.4205,-2.4155,-2.4155,-2.4155,-2.4525,-2.4858,-2.4958,-2.485,-2.4173,-2.2723,-2.2594,-2.2854,-2.3428,-2.3303,-2.366,-2.4865,-2.4955,-2.5458,-2.6636,-2.6862,-2.7456,-2.8621,-2.8876,-2.8959,-2.9042,-2.9356,-2.9525,-2.961,-2.9396,-2.9209,-2.9535,-2.9052,-2.8214,-2.8607,-2.8517,-2.8128,-2.7705,-2.7585,-2.7585,-2.7585,-2.7585,-2.7585,-2.7585,-2.752,-2.7435,-2.737,-2.6969,-2.6788,-2.7041,-2.6878,-2.6598,-2.6398,-2.6684,-2.6708,-2.615,-2.6367,-2.6657,-2.6674,-2.6725,-2.6725,-3.7819,-3.767,-3.7227,-3.6763,-3.6193,-3.5571,-3.4611,-3.3587,-3.4022,-3.4126,-3.4044,-3.4015,-3.372,-3.3344,-3.439,-3.4528,-3.3961,-3.4137,-3.4034,-3.3705,-3.2808,-3.2431,-3.2509,-3.2332,-3.2737,-3.3696,-3.3475,-3.3811,-3.456,-3.4173,-3.3897,-3.3847,-3.3345,-3.3043,-3.2918,-3.239,-3.1813,-3.1286,-3.1135,-3.0834,-3.0382,-2.9754,-2.9478,-2.9478,-2.7921,-2.6876,-2.6499,-2.5837,-2.531,-2.4926,-2.4901,-2.4901,-2.4901,-2.4908,-2.4782,-2.4675,-2.4675,-2.4675,-2.4675,-2.475,-2.5008,-2.541,-2.5084,-2.4506,-2.3853,-2.3753,-2.3985,-2.4482,-2.373,-2.3604,-2.4665,-2.4879,-2.5405,-2.6541,-2.7157,-2.7824,-2.8682,-2.8794,-2.8878,-2.8963,-2.9544,-3.0008,-3.0121,-3.0474,-3.0529,-3.0404,-2.9894,-2.9864,-2.9322,-2.8483,-2.7794,-2.7615,-2.7585,-2.7585,-2.7585,-2.7585,-2.7585,-2.7585,-2.7165,-2.6871,-2.6901,-2.6387,-2.6062,-2.6075,-2.5952,-2.5734,-2.5728,-2.5876,-2.5947,-2.583,-2.6139,-2.6521,-2.6555,-2.664,-2.6674,-3.7946,-3.7748,-3.7089,-3.6415,-3.5798,-3.4975,-3.4334,-3.3794,-3.401,-3.3877,-3.3575,-3.3983,-3.3634,-3.2766,-3.3348,-3.333,-3.2815,-3.2461,-3.2256,-3.2104,-3.1559,-3.1561,-3.1961,-3.2317,-3.2718,-3.3273,-3.3903,-3.4246,-3.4338,-3.4364,-3.4243,-3.3921,-3.3126,-3.2766,-3.2828,-3.2603,-3.2222,-3.1838,-3.126,-3.0708,-3.0181,-2.9603,-2.9327,-2.9327,-2.8273,-2.762,-2.7369,-2.6816,-2.6414,-2.6163,-2.5887,-2.5711,-2.5711,-2.5988,-2.6163,-2.6163,-2.6163,-2.6163,-2.6163,-2.5862,-2.5686,-2.5611,-2.5661,-2.546,-2.4908,-2.4607,-2.4556,-2.475,-2.4299,-2.4224,-2.4725,-2.4836,-2.5335,-2.6573,-2.6969,-2.769,-2.8815,-2.8499,-2.8506,-2.9088,-2.9116,-2.9318,-3.0097,-3.0296,-3.0468,-3.0432,-3.0253,-2.9924,-2.9654,-2.9112,-2.8543,-2.8244,-2.8128,-2.7949,-2.7705,-2.7585,-2.7585,-2.7585,-2.7345,-2.7165,-2.7106,-2.6626,-2.6237,-2.6165,-2.5886,-2.5521,-2.5273,-2.5457,-2.5517,-2.5227,-2.5486,-2.5852,-2.6101,-2.6383,-2.664,-3.8007,-3.7648,-3.6779,-3.6032,-3.5332,-3.4551,-3.418,-3.4107,-3.3974,-3.3556,-3.3155,-3.392,-3.3599,-3.2495,-3.2514,-3.2292,-3.1792,-3.1043,-3.0633,-3.0574,-3.0402,-3.0625,-3.1264,-3.1951,-3.2393,-3.2745,-3.3782,-3.4036,-3.3723,-3.415,-3.4281,-3.3903,-3.3039,-3.266,-3.2897,-3.2773,-3.2511,-3.2148,-3.1386,-3.0708,-3.0156,-2.9603,-2.9264,-2.9277,-2.8612,-2.8261,-2.8273,-2.7745,-2.7469,-2.7444,-2.7077,-2.6851,-2.6876,-2.7218,-2.7469,-2.7469,-2.7469,-2.7454,-2.7268,-2.6927,-2.6499,-2.6013,-2.6323,-2.6424,-2.6163,-2.5686,-2.531,-2.5184,-2.4958,-2.485,-2.5159,-2.5084,-2.5503,-2.6707,-2.6882,-2.7589,-2.8923,-2.8428,-2.8153,-2.9103,-2.8676,-2.868,-2.9639,-2.9836,-2.9947,-3.033,-3.0088,-2.985,-2.982,-2.9903,-2.9774,-2.9205,-2.8906,-2.8693,-2.8154,-2.8094,-2.8124,-2.8034,-2.8094,-2.8034,-2.7854,-2.735,-2.6991,-2.6866,-2.6345,-2.5808,-2.5198,-2.5264,-2.5237,-2.479,-2.495,-2.5297,-2.5631,-2.6066,-2.6469,-3.7375,-3.7238,-3.6455,-3.5781,-3.5371,-3.4863,-3.4434,-3.4127,-3.3994,-3.3713,-3.3403,-3.405,-3.4101,-3.3638,-3.3156,-3.2615,-3.1919,-3.1067,-3.0576,-3.0233,-2.9878,-2.9738,-2.9944,-3.0203,-3.0581,-3.1211,-3.1698,-3.2192,-3.2476,-3.2992,-3.3481,-3.386,-3.3408,-3.3113,-3.3261,-3.2884,-3.2493,-3.2198,-3.2114,-3.1788,-3.126,-3.0733,-3.0457,-3.0457,-2.9389,-2.8813,-2.8838,-2.8323,-2.8021,-2.8021,-2.7971,-2.7921,-2.7946,-2.7996,-2.8021,-2.8021,-2.8047,-2.7821,-2.7344,-2.7278,-2.7168,-2.7118,-2.6751,-2.6927,-2.767,-2.7344,-2.6876,-2.6348,-2.541,-2.541,-2.6172,-2.5887,-2.6105,-2.7174,-2.7378,-2.7749,-2.8395,-2.8529,-2.8474,-2.8538,-2.8502,-2.8801,-2.9551,-2.9799,-3.0038,-3.0306,-3.0338,-3.028,-3.0338,-3.0805,-3.0943,-3.0372,-2.9894,-2.9532,-2.9322,-2.9412,-2.9232,-2.9292,-2.9382,-2.9082,-2.8637,-2.8397,-2.8248,-2.7525,-2.6956,-2.6327,-2.5761,-2.5431,-2.5158,-2.4769,-2.4842,-2.5111,-2.5272,-2.5594,-2.6012,-3.7305,-3.7207,-3.6367,-3.5918,-3.5703,-3.5293,-3.4863,-3.4479,-3.4177,-3.3799,-3.3437,-3.367,-3.3559,-3.3226,-3.3028,-3.2471,-3.1682,-3.1329,-3.0976,-3.0605,-3.0582,-3.0618,-3.0618,-3.0903,-3.1003,-3.0892,-3.1337,-3.1476,-3.1343,-3.1617,-3.189,-3.205,-3.1592,-3.1411,-3.1599,-3.2063,-3.2117,-3.1813,-3.2455,-3.2513,-3.1985,-3.129,-3.0882,-3.0807,-3.0109,-2.9646,-2.961,-2.8975,-2.8599,-2.8537,-2.8298,-2.8122,-2.8122,-2.8398,-2.8562,-2.8562,-2.8562,-2.8348,-2.7795,-2.7505,-2.7444,-2.7745,-2.7268,-2.7293,-2.7996,-2.7896,-2.767,-2.7419,-2.7017,-2.6992,-2.7318,-2.7218,-2.7183,-2.7411,-2.765,-2.7876,-2.7888,-2.7852,-2.793,-2.8379,-2.826,-2.8325,-2.903,-2.9345,-2.9504,-2.978,-3.0056,-3.0329,-3.048,-3.1043,-3.1333,-3.1152,-3.0853,-3.0372,-2.9834,-2.9621,-2.9624,-2.9594,-2.9621,-2.9415,-2.9265,-2.8786,-2.8457,-2.8218,-2.7619,-2.6961,-2.6303,-2.6129,-2.5886,-2.531,-2.4992,-2.5207,-2.5269,-2.5306,-2.547,-3.6518,-3.61,-3.5692,-3.5497,-3.5412,-3.5296,-3.5019,-3.4648,-3.4141,-3.3711,-3.3437,-3.3418,-3.3262,-3.2969,-3.2734,-3.2266,-3.1719,-3.1465,-3.1191,-3.0918,-3.1112,-3.1208,-3.1228,-3.1441,-3.1222,-3.0747,-3.106,-3.1093,-3.076,-3.0693,-3.0903,-3.1019,-3.0547,-3.0319,-3.0541,-3.1275,-3.1504,-3.1597,-3.2373,-3.2678,-3.2504,-3.192,-3.1462,-3.1224,-3.0638,-3.0341,-3.0316,-2.9795,-2.9488,-2.9488,-2.9038,-2.88,-2.88,-2.9051,-2.9139,-2.9113,-2.9176,-2.8888,-2.8336,-2.7946,-2.7896,-2.8247,-2.7821,-2.7821,-2.8373,-2.8423,-2.8423,-2.8549,-2.8574,-2.8448,-2.8122,-2.8122,-2.7921,-2.7595,-2.7896,-2.7972,-2.7704,-2.7551,-2.7803,-2.823,-2.808,-2.811,-2.875,-2.8828,-2.8798,-2.9183,-2.9457,-2.9749,-2.9934,-3.0389,-3.0837,-3.0984,-3.1043,-3.092,-3.0257,-3.0223,-3.0103,-3.0103,-3.0223,-3.0163,-2.9924,-2.9385,-2.8966,-2.8963,-2.8304,-2.7675,-2.7016,-2.6776,-2.6417,-2.5835,-2.55,-2.5404,-2.5404,-2.5351,-2.5383,-3.4718,-3.3474,-3.4001,-3.4073,-3.3932,-3.4471,-3.468,-3.4517,-3.3867,-3.3476,-3.3418,-3.3418,-3.3398,-3.332,-3.2617,-3.2187,-3.2031,-3.1348,-3.0976,-3.0898,-3.0957,-3.0957,-3.0957,-3.0937,-3.0702,-3.035,-3.0327,-3.0614,-3.0997,-3.076,-3.1116,-3.1924,-3.1026,-3.0771,-3.0805,-3.0553,-3.0746,-3.1298,-3.1529,-3.2055,-3.2869,-3.2751,-3.2191,-3.1443,-3.0957,-3.0712,-3.0679,-3.0861,-3.0975,-3.1,-3.0588,-3.0417,-3.0432,-3.003,-2.9779,-2.9754,-2.9754,-2.9503,-2.8963,-2.88,-2.8762,-2.8787,-2.8361,-2.8524,-2.9402,-2.9151,-2.9101,-2.9628,-2.9578,-2.9202,-2.8398,-2.8323,-2.8222,-2.8097,-2.8122,-2.8158,-2.8069,-2.8044,-2.8072,-2.8127,-2.8088,-2.8334,-2.9127,-2.8482,-2.8345,-2.8578,-2.8472,-2.84,-2.8806,-2.92,-2.9641,-2.9893,-3.0264,-3.0718,-3.1188,-3.1092,-3.1182,-3.1152,-3.0943,-3.1092,-3.0761,-3.0372,-3.0013,-2.9651,-2.8996,-2.8338,-2.7675,-2.7076,-2.6512,-2.6087,-2.5818,-2.5725,-2.5764,-2.5933,-2.5882,-3.3353,-3.2433,-3.2418,-3.2404,-3.2473,-3.3587,-3.379,-3.3397,-3.3985,-3.3926,-3.3476,-3.3418,-3.3418,-3.3398,-3.2832,-3.2422,-3.2209,-3.1836,-3.1426,-3.0957,-3.0898,-3.0898,-3.0898,-3.0898,-3.082,-3.0625,-3.0332,-3.0207,-3.0107,-2.9724,-2.9701,-2.9944,-2.9489,-2.9236,-2.9383,-2.9827,-3.0048,-3.0067,-3.0661,-3.1109,-3.1221,-3.1391,-3.1364,-3.108,-3.1404,-3.1382,-3.104,-3.0908,-3.0836,-3.0836,-3.0885,-3.0932,-3.0907,-3.0854,-3.0658,-3.0357,-3.0331,-3.008,-2.9528,-2.9126,-2.9063,-2.9402,-2.8913,-2.895,-2.9578,-2.9603,-2.9578,-2.9729,-2.9779,-2.9528,-2.9352,-2.9176,-2.9026,-2.875,-2.895,-2.8875,-2.8373,-2.8398,-2.8499,-2.8197,-2.8122,-2.8243,-2.8471,-2.8221,-2.8164,-2.847,-2.8734,-2.8887,-2.9159,-2.9698,-2.9981,-3.0117,-3.0122,-3.0126,-3.0315,-3.1101,-3.1481,-3.1481,-3.1421,-3.1361,-3.1122,-3.0702,-3.0313,-3.0223,-2.9654,-2.8966,-2.8248,-2.7675,-2.7051,-2.6811,-2.6542,-2.6243,-2.6243,-2.6331,-2.6105,-3.1589,-3.1449,-3.1064,-3.0831,-3.0926,-3.228,-3.2492,-3.2016,-3.3199,-3.3352,-3.2842,-3.3165,-3.3418,-3.3379,-3.3125,-3.2754,-3.2383,-3.2226,-3.1855,-3.1348,-3.1309,-3.1309,-3.1309,-3.1309,-3.1309,-3.125,-3.084,-3.041,-2.998,-2.9551,-2.9277,-2.9176,-2.8711,-2.8418,-2.8481,-2.9006,-2.9236,-2.9281,-2.9859,-3.017,-3.0264,-3.0589,-3.0726,-3.0687,-3.109,-3.1416,-3.1342,-3.0888,-3.0779,-3.1034,-3.061,-3.0374,-3.0629,-3.1058,-3.1154,-3.0894,-3.0859,-3.0708,-3.0357,-2.993,-2.9829,-3.0005,-2.9729,-2.9628,-2.9804,-2.9779,-2.9779,-2.9779,-2.9779,-2.9779,-2.9779,-2.9754,-2.9628,-2.9327,-2.9553,-2.9503,-2.88,-2.9001,-2.9001,-2.8775,-2.8524,-2.8473,-2.8549,-2.8298,-2.8296,-2.8532,-2.8877,-2.9019,-2.9267,-2.9556,-2.9797,-2.9712,-2.951,-2.9323,-2.9426,-2.9891,-3.0598,-3.0718,-3.0984,-3.1102,-3.1247,-3.0858,-3.0705,-3.0644,-3.0253,-2.9535,-2.8906,-2.8278,-2.7944,-2.7675,-2.7315,-2.6926,-2.6806,-2.6602,-2.6555,-2.9276,-3.0235,-2.9844,-2.9464,-2.9361,-3.0483,-3.0703,-3.0581,-3.142,-3.1716,-3.1488,-3.2575,-3.2956,-3.3272,-3.3107,-3.3039,-3.2793,-3.2461,-3.2207,-3.2051,-3.2131,-3.207,-3.2051,-3.2031,-3.2092,-3.2072,-3.168,-3.1269,-3.082,-3.0312,-2.9902,-2.9551,-2.9141,-2.873,-2.832,-2.85,-2.8668,-2.8951,-2.9178,-2.9627,-3.0615,-3.0628,-3.0438,-3.0139,-3.018,-3.0597,-3.1475,-3.0822,-3.0728,-3.1348,-2.9843,-2.9028,-2.9825,-3.0518,-3.1108,-3.1165,-3.1263,-3.1304,-3.1229,-3.1088,-3.0788,-3.0708,-3.0543,-3.0317,-3.008,-2.9905,-2.9841,-2.988,-2.9829,-2.9779,-2.9779,-2.9779,-2.9779,-2.9779,-2.9779,-2.9729,-2.9704,-2.9729,-2.9754,-2.9603,-2.9227,-2.9164,-2.9377,-2.8925,-2.8549,-2.8812,-2.871,-2.8568,-2.8802,-2.8948,-2.8441,-2.8296,-2.8665,-2.8984,-2.8719,-2.8583,-2.9247,-2.9808,-3.0178,-3.045,-3.0777,-3.069,-3.0836,-3.0804,-3.0586,-2.9926,-2.9445,-2.8846,-2.8364,-2.8064,-2.7764,-2.7525,-2.7285,-2.7171,-2.744,-2.8546,-2.8657,-2.8326,-2.7996,-2.7913,-2.9123,-2.939,-2.8976,-3.0241,-3.0446,-3.0035,-3.029,-3.1001,-3.1835,-3.1963,-3.2435,-3.316,-3.3066,-3.2734,-3.2266,-3.2187,-3.2187,-3.2187,-3.2187,-3.2229,-3.209,-3.1719,-3.1465,-3.1191,-3.0566,-3.0117,-2.9941,-2.957,-2.916,-2.875,-2.8711,-2.8711,-2.8549,-2.8542,-2.8753,-2.908,-2.9466,-2.9522,-2.9434,-2.9526,-2.9774,-3.0003,-2.9527,-2.9418,-2.9761,-2.9192,-2.9331,-3.0199,-3.0132,-3.0144,-3.04,-3.0009,-2.9905,-3.0145,-3.0372,-3.0704,-3.0982,-3.0998,-3.0988,-3.0819,-3.0308,-3.0094,-3.0227,-3.003,-2.9779,-2.9779,-2.9779,-2.9779,-2.9779,-2.9779,-2.9779,-2.9779,-2.9779,-2.9779,-2.9779,-2.9628,-2.9628,-2.9704,-2.9302,-2.9277,-2.9402,-2.9302,-2.924,-2.9303,-2.9265,-2.9366,-2.9226,-2.9182,-2.8774,-2.8594,-2.8376,-2.8545,-2.8997,-2.9351,-2.9718,-3.0086,-3.0418,-3.0628,-3.0808,-3.0597,-3.0349,-2.9869,-2.9475,-2.8996,-2.8577,-2.8338,-2.8068,-2.7764,-2.7854,-2.8184,-2.8165,-2.7844,-2.7613,-2.7291,-2.7071,-2.8042,-2.8023,-2.7757,-2.9086,-2.9292,-2.8777,-2.9206,-2.9848,-3.0532,-3.062,-3.1414,-3.2701,-3.2651,-3.2623,-3.2633,-3.2637,-3.2637,-3.2637,-3.2637,-3.2519,-3.2383,-3.2129,-3.1816,-3.1504,-3.0976,-3.0527,-3.0195,-2.9922,-2.959,-2.918,-2.8984,-2.8769,-2.8535,-2.8359,-2.8301,-2.8349,-2.864,-2.8712,-2.8593,-2.864,-2.8634,-2.8425,-2.8034,-2.8125,-2.8585,-2.8819,-2.9189,-2.9601,-2.9373,-2.9398,-2.9645,-2.9486,-2.9305,-2.9666,-2.9906,-3.0067,-3.0501,-3.0453,-3.0248,-3.0223,-2.9694,-2.9615,-3.0163,-2.985,-2.9702,-3.0002,-2.988,-2.9804,-2.9779,-2.9779,-2.9779,-2.9779,-2.9779,-2.9779,-2.9779,-2.9754,-2.9779,-2.9779,-2.9779,-2.9779,-2.9779,-2.9779,-2.9779,-2.9779,-2.9754,-2.9704,-2.9553,-2.9139,-2.8773,-2.8573,-2.8315,-2.8003,-2.823,-2.8545,-2.8903,-2.9282,-2.9594,-2.9844,-3.036,-3.0426,-3.045,-3.0089,-3.0048,-2.9744,-2.9355,-2.8886,-2.8816,-2.8693,-2.8753,-2.8936,-2.8224,-2.7874,-2.7642,-2.7335,-2.7056,-2.7144,-2.6938,-2.6801,-2.7879,-2.812,-2.7872,-2.8574,-2.9311,-2.9461,-2.9204,-2.9992,-3.1353,-3.1358,-3.1689,-3.2479,-3.2733,-3.2777,-3.3218,-3.301,-3.2855,-3.2871,-3.2754,-3.2344,-3.1758,-3.1484,-3.1113,-3.043,-3.0293,-3.0019,-2.9629,-2.9199,-2.9062,-2.8926,-2.8574,-2.8379,-2.8359,-2.8335,-2.8212,-2.7859,-2.7826,-2.7661,-2.7357,-2.6972,-2.7232,-2.8254,-2.8308,-2.8075,-2.7908,-2.8402,-2.8751,-2.9054,-2.9212,-2.9214,-2.9488,-2.9512,-2.9556,-2.9525,-2.9347,-2.8899,-2.893,-2.8683,-2.8806,-2.9725,-2.9332,-2.9333,-2.9933,-2.9846,-2.9549,-2.9635,-2.9674,-2.974,-2.9779,-2.9779,-2.9779,-2.9779,-2.9779,-2.9779,-2.9779,-2.9779,-2.9779,-2.9779,-2.9779,-2.9779,-2.9779,-2.9729,-2.9503,-2.9327,-2.9164,-2.9101,-2.8976,-2.8574,-2.8355,-2.8344,-2.836,-2.8369,-2.8579,-2.8826,-2.9223,-2.9754,-3.0092,-3.0192,-3.025,-2.9987,-2.9835,-2.942,-2.9269,-2.9516,-2.9537,-2.9421,-2.954,-2.8812,-2.8286,-2.7888,-2.7642,-2.7335,-2.71,-2.6808,-2.6601,-2.6858,-2.6918,-2.6583,-2.6504,-2.7317,-2.8051,-2.7862,-2.8461,-2.9633,-2.9791,-2.9835,-3.0225,-3.029,-3.1598,-3.2765,-3.2301,-3.2327,-3.2952,-3.2762,-3.2676,-3.2422,-3.1795,-3.1426,-3.1172,-3.084,-3.0488,-3.0059,-2.9902,-2.9687,-2.9394,-2.8984,-2.875,-2.8711,-2.8437,-2.8242,-2.8125,-2.7885,-2.7689,-2.7461,-2.707,-2.6634,-2.646,-2.6476,-2.6791,-2.7152,-2.6935,-2.7057,-2.7605,-2.7342,-2.7389,-2.8028,-2.8355,-2.8685,-2.9284,-2.8944,-2.9035,-2.9173,-2.8545,-2.8566,-2.9005,-2.8573,-2.8297,-2.868,-2.8691,-2.8542,-2.848,-2.9107,-2.9699,-2.9663,-2.9779,-2.9779,-2.9779,-2.9702,-2.9663,-2.9702,-2.9702,-2.974,-2.9779,-2.9779,-2.9779,-2.9779,-2.9779,-2.9628,-2.9679,-2.9603,-2.9528,-2.9352,-2.9001,-2.8725,-2.8636,-2.8428,-2.8048,-2.8126,-2.8119,-2.8622,-2.9101,-2.9226,-2.9372,-2.9431,-2.9402,-2.928,-2.9291,-2.9377,-2.9463,-2.9594,-2.9587,-2.9939,-2.9076,-2.8593,-2.8209,-2.7964,-2.7656,-2.7335,-2.7086,-2.691,-2.6749,-2.653,-2.6222,-2.6032,-2.6349,-2.7069,-2.6817,-2.7489,-2.8789,-2.8792,-2.906,-2.9493,-2.8976,-2.9747,-3.0991,-3.0678,-3.0872,-3.1579,-3.1992,-3.2055,-3.197,-3.1941,-3.1992,-3.1719,-3.1367,-3.1016,-3.0781,-3.0332,-3.0098,-2.9805,-2.9434,-2.9199,-2.916,-2.8789,-2.8594,-2.8476,-2.8144,-2.7924,-2.7656,-2.7422,-2.6894,-2.6211,-2.6065,-2.6211,-2.6428,-2.6042,-2.6014,-2.6504,-2.6139,-2.6284,-2.6791,-2.7105,-2.7437,-2.7934,-2.7955,-2.7955,-2.7985,-2.7632,-2.7597,-2.8313,-2.7785,-2.7789,-2.812,-2.8118,-2.7892,-2.7921,-2.8527,-2.8955,-2.8706,-2.8593,-2.8673,-2.8673,-2.8673,-2.887,-2.917,-2.9248,-2.9443,-2.9663,-2.9779,-2.9779,-2.9779,-2.9779,-2.9779,-2.9779,-2.9779,-2.9679,-2.9654,-2.9352,-2.9202,-2.9126,-2.88,-2.8321,-2.7881,-2.7808,-2.7979,-2.8362,-2.8411,-2.8524,-2.8712,-2.8907,-2.909,-2.9148,-2.9242,-2.9307,-2.9375,-2.958,-2.9987,-2.9237,-2.8915,-2.8578,-2.8271,-2.7978,-2.7671,-2.751,-2.7452,-2.7174,-2.6896,-2.6647,-2.6544,-2.6484,-2.6486,-2.6328,-2.6894,-2.8232,-2.7871,-2.8498,-2.8611,-2.8128,-2.8024,-2.8726,-2.902,-2.9248,-2.9705,-3.0613,-3.0801,-3.0819,-3.1653,-3.2127,-3.1761,-3.1416,-3.1424,-3.123,-3.0742,-3.0371,-3.0215,-2.9844,-2.9648,-2.9551,-2.9219,-2.9004,-2.8926,-2.8574,-2.8164,-2.7943,-2.7676,-2.7415,-2.6562,-2.6484,-2.6339,-2.5986,-2.5879,-2.582,-2.5849,-2.5879,-2.5868,-2.6062,-2.6187,-2.6187,-2.6544,-2.6332,-2.6159,-2.6476,-2.6416,-2.6662,-2.7568,-2.7205,-2.7292,-2.7778,-2.7699,-2.737,-2.7282,-2.7656,-2.7448,-2.7118,-2.7049,-2.7167,-2.7121,-2.7139,-2.7568,-2.8011,-2.841,-2.8593,-2.8673,-2.8949,-2.9028,-2.917,-2.9326,-2.9521,-2.9779,-2.9779,-2.9779,-2.9754,-2.9729,-2.9679,-2.9603,-2.9302,-2.8837,-2.8058,-2.7799,-2.7575,-2.7626,-2.7714,-2.7914,-2.8195,-2.8427,-2.8625,-2.8757,-2.8656,-2.8833,-2.8986,-2.929,-2.9677,-2.9573,-2.9222,-2.8666,-2.8326,-2.8209,-2.7993,-2.7847,-2.7817,-2.751,-2.732,-2.7174,-2.6749,-2.6559,-2.6515,-2.6266,-2.6272,-2.6758,-2.6668,-2.6703,-2.6728,-2.6358,-2.6055,-2.6571,-2.7209,-2.8163,-2.8888,-2.9378,-2.9587,-2.9678,-2.9771,-3.0113,-3.0946,-3.084,-3.0789,-3.1424,-3.1367,-3.1055,-3.0742,-3.0312,-3.0098,-3.0,-2.9648,-2.9414,-2.9355,-2.9004,-2.8594,-2.8262,-2.8164,-2.791,-2.7461,-2.709,-2.6894,-2.6641,-2.6387,-2.6269,-2.6172,-2.5918,-2.5762,-2.5791,-2.5859,-2.5791,-2.5888,-2.5908,-2.5839,-2.582,-2.582,-2.6014,-2.636,-2.6184,-2.6323,-2.6689,-2.6221,-2.6203,-2.6284,-2.6169,-2.5879,-2.5811,-2.6799,-2.7205,-2.7076,-2.7003,-2.7203,-2.7366,-2.7406,-2.7528,-2.7689,-2.7891,-2.8091,-2.8371,-2.8752,-2.9091,-2.9365,-2.9507,-2.9507,-2.9779,-2.9779,-2.9779,-2.9779,-2.9578,-2.9377,-2.8599,-2.7921,-2.7804,-2.7408,-2.6993,-2.7267,-2.7747,-2.7509,-2.7602,-2.7815,-2.8085,-2.8302,-2.8584,-2.8917,-2.9062,-2.9764,-2.9544,-2.8915,-2.8651,-2.8593,-2.8315,-2.8107,-2.8034,-2.7832,-2.77,-2.7627,-2.7305,-2.71,-2.6954,-2.6778,-2.6647,-2.65,-2.6471,-2.6383,-2.6337,-2.6047,-2.5915,-2.5824,-2.6268,-2.6988,-2.7573,-2.8194,-2.8394,-2.8527,-2.8971,-2.9924,-3.0847,-3.0544,-3.1114,-3.1908,-3.1854,-3.1582,-3.123,-3.0957,-3.0742,-3.0488,-3.0098,-2.9726,-2.9646,-2.9336,-2.9101,-2.8926,-2.8906,-2.8672,-2.832,-2.8027,-2.7598,-2.709,-2.6816,-2.6699,-2.6621,-2.6289,-2.6074,-2.6055,-2.6035,-2.5957,-2.5732,-2.5918,-2.583,-2.5752,-2.5674,-2.5723,-2.5868,-2.582,-2.5771,-2.5849,-2.5759,-2.563,-2.5686,-2.565,-2.5478,-2.545,-2.6041,-2.6454,-2.6152,-2.5873,-2.6192,-2.6358,-2.6479,-2.6839,-2.7085,-2.7307,-2.751,-2.7568,-2.7931,-2.8371,-2.8712,-2.9013,-2.9248,-2.9663,-2.9779,-2.9779,-2.9779,-2.9729,-2.9628,-2.9277,-2.8649,-2.8083,-2.7681,-2.7314,-2.7062,-2.73,-2.699,-2.7025,-2.7387,-2.7755,-2.7881,-2.7979,-2.814,-2.8204,-2.9939,-2.9881,-2.9237,-2.8988,-2.8973,-2.8666,-2.8549,-2.8534,-2.8107,-2.7947,-2.7932,-2.7903,-2.7686,-2.7569,-2.751,-2.7349,-2.71,-2.6939,-2.6764,-2.6574,-2.6442,-2.6281,-2.6105,-2.6099,-2.615,-2.5805,-2.6847,-2.7295,-2.7689,-2.847,-2.9043,-3.0313,-3.0334,-3.0429,-3.1577,-3.1746,-3.1039,-3.054,-3.0445,-3.0392,-3.0268,-3.0005,-2.9834,-2.9785,-2.9707,-2.959,-2.9473,-2.9434,-2.9355,-2.9043,-2.9023,-2.8398,-2.7584,-2.7148,-2.7109,-2.7109,-2.6719,-2.6504,-2.6484,-2.6465,-2.6348,-2.5957,-2.625,-2.6309,-2.6025,-2.5986,-2.6055,-2.6035,-2.6005,-2.6005,-2.5888,-2.5996,-2.5977,-2.5986,-2.6074,-2.5935,-2.5627,-2.5351,-2.537,-2.5209,-2.5303,-2.5516,-2.5653,-2.5807,-2.6168,-2.6493,-2.67,-2.6862,-2.688,-2.7131,-2.7586,-2.8032,-2.8322,-2.8323,-2.8681,-2.9674,-2.9713,-2.9568,-2.9582,-2.9752,-2.974,-2.9302,-2.8699,-2.8247,-2.7871,-2.757,-2.7429,-2.7465,-2.7465,-2.7429,-2.7384,-2.7582,-2.7507,-2.7361,-2.7411,-3.0276,-3.0299,-2.9573,-2.9442,-2.9588,-2.9061,-2.8973,-2.909,-2.8593,-2.8359,-2.8253,-2.8081,-2.7888,-2.7801,-2.7801,-2.7686,-2.7364,-2.7144,-2.6969,-2.6822,-2.6661,-2.6471,-2.6413,-2.6237,-2.6179,-2.6237,-2.6528,-2.6519,-2.6419,-2.6598,-2.7726,-2.8186,-2.8343,-2.879,-2.9451,-2.9281,-2.9421,-2.9208,-2.903,-2.8942,-2.8888,-2.9192,-2.9587,-2.9776,-2.9776,-2.9755,-2.9614,-2.9573,-2.9531,-2.9473,-2.9453,-2.9141,-2.8555,-2.7949,-2.7676,-2.748,-2.7148,-2.6914,-2.6914,-2.6914,-2.6894,-2.6836,-2.6875,-2.6875,-2.6777,-2.6738,-2.6641,-2.668,-2.6699,-2.6758,-2.6797,-2.668,-2.6758,-2.6699,-2.6515,-2.6329,-2.6173,-2.5868,-2.55,-2.5298,-2.5177,-2.5048,-2.5288,-2.5369,-2.5495,-2.5676,-2.5764,-2.5915,-2.602,-2.6339,-2.6808,-2.7266,-2.7676,-2.7556,-2.7499,-2.8833,-2.9578,-2.9218,-2.9282,-2.9806,-2.9785,-2.9765,-2.9402,-2.9026,-2.8524,-2.8072,-2.7971,-2.7971,-2.7971,-2.7971,-2.767,-2.7379,-2.7344,-2.7332,-2.6866,-3.0431,-3.0387,-2.9822,-2.98,-2.9793,-2.9544,-2.9383,-2.9325,-2.9061,-2.8827,-2.8666,-2.8505,-2.8344,-2.8242,-2.8122,-2.7949,-2.7525,-2.7335,-2.7144,-2.6983,-2.6837,-2.6749,-2.6749,-2.6574,-2.6617,-2.6676,-2.6588,-2.6398,-2.6281,-2.6337,-2.6849,-2.7636,-2.772,-2.8075,-2.8905,-2.9141,-2.8656,-2.8303,-2.8218,-2.8116,-2.8009,-2.8472,-2.8832,-2.8998,-2.9135,-2.9227,-2.9519,-2.9483,-2.9623,-2.983,-2.9902,-2.9668,-2.9222,-2.8832,-2.8437,-2.7974,-2.7617,-2.7363,-2.7363,-2.7344,-2.7266,-2.707,-2.7207,-2.7207,-2.707,-2.6973,-2.7051,-2.7031,-2.7012,-2.7012,-2.6973,-2.7051,-2.7012,-2.6992,-2.6816,-2.6738,-2.6621,-2.6309,-2.6006,-2.5686,-2.5389,-2.5218,-2.5219,-2.5177,-2.4931,-2.4902,-2.4912,-2.5067,-2.5305,-2.5781,-2.6302,-2.6909,-2.7379,-2.7541,-2.7425,-2.8275,-2.9068,-2.8807,-2.9035,-2.9569,-2.993,-2.9935,-3.0024,-2.9955,-2.9377,-2.88,-2.8524,-2.8524,-2.8524,-2.8473,-2.8122,-2.7795,-2.7519,-2.7253,-2.6876,-3.0437,-3.0422,-3.0181,-2.9998,-3.0027,-2.991,-2.9705,-2.95,-2.9383,-2.9164,-2.8915,-2.8856,-2.8725,-2.8564,-2.8403,-2.8154,-2.7656,-2.7627,-2.7437,-2.7291,-2.7217,-2.7174,-2.71,-2.7086,-2.7042,-2.691,-2.6925,-2.6852,-2.6647,-2.6603,-2.7038,-2.733,-2.7461,-2.7768,-2.847,-2.8191,-2.8328,-2.8113,-2.798,-2.7781,-2.7768,-2.7731,-2.787,-2.7991,-2.7991,-2.841,-2.8972,-2.8979,-2.9135,-2.9322,-2.9428,-2.9354,-2.8994,-2.8936,-2.8705,-2.8253,-2.7985,-2.7969,-2.7963,-2.7793,-2.7676,-2.7461,-2.7637,-2.7559,-2.7441,-2.7402,-2.7344,-2.7266,-2.7305,-2.7344,-2.7402,-2.7324,-2.7324,-2.7305,-2.7266,-2.7129,-2.7031,-2.6816,-2.6562,-2.6163,-2.5684,-2.5486,-2.5472,-2.5382,-2.5184,-2.5066,-2.5059,-2.4971,-2.5198,-2.5538,-2.6094,-2.6749,-2.7261,-2.7545,-2.7695,-2.7843,-2.831,-2.8137,-2.8668,-2.9362,-2.9818,-3.0147,-3.0285,-3.0353,-3.0306,-2.9779,-2.9453,-2.9063,-2.9101,-2.8976,-2.8574,-2.8298,-2.8122,-2.7745,-2.7293,-3.0773,-3.0729,-3.0504,-3.0451,-3.0568,-3.0115,-2.9866,-2.9764,-2.9515,-2.9193,-2.893,-2.8886,-2.8871,-2.8769,-2.8549,-2.8326,-2.8227,-2.8008,-2.7832,-2.7715,-2.764,-2.7613,-2.7452,-2.7422,-2.7247,-2.713,-2.7056,-2.6983,-2.6896,-2.6881,-2.6836,-2.6899,-2.6836,-2.6732,-2.6922,-2.6978,-2.621,-2.5996,-2.5989,-2.6213,-2.6627,-2.6711,-2.7116,-2.7637,-2.7807,-2.7899,-2.8083,-2.8157,-2.8164,-2.8018,-2.7948,-2.7539,-2.6939,-2.6765,-2.7196,-2.7675,-2.8252,-2.8769,-2.8637,-2.8476,-2.8242,-2.8105,-2.8184,-2.8184,-2.8086,-2.8066,-2.8086,-2.8144,-2.8144,-2.8144,-2.8144,-2.8144,-2.8144,-2.8008,-2.7871,-2.7715,-2.7559,-2.7226,-2.6992,-2.6797,-2.6348,-2.6016,-2.583,-2.5693,-2.5517,-2.5338,-2.5177,-2.5112,-2.5192,-2.5558,-2.5845,-2.648,-2.6855,-2.7136,-2.7317,-2.7565,-2.7611,-2.7479,-2.8274,-2.9034,-2.9422,-2.9849,-3.0413,-3.0507,-3.044,-3.0158,-2.9529,-2.9298,-2.9574,-2.9402,-2.895,-2.885,-2.8787,-2.8323,-2.772,-3.015,-3.0803,-3.0671,-3.0583,-3.0539,-3.0437,-3.0188,-2.9881,-2.972,-2.9471,-2.9164,-2.8959,-2.8886,-2.8856,-2.8739,-2.8593,-2.8432,-2.8209,-2.8034,-2.7932,-2.7888,-2.7815,-2.7773,-2.773,-2.7569,-2.7378,-2.7393,-2.7291,-2.7159,-2.6998,-2.6896,-2.6778,-2.6603,-2.6513,-2.6281,-2.6105,-2.5959,-2.5838,-2.5677,-2.5559,-2.5688,-2.5753,-2.5957,-2.638,-2.643,-2.6711,-2.7036,-2.7164,-2.743,-2.7587,-2.7815,-2.7576,-2.7149,-2.7039,-2.7202,-2.7134,-2.7329,-2.7994,-2.902,-2.8991,-2.8723,-2.8637,-2.8579,-2.8633,-2.8633,-2.8598,-2.8715,-2.9004,-2.9004,-2.8984,-2.8965,-2.9078,-2.9023,-2.8887,-2.8496,-2.8379,-2.8144,-2.7656,-2.7363,-2.7207,-2.7031,-2.668,-2.6309,-2.6016,-2.582,-2.5634,-2.5506,-2.5436,-2.5512,-2.5754,-2.6004,-2.6242,-2.6472,-2.6671,-2.6739,-2.6879,-2.6998,-2.7096,-2.7858,-2.8542,-2.8858,-2.9301,-2.9836,-2.9877,-2.9532,-2.9326,-2.9217,-2.9504,-2.9811,-2.9585,-2.9302,-2.9176,-2.9038,-2.8487,-2.8122,-2.93,-3.0734,-3.0817,-3.0685,-3.0495,-3.0729,-3.0495,-3.0012,-2.9961,-2.9676,-2.9354,-2.9047,-2.8886,-2.8886,-2.8871,-2.8754,-2.8578,-2.8549,-2.8417,-2.8256,-2.8169,-2.8154,-2.8095,-2.7976,-2.7905,-2.7598,-2.7759,-2.7656,-2.7408,-2.7247,-2.7217,-2.6998,-2.6778,-2.6661,-2.6574,-2.6442,-2.6281,-2.612,-2.5827,-2.5633,-2.5496,-2.5452,-2.5452,-2.5408,-2.5334,-2.5524,-2.6085,-2.6195,-2.6597,-2.6745,-2.6872,-2.6614,-2.6352,-2.6191,-2.6421,-2.6449,-2.6557,-2.7103,-2.8071,-2.8482,-2.8464,-2.8237,-2.8105,-2.7716,-2.7939,-2.829,-2.8644,-2.882,-2.9361,-2.9436,-2.9626,-2.9587,-2.9528,-2.9297,-2.9082,-2.9004,-2.8774,-2.8116,-2.7707,-2.7695,-2.7519,-2.7285,-2.6875,-2.6426,-2.6152,-2.5937,-2.584,-2.5781,-2.5859,-2.6024,-2.6139,-2.6292,-2.628,-2.6438,-2.6458,-2.6491,-2.6476,-2.664,-2.741,-2.7985,-2.8302,-2.8605,-2.9083,-2.8924,-2.8742,-2.8889,-2.9024,-2.9559,-3.004,-2.977,-2.949,-2.9369,-2.9136,-2.8687,-2.8612,-2.846,-3.0817,-3.0734,-3.0788,-3.0759,-3.0803,-3.0627,-3.0328,-2.9983,-2.9661,-2.931,-2.9076,-2.893,-2.8886,-2.8886,-2.8871,-2.8842,-2.8856,-2.8769,-2.8769,-2.8798,-2.8608,-2.8476,-2.8359,-2.8165,-2.7978,-2.799,-2.8022,-2.7876,-2.7773,-2.7481,-2.7071,-2.7071,-2.6998,-2.6954,-2.691,-2.6647,-2.6427,-2.612,-2.5959,-2.5871,-2.5857,-2.5857,-2.5827,-2.5652,-2.5545,-2.5569,-2.5538,-2.539,-2.5459,-2.5444,-2.5232,-2.5153,-2.5012,-2.5306,-2.5692,-2.5658,-2.6163,-2.6959,-2.7023,-2.6308,-2.6071,-2.6134,-2.6404,-2.6628,-2.7275,-2.7671,-2.7952,-2.8653,-2.9163,-2.935,-2.9534,-2.9145,-2.8955,-2.8653,-2.8649,-2.8401,-2.8234,-2.7941,-2.8058,-2.7969,-2.7715,-2.748,-2.7031,-2.6602,-2.6387,-2.6191,-2.6133,-2.6133,-2.631,-2.6318,-2.6335,-2.6198,-2.6304,-2.6408,-2.6352,-2.6207,-2.6255,-2.6764,-2.7295,-2.7704,-2.8039,-2.8185,-2.8486,-2.8426,-2.8655,-2.8679,-2.8674,-2.8876,-2.9516,-2.9663,-2.9262,-2.9564,-2.9607,-2.9574,-2.6588,-2.8376,-2.9216,-2.9953,-3.0554,-3.0744,-3.0642,-3.0401,-2.9998,-2.9559,-2.909,-2.9134,-2.9076,-2.8944,-2.8886,-2.8886,-2.8886,-2.8886,-2.89,-2.8886,-2.8856,-2.8812,-2.8725,-2.8666,-2.8549,-2.8344,-2.8388,-2.818,-2.7888,-2.8078,-2.7993,-2.77,-2.7598,-2.7583,-2.7554,-2.732,-2.6998,-2.6617,-2.6383,-2.6252,-2.6032,-2.6018,-2.6018,-2.5988,-2.5944,-2.5827,-2.5798,-2.571,-2.5461,-2.5242,-2.5154,-2.4832,-2.4496,-2.4408,-2.4618,-2.4925,-2.4857,-2.5101,-2.566,-2.5978,-2.6389,-2.6107,-2.5912,-2.5744,-2.5772,-2.6626,-2.6959,-2.7358,-2.7705,-2.8253,-2.8052,-2.8011,-2.7871,-2.7845,-2.7919,-2.7971,-2.792,-2.7753,-2.7927,-2.7956,-2.8106,-2.8086,-2.7871,-2.7656,-2.7226,-2.6836,-2.666,-2.6484,-2.6486,-2.6527,-2.6547,-2.6497,-2.6428,-2.6162,-2.6201,-2.6093,-2.5936,-2.6014,-2.6179,-2.6592,-2.7023,-2.6982,-2.7206,-2.7626,-2.7814,-2.7624,-2.7429,-2.7345,-2.7709,-2.856,-2.8892,-2.8911,-2.9397,-3.0057,-3.0177,-2.5141,-2.6758,-2.735,-2.8506,-2.9864,-3.0563,-3.07,-3.0466,-3.0159,-2.9647,-2.9061,-2.9266,-2.9193,-2.8959,-2.8886,-2.8886,-2.8886,-2.89,-2.8959,-2.9017,-2.9061,-2.9032,-2.9032,-2.8988,-2.8886,-2.8695,-2.871,-2.8608,-2.833,-2.8476,-2.8491,-2.8403,-2.8271,-2.8169,-2.7771,-2.7627,-2.7232,-2.691,-2.6661,-2.6574,-2.6339,-2.6339,-2.6339,-2.6325,-2.6252,-2.6164,-2.612,-2.6018,-2.5857,-2.5666,-2.5505,-2.5286,-2.4993,-2.4744,-2.4665,-2.4423,-2.4276,-2.4232,-2.464,-2.5029,-2.5855,-2.5262,-2.4967,-2.5011,-2.5376,-2.5758,-2.6131,-2.6342,-2.6729,-2.6961,-2.69,-2.7237,-2.7322,-2.7344,-2.7064,-2.7034,-2.7124,-2.7068,-2.7493,-2.7787,-2.7872,-2.7879,-2.813,-2.7896,-2.7331,-2.6975,-2.6875,-2.6777,-2.6828,-2.6789,-2.6769,-2.6741,-2.6663,-2.6358,-2.6035,-2.6221,-2.6349,-2.5918,-2.6015,-2.6084,-2.6307,-2.6335,-2.6324,-2.6572,-2.662,-2.64,-2.6416,-2.6588,-2.7096,-2.7693,-2.8121,-2.8557,-2.8645,-2.929,-2.9928,-2.4298,-2.6503,-2.5397,-2.6406,-2.8742,-3.022,-3.0636,-3.03,-3.0301,-2.9873,-2.9369,-2.9398,-2.9222,-2.8973,-2.893,-2.8973,-2.8988,-2.8988,-2.912,-2.9325,-2.9369,-2.9369,-2.9325,-2.9266,-2.9105,-2.893,-2.8871,-2.8842,-2.8783,-2.8856,-2.8988,-2.9061,-2.8793,-2.8457,-2.7917,-2.7656,-2.7481,-2.7408,-2.7144,-2.7027,-2.6983,-2.6969,-2.6969,-2.6925,-2.6705,-2.6603,-2.6559,-2.6325,-2.6164,-2.6018,-2.574,-2.5535,-2.5388,-2.5096,-2.4964,-2.492,-2.4686,-2.465,-2.4643,-2.4119,-2.4063,-2.4122,-2.4008,-2.3762,-2.373,-2.424,-2.5053,-2.5194,-2.5851,-2.6459,-2.6762,-2.6779,-2.6598,-2.6332,-2.5927,-2.6032,-2.6092,-2.6124,-2.6491,-2.7246,-2.7307,-2.7326,-2.7883,-2.8024,-2.7405,-2.711,-2.7026,-2.707,-2.7117,-2.7207,-2.7266,-2.709,-2.6992,-2.6738,-2.6562,-2.6758,-2.6699,-2.6211,-2.5996,-2.6143,-2.6114,-2.6133,-2.6006,-2.583,-2.5888,-2.6062,-2.6014,-2.5994,-2.6527,-2.7049,-2.7887,-2.8344,-2.834,-2.8553,-2.93,-2.3279,-2.4126,-2.4555,-2.5227,-2.6418,-2.8531,-2.9048,-2.8349,-2.8883,-2.9357,-2.9479,-2.9588,-2.9383,-2.909,-2.9041,-2.905,-2.9237,-2.9486,-2.9661,-2.9676,-2.9705,-2.9544,-2.9471,-2.9412,-2.9237,-2.8973,-2.89,-2.8944,-2.8871,-2.909,-2.9237,-2.931,-2.8985,-2.8651,-2.8355,-2.8125,-2.8037,-2.7817,-2.7686,-2.7627,-2.7613,-2.7523,-2.7509,-2.7494,-2.7202,-2.7042,-2.6998,-2.6605,-2.6473,-2.6268,-2.5962,-2.5714,-2.5593,-2.5286,-2.5163,-2.5081,-2.4987,-2.4973,-2.487,-2.4518,-2.4092,-2.3749,-2.3515,-2.334,-2.3289,-2.3417,-2.3713,-2.3882,-2.4487,-2.4781,-2.4332,-2.4409,-2.4286,-2.4209,-2.4132,-2.4729,-2.4939,-2.4984,-2.5258,-2.6429,-2.6946,-2.7024,-2.7382,-2.7123,-2.6662,-2.6749,-2.6705,-2.7333,-2.7549,-2.7799,-2.7871,-2.765,-2.7454,-2.7168,-2.707,-2.7187,-2.709,-2.666,-2.6504,-2.6562,-2.6426,-2.6172,-2.6035,-2.5977,-2.5889,-2.5839,-2.5977,-2.6055,-2.6024,-2.6451,-2.7332,-2.7793,-2.7699,-2.8158,-2.8992,-2.2631,-2.2447,-2.3573,-2.3907,-2.4143,-2.6796,-2.7519,-2.7096,-2.8181,-2.8538,-2.8137,-2.8776,-2.8431,-2.7803,-2.7884,-2.865,-2.8825,-2.8996,-2.9821,-2.9917,-3.0108,-3.0005,-2.9793,-2.9676,-2.9603,-2.931,-2.9222,-2.9251,-2.9295,-2.9456,-2.9391,-2.9094,-2.8747,-2.8339,-2.8138,-2.7908,-2.7765,-2.7564,-2.7449,-2.7348,-2.7348,-2.7363,-2.7453,-2.7395,-2.7265,-2.7121,-2.6992,-2.6864,-2.6633,-2.6388,-2.6155,-2.595,-2.5743,-2.5491,-2.5315,-2.5344,-2.5271,-2.5242,-2.514,-2.4905,-2.4466,-2.4057,-2.3866,-2.3676,-2.3501,-2.3657,-2.3627,-2.3549,-2.3427,-2.3491,-2.3491,-2.3413,-2.3354,-2.3417,-2.3532,-2.4143,-2.407,-2.4131,-2.4401,-2.5549,-2.6016,-2.6296,-2.6665,-2.6109,-2.5656,-2.6013,-2.6349,-2.7012,-2.7733,-2.7999,-2.8121,-2.7888,-2.776,-2.7598,-2.75,-2.7559,-2.7383,-2.707,-2.7051,-2.707,-2.6719,-2.6445,-2.6309,-2.6142,-2.6133,-2.6182,-2.6211,-2.628,-2.6359,-2.6478,-2.6872,-2.713,-2.6989,-2.7704,-2.8545,-2.2417,-2.1802,-2.2603,-2.2406,-2.2256,-2.4968,-2.6418,-2.6758,-2.7941,-2.7168,-2.5298,-2.7519,-2.7155,-2.5248,-2.5659,-2.6669,-2.7771,-2.7962,-2.8973,-2.9881,-3.0267,-3.0305,-3.0343,-3.0299,-3.0035,-2.9947,-2.9844,-2.9647,-2.9822,-2.9785,-2.9413,-2.8825,-2.8396,-2.7969,-2.7689,-2.7401,-2.7311,-2.7326,-2.7276,-2.7191,-2.7177,-2.703,-2.7149,-2.7107,-2.7022,-2.6852,-2.6636,-2.6453,-2.6464,-2.6341,-2.6113,-2.6186,-2.6068,-2.5801,-2.5801,-2.5743,-2.5582,-2.5579,-2.5505,-2.5257,-2.5066,-2.4715,-2.4452,-2.4232,-2.3998,-2.3896,-2.3866,-2.3881,-2.3866,-2.394,-2.3998,-2.391,-2.3837,-2.3749,-2.3618,-2.3676,-2.3484,-2.3542,-2.3778,-2.4238,-2.4414,-2.4801,-2.5494,-2.5251,-2.4565,-2.4762,-2.5081,-2.5644,-2.6421,-2.7685,-2.7809,-2.7968,-2.7863,-2.8047,-2.7969,-2.7857,-2.7793,-2.7519,-2.7559,-2.7539,-2.7148,-2.6816,-2.6738,-2.6641,-2.6523,-2.6523,-2.6582,-2.6719,-2.6836,-2.6988,-2.6951,-2.6843,-2.6872,-2.7276,-2.7994,-2.1449,-2.0744,-2.1625,-2.1359,-2.0598,-2.1475,-2.332,-2.5556,-2.5288,-2.4974,-2.592,-2.6588,-2.5878,-2.552,-2.5943,-2.6268,-2.6952,-2.7819,-2.8633,-2.9299,-2.9604,-3.018,-3.0355,-3.0185,-3.0063,-2.9998,-2.9895,-2.9954,-2.9858,-2.9813,-2.9289,-2.8536,-2.8163,-2.7673,-2.7241,-2.6998,-2.7138,-2.7287,-2.7226,-2.717,-2.722,-2.7128,-2.7142,-2.7114,-2.6961,-2.6808,-2.6697,-2.6502,-2.6519,-2.6581,-2.6135,-2.5981,-2.5956,-2.547,-2.5172,-2.5552,-2.5705,-2.5871,-2.5857,-2.5783,-2.5637,-2.5451,-2.5403,-2.4832,-2.4452,-2.4188,-2.4203,-2.4218,-2.4232,-2.4262,-2.4262,-2.4218,-2.4145,-2.4027,-2.394,-2.3837,-2.3632,-2.3554,-2.372,-2.3574,-2.3687,-2.3885,-2.4551,-2.4035,-2.3495,-2.3523,-2.383,-2.4363,-2.5222,-2.6471,-2.7253,-2.7381,-2.7869,-2.7953,-2.8174,-2.815,-2.8072,-2.8047,-2.8008,-2.791,-2.7598,-2.7324,-2.7207,-2.709,-2.6992,-2.6934,-2.6914,-2.709,-2.7285,-2.709,-2.7035,-2.6887,-2.6808,-2.7271,-2.7492,-2.0603,-1.998,-2.0781,-2.0431,-1.9407,-1.8943,-2.0404,-2.2385,-2.2718,-2.3146,-2.328,-2.4129,-2.394,-2.2859,-2.3213,-2.3863,-2.4468,-2.5059,-2.5919,-2.685,-2.7915,-2.8241,-2.862,-2.9159,-2.9365,-2.9539,-2.9823,-2.9924,-2.9756,-2.9332,-2.8772,-2.84,-2.7907,-2.7446,-2.7082,-2.6921,-2.6947,-2.7157,-2.7248,-2.7272,-2.7203,-2.7162,-2.7097,-2.7134,-2.6942,-2.6859,-2.6735,-2.6501,-2.6523,-2.65,-2.5996,-2.6033,-2.6118,-2.5775,-2.552,-2.5896,-2.5984,-2.6099,-2.6098,-2.5823,-2.5765,-2.5751,-2.5821,-2.5331,-2.4994,-2.4771,-2.4663,-2.4598,-2.454,-2.4496,-2.4481,-2.4466,-2.4379,-2.4291,-2.4247,-2.4203,-2.3984,-2.3749,-2.3608,-2.334,-2.3384,-2.3409,-2.3276,-2.2715,-2.261,-2.3035,-2.3308,-2.3566,-2.438,-2.5517,-2.6206,-2.6498,-2.7252,-2.7897,-2.8019,-2.8083,-2.8222,-2.8179,-2.8203,-2.8086,-2.791,-2.7767,-2.75,-2.7461,-2.748,-2.7461,-2.748,-2.7559,-2.7656,-2.7461,-2.7422,-2.748,-2.7422,-2.7447,-2.755,-1.9788,-1.9077,-1.986,-1.9426,-1.8366,-1.7551,-1.7805,-1.8602,-2.0568,-2.0558,-1.9613,-2.0895,-2.0972,-2.0317,-2.0616,-2.1307,-2.2063,-2.2783,-2.3555,-2.3887,-2.4826,-2.564,-2.6512,-2.696,-2.7375,-2.8644,-2.9425,-2.9202,-2.9258,-2.8952,-2.8648,-2.8317,-2.7729,-2.7403,-2.7281,-2.7121,-2.7068,-2.7055,-2.7109,-2.7055,-2.6638,-2.6465,-2.64,-2.6465,-2.6412,-2.6345,-2.6157,-2.6101,-2.6084,-2.6112,-2.6142,-2.6267,-2.6295,-2.6466,-2.6265,-2.629,-2.6277,-2.6353,-2.6269,-2.5984,-2.5712,-2.5598,-2.5455,-2.5469,-2.5394,-2.5183,-2.5125,-2.4979,-2.4905,-2.4818,-2.4788,-2.4841,-2.4782,-2.4642,-2.4583,-2.454,-2.4393,-2.4115,-2.3793,-2.3574,-2.3388,-2.337,-2.3207,-2.2828,-2.2798,-2.3036,-2.3065,-2.3175,-2.3657,-2.4659,-2.5175,-2.5594,-2.6448,-2.7155,-2.727,-2.7512,-2.8169,-2.8327,-2.8226,-2.8398,-2.834,-2.8066,-2.7806,-2.7773,-2.7832,-2.8027,-2.8105,-2.8066,-2.8008,-2.8027,-2.8027,-2.8184,-2.8125,-2.7871,-2.7793,-1.8775,-1.7977,-1.797,-1.7706,-1.7471,-1.72,-1.72,-1.7463,-1.7972,-1.8759,-1.9544,-2.0066,-2.0066,-1.9466,-1.9466,-1.9979,-2.0318,-2.0905,-2.1932,-2.2525,-2.2955,-2.3373,-2.4485,-2.4667,-2.5179,-2.5689,-2.6635,-2.811,-2.8517,-2.856,-2.8533,-2.8241,-2.7749,-2.7602,-2.7589,-2.7442,-2.7335,-2.7188,-2.7215,-2.7001,-2.656,-2.6426,-2.64,-2.64,-2.6373,-2.636,-2.6253,-2.6253,-2.6327,-2.6371,-2.6098,-2.5963,-2.5824,-2.6142,-2.6177,-2.6171,-2.6466,-2.6547,-2.6495,-2.6154,-2.5929,-2.5845,-2.5834,-2.5825,-2.5727,-2.5603,-2.5437,-2.5388,-2.5227,-2.5125,-2.5052,-2.5119,-2.5105,-2.5031,-2.4973,-2.4832,-2.4759,-2.4408,-2.4042,-2.3779,-2.353,-2.3369,-2.3223,-2.3149,-2.3106,-2.3091,-2.3091,-2.3153,-2.3197,-2.3855,-2.4297,-2.4799,-2.5528,-2.6111,-2.6329,-2.6846,-2.7473,-2.7902,-2.7881,-2.8227,-2.8587,-2.8437,-2.8144,-2.8144,-2.8223,-2.8281,-2.8301,-2.8262,-2.8262,-2.8301,-2.8301,-2.8301,-2.832,-2.8144,-2.8144,-1.7973,-1.7486,-1.7226,-1.7112,-1.7112,-1.7112,-1.7112,-1.7112,-1.7112,-1.763,-1.8584,-1.8681,-1.8681,-1.8681,-1.8681,-1.8768,-1.8846,-1.9351,-1.9438,-2.0038,-2.0809,-2.1231,-2.1836,-2.2439,-2.3126,-2.3641,-2.5276,-2.666,-2.7266,-2.8221,-2.8376,-2.8025,-2.7866,-2.7702,-2.7772,-2.7776,-2.7559,-2.7468,-2.7549,-2.7241,-2.6734,-2.6667,-2.6507,-2.6466,-2.64,-2.64,-2.64,-2.6386,-2.6385,-2.6421,-2.6238,-2.6184,-2.605,-2.6192,-2.6243,-2.633,-2.6493,-2.6613,-2.653,-2.6378,-2.617,-2.6087,-2.6046,-2.5931,-2.5726,-2.564,-2.5565,-2.5447,-2.5227,-2.5134,-2.5066,-2.5052,-2.5119,-2.5008,-2.5031,-2.4973,-2.4759,-2.451,-2.4203,-2.3954,-2.3808,-2.3779,-2.3676,-2.3676,-2.3632,-2.3632,-2.3559,-2.3501,-2.3486,-2.3369,-2.3708,-2.407,-2.4868,-2.5173,-2.5251,-2.5963,-2.6805,-2.714,-2.7393,-2.7493,-2.7641,-2.8295,-2.8555,-2.8188,-2.8037,-2.8281,-2.8301,-2.8218,-2.8267,-2.8301,-2.8301,-2.8301,-2.8359,-2.8457,-2.8437,-1.7348,-1.7323,-1.7177,-1.7112,-1.7112,-1.7112,-1.7112,-1.7112,-1.7112,-1.7112,-1.7288,-1.7288,-1.7112,-1.7112,-1.7112,-1.7112,-1.7279,-1.7885,-1.7543,-1.7455,-1.7543,-1.875,-1.9525,-2.0038,-2.0895,-2.2105,-2.3567,-2.4423,-2.5117,-2.6151,-2.6842,-2.7363,-2.7532,-2.7532,-2.7635,-2.7588,-2.7236,-2.7626,-2.7669,-2.7455,-2.7228,-2.7028,-2.676,-2.656,-2.644,-2.6426,-2.6413,-2.6386,-2.6386,-2.6373,-2.6346,-2.6306,-2.6293,-2.6331,-2.6358,-2.6383,-2.6418,-2.6493,-2.6411,-2.6284,-2.6162,-2.6093,-2.6093,-2.5978,-2.5752,-2.5621,-2.5569,-2.5453,-2.5241,-2.5057,-2.5057,-2.5081,-2.5081,-2.5066,-2.5037,-2.4993,-2.4803,-2.4642,-2.4423,-2.4188,-2.4145,-2.413,-2.4071,-2.4071,-2.4086,-2.4101,-2.4101,-2.4086,-2.4013,-2.3793,-2.3794,-2.3963,-2.4347,-2.4454,-2.4311,-2.5087,-2.6033,-2.6209,-2.6464,-2.6478,-2.6632,-2.7049,-2.7399,-2.7672,-2.7687,-2.7595,-2.7921,-2.7924,-2.8064,-2.8207,-2.8301,-2.8379,-2.873,-2.8809,-2.873,-1.7161,-1.7161,-1.712,-1.7112,-1.7112,-1.7112,-1.7112,-1.7112,-1.7112,-1.7112,-1.7112,-1.7112,-1.7112,-1.7112,-1.7112,-1.7112,-1.7112,-1.7136,-1.7128,-1.7112,-1.7145,-1.7384,-1.7814,-1.8444,-1.9021,-2.0134,-2.1272,-2.1856,-2.3052,-2.3652,-2.3824,-2.4081,-2.3995,-2.4605,-2.5884,-2.5967,-2.628,-2.6832,-2.7323,-2.7205,-2.7231,-2.7089,-2.7041,-2.6867,-2.6747,-2.6587,-2.6466,-2.64,-2.6386,-2.6386,-2.64,-2.64,-2.64,-2.64,-2.64,-2.6386,-2.6437,-2.6423,-2.6381,-2.6232,-2.6125,-2.6084,-2.5976,-2.5756,-2.5595,-2.5445,-2.5402,-2.5313,-2.5143,-2.506,-2.5027,-2.5062,-2.5033,-2.5072,-2.5028,-2.4999,-2.4882,-2.4891,-2.4841,-2.4598,-2.4481,-2.4364,-2.4203,-2.4203,-2.4203,-2.4218,-2.4232,-2.4232,-2.4262,-2.413,-2.3998,-2.4045,-2.4153,-2.3636,-2.345,-2.4423,-2.5182,-2.5403,-2.5598,-2.5814,-2.5823,-2.5617,-2.5947,-2.6657,-2.6583,-2.6397,-2.6788,-2.7327,-2.7882,-2.8011,-2.8226,-2.8457,-2.8832,-2.918,-2.9141]},{"header":{"parameterUnit":"m.s-1","parameterCategory":1,"la1":31.0,"la2":29.5877,"lo1":-88.7671,"lo2":-86.6584,"dy":0.0162,"dx":0.0185,"nx":115,"ny":88,"refTime":"2023-08-21T18:00:00:Z","depth":0,"parameterNumber":3,"parameterNumberName":"V-component_of_WINDS"},"data":[0.0,0.0,0.0,0.0,0.0,0.0,0.0,0.0,0.0,0.0,0.0,0.0,0.0,0.0,0.0,0.0,0.0,0.0,0.0,0.0,0.0,0.0,0.0,0.0,0.0,0.0,0.0,0.0,0.0,0.0,0.0,0.0,0.0,0.0,0.0,0.0,0.0,0.0,0.0,0.0,0.0,0.0,0.0,0.0,0.0,0.0,0.0,0.0,0.0,0.0,0.0,0.0,0.0,0.0,0.0,0.0,0.0,0.0,0.0,0.0,0.0,0.0,0.0,0.0,0.0,0.0,0.0,0.0,0.0,0.0,0.0,0.0,0.0,0.0,0.0,0.0,0.0,0.0,0.0,0.0,0.0,0.0,0.0,0.0,0.0,0.0,0.0,0.0,0.0,0.0,0.0,0.0,0.0,0.0,0.0,0.0,0.0,0.0,0.0,0.0,0.0,0.0,0.0,0.0,0.0,0.0,0.0,0.0,0.0,0.0,0.0,0.0,0.0,0.0,0.0,0.0,0.0,0.0,0.0,0.0,0.0,0.0,0.0,0.0,0.0,0.0,0.0,0.0,0.0,0.0,0.0,0.0,0.0,0.0,0.0,0.0,0.0,0.0,0.0,0.0,0.0,0.0,0.0,0.0,0.0,0.0,0.0,0.0,0.0,0.0,0.0,0.0,0.0,0.0,0.0,0.0,0.0,0.0,0.0,0.0,0.0,0.0,0.0,0.0,0.0,0.0,0.0,0.0,0.0,0.0,0.0,0.0,0.0,0.0,0.0,0.0,0.0,0.0,0.0,0.0,0.0,0.0,0.0,0.0,0.0,0.0,0.0,0.0,0.0,0.0,0.0,0.0,0.0,0.0,0.0,0.0,0.0,0.0,0.0,0.0,0.0,0.0,0.0,0.0,0.0,0.0,0.0,0.0,0.0,0.0,0.0,0.0,0.0,0.0,0.0,0.0,0.0,0.0,0.0,0.0,0.0,0.0,0.0,0.0,0.0,0.0,0.0,0.0,0.0,0.0,0.0,0.0,0.0,0.0,0.0,0.0,0.0,0.0,0.0,0.0,0.0,0.0,0.0,0.0,0.0,0.0,0.0,0.0,0.0,0.0,0.0,0.0,0.0,0.0,0.0,0.0,0.0,0.0,0.0,0.0,0.0,0.0,0.0,0.0,0.0,0.0,0.0,0.0,0.0,0.0,0.0,0.0,0.0,0.0,0.0,0.0,0.0,0.0,0.0,0.0,0.0,0.0,0.0,0.0,0.0,0.0,0.0,0.0,0.0,0.0,0.0,0.0,0.0,0.0,0.0,0.0,0.0,0.0,0.0,0.0,0.0,0.0,0.0,0.0,0.0,0.0,0.0,0.0,0.0,0.0,0.0,0.0,0.0,0.0,0.0,0.0,0.0,0.0,0.0,0.0,0.0,0.0,0.0,0.0,0.0,0.0,0.0,0.0,0.0,0.0,0.0,0.0,0.0,0.0,0.0,0.0,0.0,0.0,0.0,0.0,0.0,0.0,0.0,0.0,0.0,0.0,0.0,0.0,0.0,0.0,0.0,0.0,0.0,0.0,0.0,0.0,0.0,0.0,0.0,0.0,0.0,0.0,0.0,0.0,0.0,0.0,0.0,0.0,0.0,0.0,0.0,0.0,0.0,0.0,0.0,0.0,0.0,0.0,0.0,0.0,0.0,0.0,0.0,0.0,0.0,0.0,0.0,0.0,0.0,0.0,0.0,0.0,0.0,0.0,0.0,0.0,0.0,0.0,0.0,0.0,0.0,0.0,0.0,0.0,0.0,0.0,0.0,0.0,0.0,0.0,0.0,0.0,0.0,0.0,0.0,0.0,0.0,0.0,0.0,0.0,0.0,0.0,0.0,0.0,0.0,0.0,0.0,0.0,0.0,0.0,0.0,0.0,0.0,0.0,0.0,0.0,0.0,0.0,0.0,0.0,0.0,0.0,0.0,0.0,0.0,0.0,0.0,0.0,0.0,0.0,0.0,0.0,0.0,0.0,0.0,0.0,0.0,0.0,0.0,0.0,0.0,0.0,0.0,0.0,0.0,0.0,0.0,0.0,0.0,0.0,0.0,0.0,0.0,0.0,0.0,0.0,0.0,0.0,0.0,0.0,0.0,0.0,0.0,0.0,0.0,0.0,0.0,0.0,0.0,0.0,0.0,0.0,0.0,0.0,0.0,0.0,0.0,0.0,0.0,0.0,0.0,0.0,0.0,0.0,0.0,0.0,0.0,0.0,0.0,0.0,0.0,0.0,0.0,0.0,0.0,0.0,0.0,0.0,0.0,0.0,0.0,0.0,0.0,0.0,0.0,0.0,0.0,0.0,0.0,0.0,0.0,0.0,0.0,0.0,0.0,0.0,0.0,0.0,0.0,0.0,0.0,0.0,0.0,0.0,0.0,0.0,0.0,0.0,0.0,0.0,0.0,0.0,0.0,0.0,0.0,0.0,0.0,0.0,0.0,0.0,0.0,0.0,0.0,0.0,0.0,0.0,0.0,0.0,0.0,0.0,0.0,0.0,0.0,0.0,0.0,0.0,0.0,0.0,0.0,0.0,0.0,0.0,0.0,0.0,0.0,0.0,0.0,0.0,0.0,0.0,0.0,0.0,0.0,0.0,0.0,0.0,0.0,0.0,0.0,0.0,0.0,0.0,0.0,0.0,0.0,0.0,0.0,0.0,0.0,0.0,0.0,0.0,0.0,0.0,0.0,0.0,0.0,0.0,0.0,0.0,0.0,0.0,0.0,0.0,0.0,0.0,0.0,0.0,0.0,0.0,0.0,0.0,0.0,0.0,0.0,0.0,0.0,0.0,0.0,0.0,0.0,0.0,0.0,0.0,0.0,0.0,0.0,0.0,0.0,0.0,0.0,0.0,0.0,0.0,0.0,0.0,0.0,0.0,0.0,0.0,0.0,0.0,0.0,0.0,0.0,0.0,0.0,0.0,0.0,0.0,0.0,0.0,0.0,0.0,0.0,0.0,0.0,0.0,0.0,0.0,0.0,0.0,0.0,0.0,0.0,0.0,0.0,0.0,0.0,0.0,0.0,0.0,0.0,0.0,0.0,0.0,0.0,0.0,0.0,0.0,0.0,0.0,0.0,0.0,0.0,0.0,0.0,0.0,0.0,0.0,0.0,0.0,0.0,0.0,0.0,0.0,0.0,0.0,0.0,0.0,0.0,0.0,0.0,0.0,0.0,0.0,0.0,0.0,0.0,0.0,0.0,0.0,0.0,0.0,0.0,0.0,0.0,0.0,0.0,0.0,0.0,0.0,0.0,0.0,0.0,0.0,0.0,0.0,0.0,0.0,0.0,0.0,0.0,0.0,0.0,0.0,0.0,0.0,0.0,0.0,0.0,0.0,0.0,0.0,0.0,0.0,0.0,0.0,0.0,0.0,0.0,0.0,0.0,0.0,0.0,0.0,0.0,0.0,0.0,0.0,0.0,0.0,0.0,0.0,0.0,0.0,0.0,0.0,0.0,0.0,0.0,0.0,0.0,0.0,0.0,0.0,0.0,0.0,0.0,0.0,0.0,0.0,0.0,0.0,0.0,0.0,0.0,0.0,0.0,0.0,0.0,0.0,0.0,0.0,0.0,0.0,0.0,0.0,0.0,0.0,0.0,0.0,0.0,0.0,0.0,0.0,0.0,0.0,0.0,0.0,0.0,0.0,0.0,0.0,0.0,0.0,0.0,0.0,0.0,0.0,0.0,0.0,0.0,0.0,0.0,0.0,0.0,0.0,0.0,0.0,0.0,0.0,0.0,0.0,0.0,0.0,0.0,0.0,0.0,0.0,0.0,0.0,0.0,0.0,0.0,0.0,0.0,0.0,0.0,0.0,0.0,0.0,0.0,0.0,0.0,0.0,0.0,0.0,0.0,0.0,0.0,0.0,0.0,0.0,0.0,0.0,0.0,0.0,0.0,0.0,0.0,0.0,0.0,0.0,0.0,0.0,0.0,0.0,0.0,0.0,0.0,0.0,0.0,0.0,0.0,0.0,0.0,0.0,0.0,0.0,0.0,0.0,0.0,0.0,0.0,0.0,0.0,0.0,0.0,0.0,0.0,0.0,0.0,0.0,0.0,0.0,0.0,0.0,0.0,0.0,0.0,0.0,0.0,0.0,0.0,0.0,0.0,0.0,0.0,0.0,0.0,0.0,0.0,0.0,0.0,0.0,0.0,0.0,0.0,0.0,0.0,0.0,0.0,0.0,0.0,0.0,0.0,0.0,0.0,0.0,0.0,0.0,0.0,0.0,0.0,0.0,0.3122,0.0,0.0,0.0,0.0,0.0,0.0,0.0,0.0,0.0,0.0,0.0,0.0,0.0,0.0,0.0,0.0,0.0,0.0,0.0,0.0,0.0,0.0,0.0,0.0,0.0,0.0,0.0,0.0,0.0,0.0,0.0,0.0,0.0,0.0,0.0,0.0,0.0,0.0,0.0,0.0,0.0,0.0,0.0,0.0,0.0,0.0,0.0,0.0,0.0,0.0,0.0,0.0,0.0,0.0,0.0,0.0,0.0,0.0,0.0,0.0,0.0,0.0,0.0,0.0,0.0,0.0,0.0,0.0,0.0,0.0,0.0,0.0,0.0,0.0,0.0,0.0,0.0,0.0,0.0,0.0,0.0,0.0,0.0,0.0,0.0,0.0,0.0,0.0,0.0,0.0,0.0,0.0,0.0,0.0,0.0,0.0,0.0,0.0,0.0,0.0,0.0,0.0,0.0,0.0,0.0,0.0,0.0,0.0,0.0,0.0,0.295,0.2923,0.309,0.3389,0.3897,0.0,0.0,0.0,0.0,0.0,0.0,0.0,0.0,0.0,0.0,0.0,0.0,0.0,0.0,0.0,0.0,0.0,0.0,0.0,0.0,0.0,0.0,0.0,0.0,0.0,0.0,0.0,0.0,0.0,0.0,0.0,0.0,0.0,0.0,0.0,0.0,0.0,0.0,0.0,0.0,0.0,0.0,0.0,0.0,0.0,0.0,0.0,0.0,0.0,0.0,0.0,0.0,0.0,0.0,0.0,0.0,0.0,0.0,0.0,0.0,0.0,0.0,0.0,0.0,0.0,0.0,0.0,0.0,0.0,0.0,0.0,0.0,0.0,0.0,0.0,0.0,0.0,0.0,0.0,0.0,0.0,0.0,0.0,0.0,0.0,0.0,0.0,0.0,0.0,0.0,0.0,0.0,0.0,0.0,0.0,0.0,0.0,0.0,0.0,0.0,0.0,0.0,0.0,0.0,0.0,0.0,0.0,0.0,0.0,0.0,0.0,0.0,0.4326,0.4497,0.4933,0.0,0.0,0.0,0.0,0.0,0.0,0.0,0.0,0.0,0.0,0.0,0.0,0.0,0.0,0.0,0.0,0.0,0.0,0.0,0.0,0.0,0.0,0.0,0.0,0.0,0.0,0.0,0.0,0.0,0.0,0.0,0.0,0.0,0.0,0.0,0.0,0.0,0.0,0.0,0.0,0.0,0.0,0.0,0.0,0.0,0.0,0.0,0.0,0.0,0.0,0.0,0.0,0.0,0.0,0.0,0.0,0.0,0.0,0.0,0.0,0.0,0.0,0.0,0.0,0.0,0.0,0.0,0.0,0.0,0.0,0.0,0.0,0.0,0.0,0.0,0.0,0.0,0.0,0.0,0.0,0.0,0.0,0.0,0.0,0.0,0.0,0.0,0.0,0.0,0.0,0.0,0.0,0.0,0.0,0.0,0.0,0.0,0.0,0.0,0.0,0.0,0.0,0.0,0.0,0.0,0.0,0.0,0.0,0.0,0.0,0.5458,0.5651,0.5679,0.0,0.6155,0.0,0.0,0.0,0.0,0.0,0.0,0.0,0.0,0.0,0.0,0.0,0.0,0.0,0.0,0.0,0.0,0.0,0.0,0.0,0.0,0.0,0.0,0.0,0.0,0.0,0.0,0.0,0.0,0.0,0.0,0.0,0.0,0.0,0.0,0.0,0.0,0.0,0.0,0.0,0.0,0.0,0.0,0.0,0.0,0.0,0.0,0.0,0.0,0.0,0.0,0.0,0.0,0.0,0.0,0.0,0.0,0.0,0.0,0.0,0.0,0.0,0.0,0.0,0.0,0.0,0.0,0.0,0.0,0.0,0.0,0.0,0.0,0.0,0.0,0.0,0.0,0.0,0.0,0.0,0.0,0.0,0.0,0.0,0.0,0.0,0.0,0.0,0.0,0.0,0.0,0.0,0.0,0.0,0.0,0.0,0.0,0.0,0.0,0.0,0.0,0.0,0.0,0.0,0.0,0.0,0.0,0.0,0.0,0.0,0.0,0.6211,0.6776,0.651,0.6308,0.0,0.0,0.0,0.0,0.0,0.0,0.0,0.0,0.0,0.0,0.0,0.0,0.0,0.0,0.0,0.0,0.0,0.0,0.0,0.0,0.0,0.0,0.0,0.0,0.0,0.0,0.0,0.0,0.0,0.0,0.0,0.0,0.0,0.0,0.0,0.0,0.0,0.0,0.0,0.0,0.0,0.0,0.0,0.0,0.0,0.0,0.0,0.0,0.0,0.0,0.0,0.0,0.0,0.0,0.0,0.0,0.0,0.0,0.0,0.0,0.0,0.0,0.0,0.0,0.0,0.0,0.0,0.0,0.0,0.0,0.0,0.0,0.0,0.0,0.0,0.0,0.0,0.0,0.0,0.0,0.0,0.0,0.0,0.0,0.0,0.0,0.0,0.0,0.0,0.0,0.0,0.0,0.0,0.0,0.0,0.0,0.0,0.0,0.0,0.0,0.0,0.0,0.0,0.0,0.0,0.0,0.0,0.0,0.0,0.0,0.7109,0.7089,0.7732,0.718,0.663,0.6186,0.0,0.0,0.0,0.0,0.0,0.0,0.0,0.0,0.0,0.0,0.0,0.0,0.0,0.0,0.0,0.0,0.0,0.0,0.0,0.0,0.0,0.0,0.0,0.0,0.0,0.0,0.0,0.0,0.0,0.0,0.0,0.0,0.0,0.0,0.0,0.0,0.0,0.0,0.0,0.0,0.0,0.0,0.0,0.0,0.0,0.0,0.0,0.0,0.0,0.0,0.0,0.0,0.0,0.0,0.0,0.0,0.0,0.0,0.0,0.0,0.0,0.0,0.0,0.0,0.0,0.0,0.0,0.0,0.0,0.0,0.0,0.0,0.0,0.0,0.0,0.0,0.0,0.0,0.0,0.0,0.0,0.0,0.0,0.0,0.0,0.0,0.0,0.0,0.0,0.0,0.0,0.0,0.0,0.0,0.0,0.0,0.0,0.0,0.0,0.0,0.0,0.0,0.0,0.0,0.0,0.0,0.0,0.0,0.9339,0.8492,0.821,0.8576,0.7676,0.7084,0.0,0.0,0.0,0.0,0.0,0.0,0.0,0.0,0.0,0.0,0.0,0.0,0.0,0.0,0.0,0.0,0.0,0.0,0.0,0.0,0.0,0.0,0.0,0.0,0.0,0.0,0.0,0.0,0.0,0.0,0.0,0.0,0.0,0.0,0.0,0.0,0.0,0.0,0.0,0.0,0.0,0.0,0.0,0.0,0.0,0.0,0.0,0.0,0.0,0.0,0.0,0.0,0.0,0.0,0.0,0.0,0.0,0.0,0.0,0.0,0.0,0.0,0.0,0.0,0.0,0.0,0.0,0.0,0.0,0.0,0.0,0.0,0.0,0.0,0.0,0.0,0.0,0.0,0.0,0.0,0.0,0.0,0.0,0.0,0.0,0.0,0.0,0.0,0.0,0.0,0.0,0.0,0.0,0.0,0.0,0.0,0.0,0.0,0.0,0.0,0.0,0.0,0.0,0.0,0.0,0.0,0.0,0.0,0.0,0.8212,0.8089,0.812,0.8277,0.7454,0.7095,0.0,0.0,0.0,0.0,0.0,0.0,0.0,0.0,0.0,0.0,0.0,0.0,0.0,0.0,0.0,0.0,0.0,0.0,0.0,0.0,0.0,0.0,0.0,0.0,0.0,0.0,0.0,0.0,0.0,0.0,0.0,0.0,0.0,0.0,0.0,0.0,0.0,0.0,0.0,0.0,0.0,0.0,0.0,0.0,0.0,0.0,0.0,0.0,0.0,0.0,0.0,0.0,0.0,0.0,0.0,0.0,0.0,0.0,0.0,0.0,0.0,0.0,0.0,0.0,0.0,0.0,0.0,0.0,0.0,0.0,0.0,0.0,0.0,0.0,0.0,0.0,0.0,0.0,0.0,0.0,0.0,0.0,0.0,0.0,0.0,0.0,0.0,0.0,0.0,0.0,0.0,0.0,0.0,0.0,0.0,0.0,0.0,0.0,0.0,0.0,0.0,0.0,0.0,0.0,0.0,0.0,0.0,0.0,0.0,0.8001,0.0,0.8585,0.8673,0.787,0.757,0.0,0.0,0.0,0.0,0.0,0.0,0.0,0.0,0.0,0.0,0.0,0.0,0.0,0.0,0.0,0.0,0.0,0.0,0.0,0.0,0.0,0.0,0.0,0.0,0.0,0.0,0.0,0.0,0.0,0.0,0.0,0.0,0.0,0.0,0.0,0.0,0.0,0.0,0.0,0.0,0.0,0.0,0.0,0.0,0.0,0.0,0.0,0.0,0.0,0.0,0.0,0.0,0.0,0.0,0.0,0.0,0.0,0.0,0.0,0.0,0.0,0.0,0.0,0.0,0.0,0.0,0.0,0.0,0.0,0.0,0.0,0.0,0.0,0.0,0.0,0.0,0.0,0.0,0.0,0.0,0.0,0.0,0.0,0.0,0.0,0.0,0.0,0.0,0.0,0.0,0.0,0.0,0.0,0.0,0.0,0.0,0.0,0.0,0.0,0.0,0.0,0.0,0.0,0.0,0.0,0.0,0.0,0.0,0.8686,0.8988,0.9374,0.9804,0.998,0.9077,0.8576,0.0,0.0,0.0,0.0,0.0,0.0,0.0,0.0,0.0,0.0,0.0,0.0,0.0,0.0,0.0,0.0,0.0,0.0,0.0,0.0,0.0,0.0,0.0,0.0,0.0,0.0,0.0,0.0,0.0,0.0,0.0,0.0,0.0,0.0,0.0,0.0,0.0,0.0,0.0,0.0,0.0,0.0,0.0,0.0,0.0,0.0,0.0,0.0,0.0,0.0,0.0,0.0,0.0,0.0,0.0,0.0,0.0,0.0,0.0,0.0,0.0,0.0,0.0,0.0,0.0,0.0,0.0,0.0,0.0,0.0,0.0,0.0,0.0,0.0,0.0,0.0,0.0,0.0,0.0,0.0,0.0,0.0,0.0,0.0,0.0,0.0,0.0,0.0,0.0,0.0,0.0,0.0,0.0,0.0,0.0,0.0,0.0,0.0,0.0,0.0,0.0,0.0,0.0,0.0,0.0,0.0,0.0,0.0,0.0,0.9394,1.0566,1.1393,1.1787,1.0145,0.9679,0.0,0.0,0.0,0.0,0.0,0.0,0.0,0.0,0.0,0.0,0.0,0.0,0.0,0.0,0.0,0.0,0.0,0.0,0.0,0.0,0.0,0.0,0.0,0.0,0.0,0.0,0.0,0.0,0.0,0.0,0.0,0.0,0.0,0.0,0.0,0.0,0.0,0.0,0.0,0.0,0.0,0.0,0.0,0.0,0.0,0.0,0.0,0.0,0.0,0.0,0.0,0.0,0.0,0.0,0.0,0.0,0.0,0.0,0.0,0.0,0.0,0.0,0.0,0.0,0.0,0.0,0.0,0.0,0.0,0.0,0.0,0.0,0.0,0.0,0.0,0.0,0.0,0.0,0.0,0.0,0.0,0.0,0.0,0.0,0.0,0.0,0.0,0.0,0.0,0.0,0.0,0.0,0.0,0.0,0.0,0.0,0.0,0.0,0.0,0.0,0.0,0.0,0.0,0.0,0.0,0.0,0.0,0.0,0.0,1.1414,1.2006,1.2535,1.2829,1.1557,1.1078,1.1549,0.0,0.0,0.0,0.0,0.0,0.0,0.0,0.0,0.0,0.0,0.0,0.0,0.0,0.0,0.0,0.0,0.0,0.0,0.0,0.0,0.0,0.0,0.0,0.0,0.0,0.0,0.0,0.0,0.0,0.0,0.0,0.0,0.0,0.0,0.0,0.0,0.0,0.0,0.0,0.0,0.0,0.0,0.0,0.0,0.0,0.0,0.0,0.0,0.0,0.0,0.0,0.0,0.0,0.0,0.0,0.0,0.0,0.0,0.0,0.0,0.0,0.0,0.0,0.0,0.0,0.0,0.0,0.0,0.0,0.0,0.0,0.0,0.0,0.0,0.0,0.0,0.0,0.0,0.0,0.0,0.0,0.0,0.0,0.0,0.0,0.0,0.0,0.0,0.0,0.0,0.0,0.0,0.0,0.0,0.0,0.0,0.0,0.0,0.0,0.0,0.0,0.0,0.0,0.0,0.0,0.0,0.0,0.0,1.4405,1.3796,1.3493,1.3454,1.3308,1.2767,0.0,0.0,0.0,0.0,0.0,0.0,0.0,0.0,0.0,0.0,0.0,0.0,0.0,0.0,0.0,0.0,0.0,0.0,0.0,0.0,0.0,0.0,0.0,0.0,0.0,0.0,0.0,0.0,0.0,0.0,0.0,0.0,0.0,0.0,0.0,0.0,0.0,0.0,0.0,0.0,0.0,0.0,0.0,0.0,0.0,0.0,0.0,0.0,0.0,0.0,0.0,0.0,0.0,0.0,0.0,0.0,0.0,0.0,0.0,0.0,0.0,0.0,0.0,0.0,0.0,0.0,0.0,0.0,0.0,0.0,0.0,0.0,0.0,0.0,0.0,0.0,0.0,0.0,0.0,0.0,0.0,0.0,0.0,0.0,0.0,0.0,0.0,0.0,0.0,0.0,0.0,0.0,0.0,0.0,0.0,0.0,0.0,0.0,0.0,0.0,0.0,0.0,0.0,0.0,0.0,0.0,0.0,0.0,0.0,1.4663,1.5892,1.6771,1.7099,1.5534,1.4548,0.0,0.0,0.0,0.0,0.0,0.0,0.0,0.0,0.0,0.0,0.0,0.0,0.0,0.0,0.0,0.0,0.0,0.0,0.0,0.0,0.0,0.0,0.0,0.0,0.0,0.0,0.0,0.0,0.0,0.0,0.0,0.0,0.0,0.0,0.0,0.0,0.0,0.0,0.0,0.0,0.0,0.0,0.0,0.0,0.0,0.0,0.0,0.0,0.0,0.0,0.0,0.0,0.0,0.0,0.0,0.0,0.0,0.0,0.0,0.0,0.0,0.0,0.0,0.0,0.0,0.0,0.0,0.0,0.0,0.0,0.0,0.0,0.0,0.0,0.0,0.0,0.0,0.0,0.0,0.0,0.0,0.0,0.0,0.0,0.0,0.0,0.0,0.0,0.0,0.0,0.0,0.0,0.0,0.0,0.0,0.0,0.0,0.0,0.0,0.0,0.0,0.0,0.0,0.0,0.0,0.0,0.0,0.0,1.5394,1.6106,1.7713,1.8918,1.9714,1.8069,1.6691,0.0,0.0,0.0,0.0,0.0,0.0,0.0,0.0,0.0,0.0,0.0,0.0,0.0,0.0,0.0,0.0,0.0,0.0,0.0,0.0,0.0,0.0,0.0,0.0,0.0,0.0,0.0,0.0,0.0,0.0,0.0,0.0,0.0,0.0,0.0,0.0,0.0,0.0,0.0,0.0,0.0,0.0,0.0,0.0,0.0,0.0,0.0,0.0,0.0,0.0,0.0,0.0,0.0,0.0,0.0,0.0,0.0,0.0,0.0,0.0,0.0,0.0,0.0,0.0,0.0,0.0,0.0,0.0,0.0,0.0,0.0,0.0,0.0,0.0,0.0,0.0,0.0,0.0,0.0,0.0,0.0,0.0,0.0,0.0,0.0,0.0,0.0,0.0,0.0,0.0,0.0,0.0,0.0,0.0,0.0,0.0,0.0,0.0,0.0,0.0,0.0,0.0,0.0,0.0,0.0,0.0,0.0,0.0,1.666,1.8241,1.9128,2.0165,2.134,2.0348,1.8801,0.0,0.0,0.0,0.0,0.0,0.0,0.0,0.0,0.0,0.0,0.0,0.0,0.0,0.0,0.0,0.0,0.0,0.0,0.0,0.0,0.0,0.0,0.0,0.0,0.0,0.0,0.0,0.0,0.0,0.0,0.0,0.0,0.0,0.0,0.0,0.0,0.0,0.0,0.0,0.0,0.0,0.0,0.0,0.0,0.0,0.0,0.0,0.0,0.0,0.0,0.0,0.0,0.0,0.0,0.0,0.0,0.0,0.0,0.0,0.0,0.0,0.0,0.0,0.0,0.0,0.0,0.0,0.0,0.0,0.0,0.0,0.0,0.0,0.0,0.0,0.0,0.0,0.0,0.0,0.0,0.0,0.0,0.0,0.0,0.0,0.0,0.0,0.0,0.0,0.0,0.0,0.0,0.0,0.0,0.0,0.0,0.0,0.0,0.0,0.0,0.0,0.0,0.0,0.0,0.0,0.0,0.0,0.0,1.7645,1.9239,1.9503,2.0375,2.2037,2.0492,1.9124,0.0,0.0,0.0,0.0,0.0,0.0,0.0,0.0,0.0,0.0,0.0,0.0,0.0,0.0,0.0,0.0,0.0,0.0,0.0,0.0,0.0,0.0,0.0,0.0,0.0,0.0,0.0,0.0,0.0,0.0,0.0,0.0,0.0,0.0,0.0,0.0,0.0,0.0,0.0,0.0,0.0,0.0,0.0,0.0,0.0,0.0,0.0,0.0,0.4997,0.0,0.0,0.0,0.0,0.0,0.0,0.0,0.0,0.0,0.0,0.0,0.0,0.0,0.0,0.0,0.0,0.0,0.0,0.0,0.0,0.0,0.0,0.0,0.0,0.0,0.0,0.0,0.0,0.0,0.0,0.0,0.0,0.0,0.0,0.0,0.0,0.0,0.0,0.0,0.0,0.0,0.0,0.0,0.0,0.0,0.0,0.0,0.0,0.0,0.0,0.0,0.0,0.0,0.0,0.0,0.0,0.0,0.0,0.0,1.9013,2.0512,2.1114,2.1786,2.2547,2.1466,2.0372,0.0,0.0,0.0,0.0,0.0,0.0,0.0,0.0,0.0,0.0,0.0,0.0,0.0,0.0,0.0,0.0,0.0,0.0,0.0,0.0,0.0,0.0,0.0,0.0,0.0,0.0,0.0,0.0,0.0,0.0,0.0,0.0,0.0,0.0,0.0,0.0,0.0,0.0,0.0,0.0,0.0,0.0,0.0,0.0,0.0,0.0,0.0,0.0,0.0,0.0,0.0,0.0,0.0,0.0,0.0,0.0,0.0,0.0,0.0,0.0,0.0,0.0,0.0,0.0,0.0,0.0,0.0,0.0,0.0,0.0,0.0,0.0,0.0,0.0,0.0,0.0,0.0,0.0,0.0,0.0,0.0,0.0,0.0,0.0,0.0,0.0,0.0,0.0,0.0,0.0,0.0,0.0,0.0,0.0,0.0,0.0,0.0,0.0,0.0,0.0,0.0,0.0,0.0,0.0,0.0,0.0,0.0,1.9678,2.0536,2.2076,2.2915,2.3206,2.2969,2.2489,2.1589,2.0359,0.0,0.0,0.0,0.0,0.0,0.0,0.0,0.0,0.0,0.0,0.0,0.0,0.0,0.0,0.0,0.0,0.0,0.0,0.0,0.0,0.0,0.0,0.0,0.0,0.0,0.0,0.0,0.0,0.0,0.0,0.0,0.0,0.0,0.0,0.0,0.0,0.0,0.0,0.8951,0.8925,0.0,0.0,0.0,0.0,0.0,0.0,0.0,0.0,0.5723,0.0,0.0,0.0,0.0,0.0,0.0,0.0,0.0,0.0,0.0,0.0,0.0,0.0,0.0,0.0,0.0,0.0,0.0,0.0,0.0,0.0,0.0,0.0,0.0,0.0,0.0,0.0,0.0,0.0,0.0,0.0,0.0,0.0,0.0,0.0,0.0,0.0,0.0,0.0,0.0,0.0,0.0,0.0,0.0,0.0,0.0,0.0,0.0,0.0,0.0,0.0,0.0,0.0,0.0,0.0,0.0,2.1784,2.1114,2.178,2.3775,2.3289,2.2972,2.3013,2.224,2.1174,1.9982,0.0,0.0,0.0,0.0,0.0,0.0,0.0,0.0,0.0,0.0,0.0,0.0,0.0,0.0,0.0,0.0,0.0,0.0,0.0,0.0,0.0,0.0,0.0,0.0,0.0,0.0,0.0,0.0,0.0,0.0,0.0,0.0,0.0,0.0,0.0,0.0,0.0,0.0,0.0,1.0451,1.0744,0.0,0.0,0.0,0.0,0.0,0.0,0.0,0.0,0.6934,0.0,0.0,0.0,0.0,0.0,0.0,0.0,0.0,0.0,0.0,0.0,0.0,0.0,0.0,0.0,0.0,0.0,0.0,0.0,0.0,0.0,0.0,0.0,0.0,0.0,0.0,0.0,0.0,0.0,0.0,0.0,0.0,0.0,0.0,0.0,0.0,0.0,0.0,0.0,0.0,0.0,0.0,0.0,0.0,0.0,0.0,0.0,0.0,0.0,0.0,0.0,0.0,0.0,0.0,0.0,2.227,2.2291,2.3027,2.4676,2.4335,2.3777,2.3114,2.1729,2.0528,0.0,0.0,0.0,0.0,0.0,0.0,0.0,0.0,0.0,0.0,0.0,0.0,0.0,0.0,0.0,0.0,0.0,0.0,0.0,0.0,0.0,0.0,0.0,0.0,0.0,0.0,0.0,0.0,0.0,0.0,0.0,0.0,0.0,0.0,0.0,0.0,0.0,0.0,0.0,0.0,1.075,1.1173,1.1287,0.0,0.0,0.0,0.0,0.0,0.0,0.8383,0.839,0.0,0.0,0.0,0.0,0.0,0.0,0.0,0.0,0.0,0.0,0.0,0.0,0.0,0.0,0.0,0.0,0.0,0.0,0.0,0.0,0.0,0.0,0.0,0.0,0.0,0.0,0.0,0.0,0.0,0.0,0.0,0.0,0.0,0.0,0.0,0.0,0.0,0.0,0.0,0.0,0.0,0.0,0.0,0.0,0.0,0.0,0.0,0.0,0.0,0.0,0.0,0.0,0.0,0.0,0.0,2.2694,2.3122,2.3991,2.5347,2.5174,2.4488,2.3205,2.1599,2.0219,0.0,0.0,0.0,0.0,0.0,0.0,0.0,0.0,0.0,0.0,0.0,0.0,0.0,0.0,0.0,0.0,0.0,0.0,0.0,0.0,0.0,0.0,0.0,0.0,0.0,0.0,0.0,0.0,0.0,0.0,0.0,0.0,0.0,0.0,0.0,0.0,0.0,0.0,0.0,0.0,0.0,1.1829,1.2542,1.2121,0.0,0.0,0.0,0.0,0.8969,0.9781,0.0,0.0,0.0,0.0,0.0,0.0,0.0,0.0,0.0,0.0,0.0,0.0,0.0,0.0,0.0,0.0,0.0,0.0,0.0,0.0,0.0,0.0,0.0,0.0,0.0,0.0,0.0,0.0,0.0,0.0,0.0,0.0,0.0,0.0,0.0,0.0,0.0,0.0,0.0,0.0,0.0,0.0,0.0,0.0,0.0,0.0,0.0,0.0,0.0,0.0,0.0,0.0,0.0,0.0,0.0,0.0,2.3536,2.3339,2.4221,2.6152,2.5208,2.4115,2.3205,2.2306,2.1012,0.0,0.0,0.0,0.0,0.0,0.0,0.0,0.0,0.0,0.0,0.0,0.0,0.0,0.0,0.0,0.0,0.0,0.0,0.0,0.0,0.0,0.0,0.0,0.0,0.0,0.0,0.0,0.0,0.0,0.0,0.0,0.0,0.0,0.0,0.0,0.0,0.0,0.0,0.0,0.0,0.0,1.3971,1.3215,1.4029,1.4311,0.0,0.0,1.2235,1.2335,1.2497,0.0,0.0,0.0,0.0,0.0,0.0,0.0,0.0,0.0,0.0,0.0,0.0,0.0,0.0,0.0,0.0,0.0,0.0,0.0,0.0,0.0,0.0,0.0,0.0,0.0,0.0,0.0,0.0,0.0,0.0,0.0,0.0,0.0,0.0,0.0,0.0,0.0,0.0,0.0,0.0,0.0,0.0,0.0,0.0,0.0,0.0,0.0,0.0,0.0,0.0,0.0,0.0,0.0,0.0,0.0,2.1682,2.3301,2.4408,2.5577,2.671,2.5978,2.5242,2.4579,2.239,2.0971,0.0,0.0,0.0,0.0,0.0,0.0,0.0,0.0,0.0,0.0,0.0,0.0,0.0,0.0,0.0,0.0,0.0,0.0,0.0,0.0,0.0,0.0,0.0,0.0,0.0,0.0,0.0,0.0,0.0,0.0,0.0,0.0,0.0,0.0,0.0,0.0,0.0,0.0,0.0,0.0,0.0,0.0,1.3904,1.5325,0.0,0.0,0.0,1.4631,1.3858,0.0,0.0,0.0,0.0,0.0,0.0,0.0,0.0,0.0,0.0,0.0,0.0,0.0,0.0,0.0,0.0,0.0,0.0,0.0,0.0,0.0,0.0,0.0,0.0,0.0,0.0,0.0,0.0,0.0,0.0,0.0,0.0,0.0,0.0,0.0,0.0,0.0,0.0,0.0,0.0,0.0,0.0,0.0,0.0,0.0,0.0,0.0,0.0,0.0,0.0,0.0,0.0,0.0,0.0,0.0,0.0,0.0,2.3172,2.4846,2.6129,2.6886,2.6267,2.5753,2.5356,2.2515,0.0,0.0,0.0,0.0,0.0,0.0,0.0,0.0,0.0,0.0,0.0,0.0,0.0,0.0,0.0,0.0,0.0,0.0,0.0,0.0,0.0,0.0,0.0,0.0,0.0,0.0,0.0,1.2274,0.0,0.0,0.0,0.0,0.0,0.0,0.0,0.0,0.0,0.0,0.0,0.0,0.0,0.0,1.3952,1.4622,1.6334,1.7182,0.0,0.0,1.64,1.5084,1.5274,1.4939,0.0,0.0,0.0,0.0,0.0,0.0,0.0,0.0,0.0,0.0,0.0,0.0,0.0,0.0,0.0,0.0,0.0,0.0,0.0,0.0,0.0,0.0,0.0,0.0,0.0,0.0,0.0,0.0,0.0,0.0,0.0,0.0,0.0,0.0,0.0,0.0,0.0,0.0,0.0,0.0,0.0,0.0,0.0,0.0,0.0,0.0,0.0,0.0,0.0,0.0,0.0,0.0,0.0,0.0,0.0,2.3537,2.3957,2.5071,2.6699,2.5573,2.4883,2.4814,2.3067,2.2162,0.0,0.0,0.0,0.0,0.0,0.0,0.0,0.0,0.0,0.0,0.0,0.0,0.0,0.0,0.0,0.0,0.0,0.0,0.0,0.0,0.0,0.0,0.0,0.0,0.0,0.0,0.0,0.0,0.0,0.0,0.0,0.0,0.0,0.0,0.0,0.0,0.0,0.0,0.0,0.0,0.0,1.5406,1.5334,1.7148,1.8171,0.0,0.0,1.6848,1.6471,1.7009,1.7009,1.5508,0.0,0.0,0.0,0.0,0.0,0.0,0.0,0.0,0.0,0.0,0.0,0.0,0.0,0.0,0.0,0.0,0.0,0.0,0.0,0.0,0.0,0.0,0.0,0.0,0.0,0.0,0.0,0.0,0.0,0.0,0.0,0.0,0.0,0.0,0.0,0.0,0.0,0.0,0.0,0.0,0.0,0.0,0.0,0.0,0.0,0.0,0.0,0.0,0.0,0.0,0.0,0.0,0.0,2.2986,2.39,2.5006,2.6124,2.7196,2.6344,2.5873,2.598,2.4094,2.278,0.0,0.0,0.0,0.0,0.0,0.0,0.0,0.0,0.0,0.0,0.0,0.0,0.0,0.0,0.0,0.0,0.0,0.0,0.0,0.0,0.0,0.0,0.0,0.0,0.0,0.0,0.0,0.0,1.2936,1.3091,1.3355,0.0,0.0,0.0,0.0,0.0,0.0,0.0,0.0,0.0,0.0,1.6309,1.6652,1.7752,0.0,0.0,1.6737,1.6422,1.5822,1.5948,1.5744,1.4751,1.4334,0.0,0.0,0.0,0.0,0.0,0.0,0.0,0.0,0.0,0.0,0.0,0.0,0.0,0.0,0.0,0.0,0.0,0.0,0.0,0.0,0.0,0.0,0.0,0.0,0.0,0.0,0.0,0.0,0.0,0.0,0.0,0.0,0.0,0.0,0.0,0.0,0.0,0.0,0.0,0.0,0.0,0.0,0.0,0.0,0.0,0.0,0.0,0.0,0.0,0.0,0.0,0.0,2.3592,2.4418,2.5594,2.6553,2.7392,2.6907,2.6629,2.6502,2.4822,2.3511,0.0,0.0,0.0,0.0,0.0,0.0,0.0,0.0,0.0,0.0,0.0,0.0,0.0,0.0,0.0,0.0,0.0,0.0,0.0,0.0,0.0,0.0,0.0,0.0,0.0,0.0,0.0,0.0,1.3757,1.3865,1.4101,0.0,0.0,0.0,0.0,0.0,0.0,0.0,0.0,0.0,0.0,1.751,1.7842,1.8098,1.8116,1.7639,1.713,1.6699,1.6472,1.6347,1.5885,1.4774,0.0,0.0,0.0,0.0,0.0,0.0,0.0,0.0,0.0,0.0,0.0,0.0,0.0,0.0,0.0,0.0,0.0,0.0,0.0,0.0,0.0,0.0,0.0,0.0,0.0,0.0,0.0,0.0,0.0,0.0,3.3333,0.0,0.0,0.0,0.0,0.0,0.0,0.0,0.0,0.0,0.0,0.0,0.0,0.0,0.0,0.0,0.0,0.0,0.0,0.0,0.0,0.0,0.0,2.4134,2.5144,2.5279,2.5909,2.7011,2.6977,2.6729,2.6165,2.5189,2.4374,2.3758,0.0,0.0,0.0,0.0,0.0,0.0,0.0,0.0,0.0,0.0,0.0,0.0,0.0,0.0,0.0,0.0,0.0,0.0,0.0,0.0,0.0,0.0,0.0,0.0,0.0,0.0,1.6326,1.5255,1.4372,0.0,0.0,0.0,0.0,0.0,0.0,0.0,0.0,0.0,0.0,1.8428,1.9077,1.8826,1.817,1.8229,1.9541,1.8564,1.7989,1.8927,1.8964,1.8237,0.0,0.0,0.0,0.0,0.0,0.0,0.0,0.0,0.0,0.0,0.0,0.0,0.0,0.0,0.0,0.0,0.0,0.0,0.0,0.0,0.0,0.0,0.0,0.0,0.0,0.0,0.0,3.5086,3.5431,0.0,0.0,0.0,0.0,0.0,0.0,0.0,0.0,0.0,0.0,0.0,3.2134,3.2987,0.0,0.0,0.0,0.0,0.0,0.0,0.0,0.0,0.0,0.0,0.0,0.0,2.4776,2.5914,2.5544,2.6123,2.7802,2.7393,2.7083,2.6992,2.5908,2.4731,2.3438,0.0,0.0,0.0,0.0,0.0,0.0,0.0,0.0,0.0,0.0,0.0,0.0,0.0,0.0,0.0,0.0,0.0,0.0,0.0,0.0,0.0,0.0,0.0,0.0,0.0,1.7072,0.0,0.0,0.0,0.0,0.0,0.0,0.0,0.0,0.0,0.0,0.0,1.8617,1.9724,2.0177,2.0298,2.0031,1.909,1.8488,0.0,0.0,0.0,0.0,0.0,0.0,0.0,0.0,0.0,0.0,0.0,0.0,0.0,0.0,1.5889,1.4939,1.4149,1.3604,1.3434,0.0,0.0,0.0,0.0,0.0,0.0,0.0,0.0,0.0,0.0,0.0,0.0,0.0,0.0,3.7062,0.0,3.6968,0.0,0.0,0.0,0.0,0.0,0.0,0.0,0.0,3.4247,3.4629,3.4218,3.5085,3.5489,0.0,3.4383,3.2582,0.0,0.0,0.0,0.0,0.0,0.0,0.0,0.0,2.5818,2.6807,2.6617,2.7229,2.8625,2.8266,2.7852,2.7502,2.6184,2.4858,2.3527,2.314,2.259,0.0,0.0,0.0,0.0,0.0,0.0,0.0,0.0,0.0,0.0,0.0,0.0,0.0,0.0,0.0,0.0,0.0,0.0,0.0,0.0,0.0,0.0,0.0,1.8256,0.0,0.0,0.0,0.0,0.0,0.0,0.0,0.0,0.0,1.9321,1.9847,2.0488,2.1354,2.1577,2.1453,2.091,0.0,0.0,0.0,0.0,0.0,0.0,0.0,1.8267,1.8598,1.81,1.7701,1.7906,1.7872,1.7707,1.747,0.0,0.0,1.636,1.5475,1.4866,1.4808,1.3994,1.3283,1.3252,1.2999,1.2641,0.0,0.0,0.0,0.0,0.0,0.0,0.0,0.0,3.8711,3.947,0.0,3.9216,0.0,0.0,0.0,0.0,0.0,3.6507,0.0,0.0,3.6204,3.6776,3.5669,3.5669,3.5639,3.5669,3.6237,3.5489,3.3452,3.0294,0.0,0.0,0.0,0.0,0.0,0.0,2.7118,2.7771,2.833,2.8944,2.9507,2.9535,2.8944,2.7736,2.6045,2.4857,2.4179,2.4103,2.354,2.2433,2.3403,0.0,0.0,0.0,0.0,0.0,0.0,0.0,0.0,0.0,0.0,0.0,0.0,0.0,0.0,0.0,0.0,0.0,0.0,0.0,0.0,1.9909,0.0,0.0,0.0,0.0,0.0,0.0,0.0,0.0,0.0,0.0,2.1111,2.2135,2.2764,2.2355,0.0,0.0,0.0,0.0,1.9678,2.2066,2.072,2.0061,2.1752,2.1048,2.0082,1.9343,0.0,0.0,1.7962,1.7964,1.8071,1.8047,1.7773,1.7525,1.7711,1.7017,1.6517,1.6698,1.5925,1.5303,1.5093,1.4311,1.361,4.7076,0.0,0.0,0.0,0.0,4.207,4.2748,4.3073,4.3032,4.2939,4.2783,4.1374,0.0,0.0,0.0,0.0,0.0,0.0,3.6985,3.6357,3.7554,3.7913,3.7584,3.8063,3.8302,3.8272,3.7524,3.6626,3.5579,3.3234,3.1737,3.1054,0.0,0.0,0.0,0.0,2.7945,2.892,2.8797,2.9215,3.0208,3.0208,2.9634,2.8454,2.7854,2.6672,2.4829,2.5134,2.4762,2.3597,2.3828,0.0,0.0,0.0,0.0,0.0,0.0,0.0,0.0,0.0,0.0,0.0,0.0,0.0,0.0,0.0,0.0,0.0,0.0,0.0,2.0167,2.014,2.0165,0.0,0.0,0.0,0.0,0.0,0.0,0.0,0.0,0.0,2.2966,2.2756,2.2903,0.0,0.0,2.3802,2.3712,2.2911,2.2555,2.3283,2.2914,0.0,2.2988,2.2188,2.1445,2.1295,2.0576,1.9789,1.899,1.9124,1.9277,1.8965,1.8809,1.8789,1.8754,1.7648,1.6728,1.6568,1.6237,1.5895,1.5737,1.5172,1.4505,5.1732,4.852,4.6192,4.4691,4.3881,4.498,4.5569,4.5668,4.5664,4.5731,4.5767,4.4042,4.2718,4.1773,4.0603,0.0,0.0,0.0,3.8841,3.8601,3.929,3.9439,3.923,3.9619,3.9679,3.9343,3.8601,3.7853,3.7195,3.5759,3.4731,3.3989,0.0,0.0,3.0503,2.9901,2.9738,2.9995,3.0123,3.0452,3.0866,3.0632,3.0161,2.9453,2.8869,2.7902,2.6483,2.6272,2.5829,2.5073,2.4764,2.4735,0.0,0.0,0.0,0.0,0.0,0.0,0.0,0.0,0.0,0.0,0.0,2.134,2.1118,0.0,0.0,0.0,2.131,2.1171,2.0759,2.0627,0.0,0.0,0.0,0.0,0.0,0.0,0.0,2.0916,2.1471,2.2196,2.3175,2.2898,2.306,2.416,2.3888,2.3626,2.3699,0.0,2.3107,2.3629,2.3405,2.3228,2.337,2.2368,2.1439,2.1147,2.0644,2.0094,1.9648,1.9746,1.9824,1.959,1.9394,1.9238,1.9062,1.8013,1.7298,1.7422,1.7111,1.6807,1.6812,1.6104,1.5331,5.5421,5.4357,5.1048,4.873,4.7438,4.8067,4.8001,4.7404,4.7305,4.8001,4.9094,4.7007,4.6322,4.6635,4.3796,0.0,4.0598,4.1153,4.1063,4.0516,4.1115,4.1025,4.0397,4.0397,4.0068,3.9403,3.9403,3.911,3.8452,3.7793,3.7195,3.6567,3.3515,3.1601,3.0984,3.1951,3.1972,3.0951,3.202,3.2258,3.16,3.0913,3.0552,3.0402,2.9295,2.8637,2.8487,2.732,2.6632,2.6572,2.6004,2.5974,2.6512,0.0,0.0,0.0,0.0,0.0,0.0,0.0,0.0,0.0,0.0,0.0,0.0,0.0,0.0,0.0,2.1643,0.0,2.151,2.1316,0.0,0.0,0.0,2.1217,2.1134,2.1538,2.1787,2.1722,0.0,0.0,2.2523,2.292,2.3288,2.3403,2.3093,2.2722,2.2491,2.2194,2.2253,2.3613,2.3011,2.265,2.3216,2.2067,2.0849,2.0175,1.9753,1.9803,1.9875,1.9862,1.9901,1.9805,1.9551,1.9141,1.8676,1.8305,1.8251,1.8749,1.8216,1.7724,1.7777,1.6849,1.5982,5.7342,5.6051,5.4659,5.2904,5.1115,5.1247,5.1545,5.1744,5.0717,5.0453,5.0651,4.9028,4.7473,4.5953,4.3572,4.2283,4.201,4.1565,4.1294,4.1175,4.1294,4.1025,4.0427,4.0397,4.0068,3.9403,3.9403,3.9313,3.914,3.8482,3.8093,3.7883,3.6637,3.5166,3.3617,3.2881,3.2615,3.2853,3.3124,3.2946,3.2258,3.16,3.0793,2.9861,2.9532,2.8903,2.7884,2.7555,2.7136,2.6632,2.6452,2.6422,2.6572,2.6176,0.0,0.0,0.0,0.0,0.0,0.0,0.0,0.0,0.0,2.2624,2.2379,0.0,2.3641,0.0,2.1884,2.1464,2.1305,2.1272,0.0,0.0,2.215,2.2552,2.2901,2.2967,2.3103,2.3351,2.3527,2.3753,2.4123,2.4324,2.4411,2.4434,2.3988,2.3981,2.4623,2.4378,2.4116,2.4377,2.4214,2.4009,2.3499,2.2593,2.1645,2.1202,2.0801,2.0452,2.0247,1.9909,1.9637,1.947,1.9375,1.9121,1.8656,1.8773,1.875,1.8368,1.7953,1.7605,1.736,1.6693,1.616,5.8701,5.7608,5.6879,5.5719,5.4229,5.3599,5.3533,5.3761,5.2705,5.2208,5.2142,5.0717,4.9018,4.7151,4.525,4.4241,4.3802,4.2727,4.2252,4.2252,4.2252,4.1893,4.1265,4.0965,4.0487,3.9858,3.9559,3.9403,3.9373,3.902,3.8691,3.8392,3.8033,3.7015,3.54,3.4651,3.4322,3.4382,3.3514,3.2856,3.2497,3.1839,3.1301,3.0881,3.0071,2.9382,2.8903,2.8064,2.7555,2.747,2.72,2.7171,2.744,2.6632,2.6297,0.0,0.0,0.0,0.0,0.0,0.0,0.0,0.0,0.0,0.0,0.0,2.382,2.3369,2.2804,2.2352,2.2138,2.2088,2.2141,2.2267,2.2646,2.2997,2.3218,2.3556,2.3837,2.3985,2.4205,2.4381,2.4424,2.4456,2.4456,2.4456,2.3954,2.3929,2.4682,2.4632,2.4381,2.4073,2.4048,2.3803,2.3023,2.2506,2.196,2.1364,2.0995,2.079,2.0698,2.0449,2.0085,1.9697,1.952,1.9178,1.8291,1.8262,1.8203,1.7623,1.7342,1.7238,1.7232,1.6568,1.6052,5.9628,5.8966,5.8237,5.7508,5.6746,5.5525,5.4891,5.4725,5.3897,5.35,5.3334,5.191,5.0568,4.9209,4.7627,4.6529,4.5773,4.4155,4.3409,4.3409,4.3319,4.3,4.2381,4.1683,4.1025,4.0397,3.9738,3.9403,3.9403,3.9403,3.911,3.8542,3.8512,3.7973,3.6896,3.6776,3.6327,3.5489,3.3784,3.2886,3.2886,3.2138,3.1989,3.2407,3.0672,2.9864,3.0193,2.8633,2.7974,2.8427,2.7914,2.7884,2.8397,2.6811,2.6123,0.0,2.5644,0.0,0.0,0.0,0.0,0.0,0.0,0.0,0.0,2.334,2.3537,2.4176,2.4042,2.3809,2.3444,2.3286,2.3071,2.2694,2.289,2.3083,2.3097,2.3734,2.4185,2.4111,2.4582,2.47,2.433,2.4255,2.433,2.4305,2.3923,2.3747,2.3929,2.3954,2.3728,2.3145,2.3095,2.3008,2.25,2.2297,2.2049,2.1313,2.0991,2.0955,2.1049,2.0841,2.0489,1.9855,1.9497,1.8913,1.7605,1.7363,1.7148,1.6648,1.659,1.6746,1.7012,1.6495,1.5941,5.9926,5.9728,5.8999,5.827,5.7614,5.7471,5.7,5.6183,5.4891,5.3997,5.3301,5.191,5.1111,5.0702,4.8519,4.7454,4.7195,4.5099,4.4067,4.4067,4.3559,4.297,4.2381,4.1752,4.1025,4.0397,3.9702,3.9403,3.9403,3.9403,3.9313,3.923,3.923,3.9074,3.8841,0.0,0.0,0.0,3.513,3.4951,3.4891,3.3754,3.2916,3.2497,3.1091,0.0,2.8996,2.8607,2.8218,2.7794,2.7675,0.0,0.0,0.0,0.0,0.0,0.0,0.0,0.0,0.0,0.0,0.0,2.6768,2.6396,2.5236,2.5099,2.5367,2.6012,2.5243,2.4635,2.4569,2.4166,2.3879,2.3798,2.3747,2.3861,2.4296,2.428,2.4343,2.4766,2.5174,2.541,2.5285,2.5745,2.5795,2.5285,2.5184,2.4808,2.4079,2.3627,2.3246,2.312,2.3095,2.3065,2.2914,2.2884,2.2763,2.247,2.174,2.1209,2.0973,2.019,1.9513,1.9073,1.8489,1.7989,1.7236,1.6957,1.6652,1.582,1.5937,1.6242,1.632,1.6191,1.6074,6.0937,0.0,5.989,5.9039,0.0,5.8202,5.7802,5.692,5.5821,5.4722,5.3656,5.2743,5.2213,5.1848,4.9811,4.8866,4.876,4.6622,4.5619,4.5588,4.4901,4.4288,4.3716,4.2856,4.2138,4.1535,4.0763,4.0397,4.0367,4.0068,3.9918,3.9888,3.9589,3.9224,3.8901,3.8242,3.7285,3.5998,3.534,3.4981,3.4951,3.3694,3.3006,3.2946,3.139,0.0,0.0,0.0,0.0,0.0,0.0,0.0,0.0,2.8753,0.0,2.8098,2.8068,2.8068,2.8098,2.8393,2.8453,2.8124,2.8423,2.7884,2.6213,2.6093,2.6093,2.6145,2.5608,2.53,2.5337,2.5071,2.4916,2.4938,2.4862,2.4935,2.5091,2.4978,2.4924,2.511,2.5228,2.5307,2.5307,2.5217,2.5259,2.5184,2.4707,2.433,2.4054,2.3753,2.3477,2.317,2.3095,2.3095,2.3095,2.3095,2.3065,2.295,2.254,2.2163,2.1982,2.1218,2.0452,1.9923,1.9261,1.8561,1.7704,1.7172,1.6648,1.6016,1.5792,1.5772,1.5742,1.5742,1.5742,6.2066,6.1599,6.0865,5.9877,5.8796,5.8701,5.8169,5.7335,0.0,0.0,0.0,5.3811,5.3274,5.2649,5.1128,5.0436,5.0172,4.813,4.7203,4.7207,4.6375,4.5706,4.5232,4.4246,4.3451,4.2879,4.2025,4.1505,4.1392,4.0726,4.0397,4.0337,3.9738,3.914,3.8571,3.7913,3.7255,3.6626,3.5582,3.4951,3.4833,3.3664,3.3305,3.3844,3.1898,3.1062,3.1451,3.0372,2.9924,3.0313,3.0342,3.0342,3.0342,2.9891,2.9355,2.8846,2.8786,2.8786,2.8786,2.9292,2.9624,2.9744,2.9681,2.8873,2.7081,2.6986,2.6817,2.6422,2.6167,2.6162,2.6432,2.6239,2.6134,2.6118,2.6054,2.5885,2.5657,2.5547,2.5452,2.5358,2.5294,2.5217,2.5178,2.4886,2.4563,2.4782,2.4324,2.3622,2.4004,2.3929,2.3602,2.3195,2.3095,2.3095,2.3095,2.3095,2.3095,2.3095,2.299,2.297,2.2865,2.243,2.179,2.1032,2.0346,1.9414,1.8484,1.7578,1.6892,1.6459,1.5882,1.5468,1.5439,1.543,1.543,6.2631,6.2539,6.1803,6.1033,6.0236,5.9789,5.8904,5.7738,5.6482,5.5825,5.5555,5.47,5.3964,5.3232,5.2328,5.1674,5.1067,4.8866,4.7935,4.8024,4.6745,4.6103,4.6,4.5119,4.4342,4.3617,4.275,4.2034,4.137,4.0726,4.0397,4.0337,3.9738,3.9379,3.923,3.8601,3.7913,3.7285,3.7105,3.6746,3.6207,3.5459,3.513,3.513,3.3275,3.1959,3.1511,3.0791,3.0163,2.9771,2.9741,2.9741,2.9741,2.9684,2.9535,2.9472,2.9472,2.9472,2.9472,2.9562,2.9804,3.0283,2.9894,2.9205,2.8427,2.8308,2.8521,2.8919,2.7969,2.782,2.8815,2.8059,2.7423,2.7424,2.698,2.6462,2.5939,2.5756,2.5662,2.5625,2.5852,2.5914,2.5782,2.597,2.5845,2.5569,2.5084,2.5059,2.455,2.3847,2.3271,2.312,2.3095,2.3095,2.3095,2.3095,2.3095,2.3095,2.2744,2.2548,2.2573,2.2092,2.1628,2.1304,2.0459,1.9657,1.9212,1.7867,1.7133,1.6814,1.6255,1.5778,1.572,1.5575,1.5439,6.3466,6.3448,6.234,6.1514,6.0925,5.9823,5.9021,5.8386,5.7308,5.666,5.6295,5.5592,5.4752,5.3864,5.3367,5.2825,5.2134,5.0832,5.0267,5.0272,4.9183,4.8484,4.8174,4.7464,4.6617,4.5692,4.4787,4.4031,4.3363,4.2341,4.1633,4.124,4.0275,3.9661,3.9559,3.9288,3.8742,3.7943,3.7255,3.6596,3.5968,3.528,3.4951,3.4951,3.3694,3.2916,3.2617,3.1958,3.148,3.118,3.0851,3.0642,3.0642,3.0971,3.118,3.118,3.118,3.118,3.118,3.0821,3.0612,3.0522,3.0582,3.0342,2.9684,2.9325,2.9265,2.9562,2.9022,2.8933,2.9532,2.908,2.8699,2.8684,2.842,2.7994,2.7404,2.7282,2.6992,2.6364,2.6216,2.6167,2.599,2.5818,2.5736,2.5536,2.5385,2.5109,2.4883,2.4374,2.3898,2.3647,2.3602,2.3452,2.3195,2.3095,2.3095,2.3095,2.2895,2.2744,2.2694,2.2293,2.1967,2.1809,2.1103,2.0437,2.0058,1.9053,1.8243,1.7705,1.7191,1.6708,1.6389,1.5931,1.5575,6.4203,6.4233,6.275,6.1784,6.1197,5.9844,5.9201,5.8927,5.7965,5.7395,5.6995,5.6452,5.5643,5.4755,5.4381,5.3876,5.3174,5.2438,5.2135,5.2034,5.1228,5.0593,5.0155,4.9674,4.8825,4.7645,4.6819,4.6102,4.5264,4.3908,4.2809,4.196,4.08,4.0152,3.9907,3.9757,3.9264,3.8397,3.7404,3.6596,3.5938,3.528,3.4953,3.4891,3.4174,3.3755,3.3694,3.3066,3.2736,3.2706,3.2198,3.1929,3.1959,3.2437,3.2736,3.2736,3.2736,3.2647,3.2497,3.2019,3.1511,3.1001,3.1301,3.1421,3.118,3.0612,3.0163,3.0013,2.9744,2.9681,2.9983,2.9894,2.9794,2.9726,2.9725,2.9392,2.886,2.8802,2.8524,2.7498,2.7153,2.6979,2.657,2.5993,2.5804,2.6019,2.5641,2.5438,2.5413,2.5315,2.4983,2.4506,2.4255,2.4023,2.3572,2.3521,2.3547,2.3471,2.3521,2.3471,2.3321,2.2949,2.2648,2.2493,2.1959,2.1322,2.0772,2.0006,1.9278,1.8639,1.7961,1.7468,1.7045,1.6446,1.5865,6.4573,6.4336,6.2984,6.1975,6.1264,6.0385,5.9641,5.8961,5.7999,5.7665,5.771,5.7376,5.6754,5.5984,5.5317,5.4684,5.4053,5.2741,5.2168,5.2233,5.149,5.112,5.109,5.0892,5.0026,4.8756,4.8348,4.7502,4.6166,4.4688,4.3339,4.2095,4.1255,4.0891,4.0619,4.007,3.9329,3.8457,3.8272,3.7883,3.7255,3.6626,3.6297,3.6297,3.5102,3.4414,3.4444,3.3754,3.3395,3.3395,3.3335,3.3275,3.3305,3.3365,3.3395,3.3395,3.3425,3.3155,3.2587,3.2437,3.2377,3.2317,3.1809,3.2019,3.2976,3.2587,3.1959,3.1331,3.0283,3.0283,3.1122,3.0851,3.0565,3.0513,3.054,3.0151,2.9597,2.9414,2.9358,2.9296,2.9004,2.8927,2.8104,2.7727,2.7525,2.7288,2.7077,2.6966,2.69,2.6485,2.6021,2.5485,2.5084,2.4725,2.455,2.4625,2.4474,2.4525,2.46,2.4349,2.4029,2.3828,2.3703,2.3045,2.2569,2.2042,2.1378,2.0548,1.97,1.9309,1.8635,1.787,1.7573,1.7101,1.6531,6.4613,6.4444,6.299,6.2212,6.1839,6.1129,6.0385,5.9569,5.8751,5.8248,5.7915,5.7735,5.7257,5.6547,5.621,5.554,5.4463,5.3855,5.3382,5.301,5.2572,5.237,5.237,5.2203,5.1597,5.066,4.9787,4.8818,4.7693,4.6003,4.4811,4.4215,4.3582,4.3134,4.2899,4.226,4.148,4.0628,4.0168,3.9617,3.8887,3.779,3.7214,3.7124,3.6282,3.5804,3.5681,3.4685,3.4083,3.4084,3.3724,3.3514,3.3514,3.3844,3.4114,3.4114,3.4114,3.3784,3.3125,3.2706,3.2706,3.3066,3.2497,3.2527,3.3365,3.3245,3.2976,3.2677,3.2198,3.2168,3.2557,3.2437,3.2109,3.1812,3.2018,3.1717,3.0235,3.0797,3.0884,2.9775,2.978,2.9718,2.903,2.8712,2.8492,2.826,2.7966,2.767,2.7504,2.6926,2.6467,2.6197,2.5946,2.5485,2.5034,2.48,2.4858,2.4833,2.48,2.4682,2.4556,2.4155,2.3879,2.3678,2.3175,2.2623,2.2071,2.1731,2.1103,2.045,1.9658,1.8995,1.8912,1.8134,1.7423,6.5375,6.5294,6.3733,6.2901,6.2591,6.1443,6.0655,6.0013,5.9133,5.8389,5.7915,5.7881,5.7611,5.7103,5.6697,5.5886,5.4938,5.4499,5.4025,5.3551,5.3348,5.3247,5.328,5.311,5.274,5.2068,5.106,5.0123,4.9226,4.7603,4.6579,4.6314,4.5502,4.4949,4.4751,4.405,4.3163,4.2122,4.1529,4.099,4.0228,3.9243,3.8508,3.8047,3.7416,3.7053,3.7023,3.5984,3.5377,3.5377,3.4683,3.4322,3.4322,3.4622,3.4803,3.4773,3.4771,3.4503,3.3845,3.3305,3.3245,3.3664,3.3155,3.3155,3.3814,3.3873,3.3873,3.4023,3.4053,3.3903,3.3514,3.3514,3.3275,3.2886,3.3245,3.2823,3.166,3.2258,3.2196,3.0875,3.1118,3.0879,3.023,2.9722,2.9369,2.9374,2.8821,2.8293,2.8097,2.7604,2.7162,2.7053,2.6926,2.635,2.5501,2.536,2.5259,2.5259,2.536,2.531,2.5109,2.4657,2.4305,2.4249,2.3697,2.317,2.2619,2.2418,2.2117,2.1534,2.0835,2.0207,2.0207,1.9321,1.8825,6.7229,6.7508,6.5489,6.4083,6.3317,6.1238,6.022,6.0088,5.866,5.7983,5.7881,5.7881,5.7848,5.7712,5.6494,5.575,5.548,5.4296,5.3653,5.3518,5.3484,5.3484,5.3484,5.345,5.3044,5.2436,5.2133,5.1329,5.0091,4.9226,4.8492,4.7777,4.6544,4.5728,4.5563,4.4979,4.3706,4.2588,4.2319,4.1775,4.1138,4.1082,4.0379,3.9177,3.8314,3.801,3.7886,3.7688,3.7492,3.7523,3.6697,3.633,3.6267,3.5789,3.5489,3.5459,3.5459,3.516,3.4593,3.4322,3.4354,3.4384,3.3874,3.3993,3.504,3.4741,3.4681,3.531,3.525,3.4801,3.3844,3.3754,3.3634,3.3484,3.3514,3.3484,3.3304,3.3274,3.3455,3.3152,3.3032,3.2666,3.2066,3.1015,3.0664,3.0714,3.0332,2.9862,2.9635,2.9136,2.8687,2.8368,2.7914,2.7237,2.6637,2.6147,2.6223,2.6197,2.6021,2.6147,2.5812,2.5485,2.5184,2.4825,2.433,2.3778,2.317,2.2669,2.2246,2.1841,2.1616,2.13,2.1191,2.086,2.0358,6.7263,6.6497,6.5198,6.4462,6.4077,6.2837,6.175,6.0718,5.9763,5.8761,5.7983,5.7881,5.7881,5.7848,5.6867,5.6156,5.5647,5.5141,5.4431,5.3619,5.3518,5.3518,5.3518,5.3518,5.3382,5.3044,5.2536,5.1796,5.0858,5.0086,4.9554,4.9225,4.8358,4.7826,4.7599,4.7045,4.616,4.5212,4.4716,4.412,4.3368,4.2616,4.1906,4.1338,4.0105,3.9276,3.8849,3.8253,3.791,3.791,3.7466,3.7274,3.7244,3.6933,3.6537,3.6178,3.6148,3.5848,3.519,3.4711,3.4713,3.504,3.4533,3.4502,3.525,3.528,3.525,3.5429,3.5489,3.519,3.4981,3.4771,3.4592,3.4262,3.4502,3.4412,3.3814,3.3844,3.3963,3.3604,3.3514,3.3362,3.3115,3.2608,3.2399,3.2392,3.1843,3.1386,3.1133,3.062,3.0178,2.9986,2.9537,2.9029,2.8831,2.7275,2.6474,2.6474,2.6424,2.6373,2.6172,2.5762,2.5435,2.536,2.4883,2.4305,2.3703,2.317,2.2698,2.2498,2.2272,2.202,2.202,2.1609,2.1329,6.7937,6.6492,6.568,6.5186,6.4838,6.3868,6.2751,6.1502,6.0515,5.9402,5.8345,5.8027,5.7881,5.7814,5.7374,5.6731,5.6089,5.5818,5.5175,5.4296,5.4228,5.4228,5.4228,5.4228,5.4228,5.4126,5.3416,5.2672,5.1928,5.1183,5.071,5.0407,4.9729,4.9221,4.8959,4.8513,4.7826,4.6973,4.6421,4.5799,4.508,4.4197,4.3577,4.3221,4.2304,4.1034,3.9757,3.9269,3.8956,3.8754,3.8742,3.853,3.8077,3.7677,3.7293,3.69,3.6776,3.6596,3.6178,3.5669,3.5549,3.5759,3.5429,3.531,3.5519,3.5489,3.5489,3.5489,3.5489,3.5489,3.5489,3.5459,3.531,3.4951,3.522,3.516,3.4322,3.4562,3.4562,3.4292,3.3993,3.3933,3.4023,3.3724,3.3572,3.3629,3.3073,3.2584,3.2362,3.2044,3.1606,3.131,3.0693,3.0167,2.9683,2.8427,2.743,2.7297,2.6994,2.6858,2.6629,2.6181,2.5879,2.577,2.5385,2.4782,2.4255,2.3728,2.3396,2.317,2.2869,2.2543,2.2443,2.2322,2.2135,6.9389,6.7909,6.7228,6.6371,6.5561,6.427,6.3125,6.2184,6.0842,5.9806,5.8909,5.8315,5.8101,5.792,5.7925,5.7514,5.6799,5.6224,5.5784,5.5513,5.5512,5.5547,5.5513,5.548,5.5445,5.5411,5.4871,5.416,5.3382,5.2503,5.1792,5.1183,5.0473,4.9763,4.9052,4.8993,4.8306,4.736,4.7036,4.6616,4.5927,4.573,4.534,4.4788,4.443,4.3094,4.0742,4.0995,4.087,4.0396,4.07,4.023,3.8956,3.8366,3.7737,3.7639,3.7507,3.7473,3.7383,3.7297,3.6937,3.6596,3.648,3.6211,3.5848,3.5639,3.5642,3.5609,3.5549,3.5489,3.5489,3.5489,3.5489,3.5489,3.5489,3.5429,3.54,3.5429,3.5459,3.528,3.4831,3.4833,3.5011,3.4472,3.4023,3.4261,3.3989,3.3597,3.35,3.3374,3.2935,3.2336,3.1905,3.1562,3.0529,2.947,2.8867,2.8287,2.7835,2.7537,2.7229,2.6855,2.6628,2.6426,2.5778,2.5167,2.4707,2.4205,2.3747,2.3496,2.3246,2.3045,2.2844,2.2799,2.3025,6.9777,6.8759,6.7966,6.7173,6.6361,6.5411,6.4305,6.3034,6.2003,6.0899,5.9751,5.9447,5.9079,5.8633,5.8564,5.8214,5.7579,5.7273,5.6697,5.5886,5.575,5.575,5.575,5.575,5.5681,5.5581,5.4938,5.4499,5.4025,5.2942,5.2164,5.186,5.1217,5.0507,4.9796,4.9729,4.9232,4.8467,4.8334,4.8209,4.7922,4.7041,4.6452,4.6091,4.4821,4.3525,4.2749,4.2366,4.2013,4.1819,4.1885,4.1406,4.0534,4.0535,4.0185,3.9351,3.9553,3.9239,3.8411,3.8183,3.7916,3.7335,3.7271,3.7177,3.681,3.6523,3.6345,3.6184,3.5789,3.5489,3.5489,3.5489,3.5489,3.5489,3.5489,3.5489,3.5489,3.5489,3.5489,3.5489,3.531,3.531,3.54,3.4921,3.4891,3.504,3.4921,3.4769,3.4767,3.4646,3.4765,3.4371,3.3792,3.2956,3.2178,3.1377,3.0745,2.9831,2.9096,2.8325,2.7934,2.763,2.7397,2.6899,2.6248,2.5635,2.5174,2.4732,2.433,2.3979,2.3778,2.3552,2.3246,2.3321,2.3597,6.9932,6.9134,6.8343,6.7547,6.6793,6.6264,6.5423,6.4219,6.3456,6.2284,6.1015,6.0551,6.0194,5.9761,5.9453,5.9081,5.8692,5.8452,5.7661,5.6665,5.6528,5.6528,5.6528,5.6528,5.6325,5.6089,5.5649,5.5108,5.4566,5.3653,5.2875,5.23,5.1826,5.1251,5.0541,5.0202,4.983,4.9424,4.912,4.9018,4.8855,4.814,4.755,4.712,4.5945,4.5164,4.4834,4.4111,4.3309,4.2679,4.2426,4.2173,4.1885,4.1949,4.1693,4.1085,4.0959,4.0801,3.9908,3.9777,3.9361,3.8778,3.8716,3.8629,3.8251,3.7921,3.7735,3.7248,3.6698,3.6112,3.5914,3.5609,3.5519,3.5489,3.5489,3.5489,3.5489,3.5489,3.5489,3.5489,3.5459,3.5489,3.5489,3.5489,3.5489,3.5489,3.5489,3.5489,3.5489,3.5459,3.54,3.522,3.4496,3.3988,3.3901,3.33,3.2642,3.156,3.0477,2.954,2.8776,2.8454,2.8136,2.7577,2.6919,2.6238,2.5699,2.5325,2.4958,2.4632,2.44,2.418,2.4023,2.4073,2.428,7.0077,6.9207,6.8416,6.7655,6.6967,6.6763,6.6257,6.5511,6.4889,6.3719,6.2419,6.1628,6.128,6.1078,6.0378,5.9991,5.9909,5.9288,5.8668,5.8145,5.8003,5.7933,5.7681,5.7755,5.7484,5.6934,5.6731,5.6021,5.5006,5.4532,5.389,5.2706,5.2469,5.1995,5.1319,5.0574,5.0338,5.0101,4.9492,4.9154,4.912,4.8954,4.8619,4.801,4.7713,4.7312,4.6675,4.5904,4.4656,4.2992,4.2769,4.2923,4.3078,4.2707,4.2425,4.2077,4.2109,4.2013,4.1821,4.1565,4.1246,4.0545,4.0578,4.0515,3.9819,3.966,3.9377,3.8738,3.8054,3.746,3.6882,3.6449,3.6086,3.5711,3.5679,3.5522,3.5489,3.5489,3.5489,3.5489,3.5489,3.5489,3.5489,3.5489,3.5489,3.5489,3.5489,3.5489,3.5489,3.5429,3.516,3.4951,3.4833,3.4681,3.4532,3.4053,3.342,3.2967,3.1915,3.096,2.9854,2.9397,2.878,2.8174,2.7756,2.7006,2.6587,2.6413,2.5935,2.5518,2.5275,2.4987,2.484,2.4796,2.4897,7.1313,7.0009,6.9243,6.8416,6.7655,6.7076,6.6351,6.5634,6.5445,6.4786,6.3784,6.3012,6.2451,6.191,6.1138,6.0516,6.0256,5.9916,5.9676,5.948,5.9447,5.8806,5.8209,5.8423,5.8319,5.7654,5.7177,5.6596,5.6156,5.521,5.4431,5.3991,5.3416,5.2807,5.2063,5.1792,5.142,5.0913,5.0202,4.9796,4.9729,4.9255,4.8917,4.8714,4.8176,4.7838,4.7564,4.6887,4.5785,4.4255,4.4064,4.3827,4.3558,4.3739,4.3617,4.3227,4.3439,4.341,4.2953,4.2738,4.2328,4.1726,4.182,4.1757,4.1374,4.1051,4.0702,4.0198,3.9691,3.9216,3.8937,3.8686,3.831,3.7623,3.6593,3.5709,3.5587,3.5489,3.5489,3.5489,3.5554,3.5587,3.5554,3.5554,3.5522,3.5489,3.5489,3.5489,3.5489,3.5489,3.531,3.537,3.528,3.519,3.4981,3.4562,3.4233,3.4052,3.3358,3.2552,3.1444,3.0553,2.9704,2.8848,2.8721,2.8179,2.8174,2.8147,2.7424,2.6548,2.6393,2.6239,2.5556,2.5325,2.5514,7.1965,7.077,7.004,6.9213,6.8452,6.7655,6.704,6.6605,6.6207,6.5663,6.4903,6.4432,6.4007,6.3579,6.2795,6.229,6.1915,6.1569,6.127,6.0976,6.0921,6.0156,5.9217,5.9247,5.9146,5.8772,5.8013,5.7532,5.7087,5.6027,5.5412,5.4938,5.4329,5.3721,5.3315,5.2536,5.2131,5.1623,5.098,5.0574,5.0507,4.9864,4.9526,4.9323,4.8748,4.8244,4.7902,4.7496,4.6583,4.5399,4.5032,4.4721,4.4093,4.4321,4.4384,4.4001,4.4265,4.4179,4.3827,4.3588,4.338,4.3015,4.3047,4.3047,4.2888,4.2652,4.2395,4.1779,4.1193,4.0718,4.0347,4.0063,3.9649,3.9053,3.8029,3.7061,3.6413,3.6352,3.629,3.629,3.629,3.6133,3.5941,3.5878,3.5718,3.5587,3.5489,3.5489,3.5489,3.5489,3.5489,3.5489,3.5489,3.537,3.534,3.4981,3.4801,3.4711,3.4322,3.3602,3.2644,3.1569,3.0735,2.9953,2.9744,2.9473,2.9345,2.9097,2.8525,2.7904,2.7749,2.7509,2.6976,2.6343,2.6472,7.2364,7.1567,7.0734,6.9973,6.9249,6.8488,6.809,6.7945,6.7257,6.6569,6.5953,6.57,6.5345,6.5555,6.4354,6.4331,6.4353,6.353,6.308,6.26,6.2261,6.1493,6.0564,6.0164,5.9966,5.9741,5.9281,5.8698,5.8115,5.7398,5.664,5.5994,5.5247,5.4703,5.4228,5.3247,5.2604,5.2334,5.1691,5.1352,5.1183,5.0608,5.0236,5.0101,4.9492,4.8781,4.8277,4.7936,4.7365,4.6007,4.5872,4.5505,4.4897,4.4823,4.4722,4.466,4.4598,4.4468,4.4355,4.4236,4.4236,4.4068,4.415,4.4298,4.4064,4.3963,4.3723,4.3065,4.2601,4.2127,4.1573,4.0873,4.0577,4.0448,4.0146,3.9292,3.8282,3.766,3.7478,3.7415,3.7354,3.7087,3.6753,3.6446,3.6352,3.629,3.607,3.6006,3.5941,3.5814,3.5653,3.5489,3.5489,3.5489,3.5459,3.5429,3.537,3.528,3.4921,3.4291,3.3364,3.2405,3.1721,3.1157,3.0712,3.0264,2.9842,2.9566,2.932,2.9136,2.8907,2.8896,2.8797,2.8039,2.7857,7.3197,7.2327,7.0951,7.033,7.004,6.9285,6.8923,6.885,6.809,6.7619,6.7257,6.6207,6.5736,6.5627,6.5011,6.4419,6.4599,6.4383,6.4072,6.3935,6.3243,6.2903,6.222,6.1474,6.0569,6.0227,5.9902,5.9669,5.9362,5.8746,5.8,5.7294,5.6507,5.5688,5.4703,5.4329,5.3788,5.3247,5.2503,5.2131,5.1961,5.1352,5.0947,5.0845,5.0236,4.9526,4.8951,4.8781,4.8342,4.7564,4.6921,4.6583,4.6143,4.5703,4.55,4.5331,4.4891,4.4621,4.4559,4.4564,4.4559,4.4502,4.4536,4.453,4.4497,4.4497,4.4384,4.4088,4.4011,4.37,4.334,4.2894,4.2446,4.2166,4.1778,4.1314,4.071,3.936,3.8316,3.7785,3.7596,3.7356,3.7237,3.7207,3.7117,3.6996,3.6845,3.6692,3.6477,3.6227,3.6005,3.5782,3.5716,3.5716,3.5489,3.5489,3.5489,3.5489,3.525,3.5011,3.4083,3.3275,3.2555,3.202,3.1604,3.1161,3.0681,3.0686,3.0655,3.0355,3.0052,2.9955,2.9794,2.9362,2.8998,7.3667,7.3124,7.1567,7.0915,7.077,7.0082,6.9787,6.9605,6.8887,6.8561,6.838,6.7583,6.7076,6.6714,6.6279,6.5953,6.5591,6.5518,6.5301,6.4983,6.4468,6.4142,6.3716,6.3026,6.2253,6.1568,6.1158,6.1065,6.083,6.0231,5.9369,5.8321,5.7597,5.6713,5.5686,5.5311,5.4702,5.4093,5.3619,5.3247,5.2807,5.2131,5.1488,5.1219,5.0811,5.0405,5.0101,5.0067,4.9661,4.9052,4.8545,4.78,4.6921,4.6447,4.6244,4.6109,4.5534,4.5162,4.5128,4.5094,4.4959,4.4682,4.4891,4.4852,4.4716,4.4581,4.4553,4.4468,4.4497,4.4525,4.4435,4.417,4.3839,4.3715,4.3328,4.2931,4.2356,4.1073,3.9968,3.9512,3.9369,3.8922,3.8621,3.8348,3.7714,3.7537,3.7328,3.7178,3.7087,3.6814,3.6477,3.6258,3.6068,3.5878,3.5587,3.5489,3.5489,3.5489,3.5429,3.531,3.4891,3.4143,3.3394,3.2916,3.2408,3.2109,3.1753,3.1812,3.1782,3.1574,3.1303,3.1033,3.0735,3.0375,3.0048,7.4102,7.3957,7.2364,7.1748,7.1712,7.0951,7.0661,7.0625,6.9787,6.9388,6.9352,6.9279,6.8525,6.8235,6.809,6.7692,6.7076,6.6677,6.6243,6.5772,6.5446,6.5048,6.4613,6.4194,6.392,6.347,6.2867,6.2588,6.2372,6.1934,6.1062,5.9654,5.8897,5.8144,5.7261,5.6541,5.5996,5.5379,5.5208,5.497,5.4324,5.3442,5.2597,5.1589,5.1454,5.1251,5.1048,5.098,5.0845,5.0304,5.027,4.9187,4.7898,4.7022,4.6955,4.6955,4.6278,4.5906,4.5872,4.5838,4.5635,4.4959,4.5466,4.5568,4.519,4.5122,4.5128,4.5094,4.5156,4.5156,4.4953,4.5026,4.4993,4.4897,4.471,4.4249,4.3614,4.2824,4.2222,4.1543,4.089,4.0342,3.9977,3.9645,3.8796,3.8101,3.7956,3.7746,3.7685,3.7601,3.7365,3.7032,3.6909,3.6662,3.6382,3.5679,3.5647,3.5868,3.5806,3.5614,3.5522,3.4921,3.4203,3.3664,3.3215,3.2856,3.2617,3.2587,3.2587,3.2617,3.2348,3.187,3.1573,3.1337,3.0982,7.4935,7.4757,7.3197,7.2871,7.3233,7.1929,7.1712,7.2001,7.077,7.0191,7.0149,6.9502,6.9243,6.9026,6.9026,6.8525,6.7728,6.7184,6.675,6.6388,6.5989,6.5518,6.5374,6.4939,6.4794,6.4939,6.4441,6.4022,6.3978,6.382,6.2826,6.1849,6.1304,6.036,5.8908,5.825,5.7741,5.7016,5.6976,5.6802,5.6391,5.5484,5.4209,5.2764,5.2629,5.2192,5.1553,5.1351,5.115,5.1048,5.1014,5.0473,4.9458,4.8409,4.7936,4.7597,4.7022,4.6616,4.6616,4.6616,4.6583,4.6481,4.6549,4.6549,4.638,4.6312,4.6143,4.621,4.6244,4.6346,4.6413,4.621,4.6346,4.6244,4.5809,4.5375,4.5105,4.4468,4.3507,4.2629,4.211,4.1686,4.1266,4.0895,4.0309,3.9823,3.9673,3.9247,3.8849,3.8775,3.8643,3.8225,3.7832,3.7581,3.7333,3.6411,3.5961,3.6405,3.6403,3.6077,3.5892,3.5552,3.504,3.4592,3.3993,3.3455,3.3335,3.3335,3.3335,3.3335,3.2976,3.2557,3.2229,3.1931,3.1456,7.5083,7.4974,7.3812,7.3526,7.374,7.3124,7.2726,7.2581,7.1929,7.135,7.0951,7.0553,7.0154,6.9901,6.9823,6.9176,6.8126,6.7655,6.7184,6.6786,6.6424,6.6207,6.6207,6.5772,6.5881,6.6025,6.5808,6.5337,6.5048,6.4983,6.4223,6.2993,6.2444,6.1427,6.0262,5.9583,5.9081,5.8514,5.8339,5.8128,5.7745,5.6951,5.598,5.541,5.494,5.4537,5.3667,5.3464,5.2895,5.2059,5.1792,5.1386,5.0742,5.0065,4.9255,4.8575,4.7834,4.7394,4.7394,4.7361,4.7225,4.6887,4.7124,4.7124,4.6887,4.6718,4.6853,4.6819,4.6786,4.6786,4.6718,4.6853,4.6786,4.6752,4.6447,4.6312,4.6109,4.5568,4.4705,4.3715,4.321,4.2812,4.2494,4.211,4.1802,4.1546,4.1358,4.0806,4.0106,4.0081,4.0022,3.9521,3.9102,3.87,3.8448,3.7778,3.7122,3.7374,3.7247,3.6924,3.6632,3.6476,3.6099,3.5699,3.5011,3.4322,3.3993,3.3993,3.3993,3.3933,3.3514,3.3125,3.2796,3.2407,3.1959,7.5334,7.5297,7.4468,7.4247,7.4319,7.403,7.3523,7.3016,7.2726,7.2183,7.1567,7.1422,7.1096,7.0698,7.0299,6.9684,6.8452,6.838,6.7909,6.7547,6.7366,6.7257,6.7076,6.704,6.6931,6.6605,6.6641,6.646,6.5953,6.5844,6.5075,6.419,6.3155,6.2551,6.1934,6.1503,6.0406,5.9946,5.9663,5.9239,5.8381,5.8139,5.7942,5.771,5.771,5.6982,5.5952,5.5816,5.494,5.3864,5.3227,5.2821,5.2038,5.1802,5.1125,4.9811,4.8839,4.8443,4.8311,4.8139,4.7936,4.7564,4.7868,4.7733,4.753,4.7462,4.7361,4.7225,4.7293,4.7361,4.7462,4.7327,4.7327,4.7293,4.7225,4.6989,4.6819,4.6447,4.6007,4.5201,4.4485,4.3922,4.3569,4.3305,4.2968,4.2448,4.2225,4.1869,4.1321,4.1572,4.1456,4.0896,4.0415,3.9985,3.9644,3.9396,3.8965,3.8995,3.8654,3.8179,3.7824,3.7562,3.7149,3.674,3.6118,3.5489,3.51,3.4713,3.4681,3.4532,3.4053,3.3724,3.3514,3.3066,3.2527,7.6167,7.6058,7.5264,7.537,7.5659,7.4537,7.3921,7.3667,7.3052,7.2255,7.1603,7.1494,7.1458,7.1205,7.0661,7.033,6.9865,6.9321,6.8887,6.8597,6.8627,6.8343,6.7945,6.7873,6.7438,6.7148,6.6967,6.6786,6.6569,6.6533,6.6214,6.5344,6.4989,6.4737,6.3811,6.3363,6.3473,6.2759,6.255,6.1566,5.998,5.9643,5.8988,5.827,5.7973,5.7842,5.7579,5.7412,5.6799,5.6043,5.5903,5.5234,5.418,5.383,5.3088,5.1912,5.0707,4.983,4.9726,4.9323,4.8917,4.868,4.8815,4.8815,4.8646,4.8612,4.8646,4.8748,4.8748,4.8748,4.8748,4.8748,4.8748,4.8511,4.8274,4.8003,4.7733,4.7158,4.6752,4.6413,4.5635,4.506,4.4626,4.439,4.4085,4.3557,4.3063,4.2739,4.2555,4.2747,4.2802,4.2274,4.1851,4.139,4.1271,4.0964,4.0839,4.0739,4.0192,3.9598,3.9311,3.8987,3.8149,3.7673,3.7174,3.6748,3.6304,3.5938,3.5559,3.504,3.4502,3.4382,3.4384,3.3754,3.3036,7.6541,7.6239,7.5913,7.5696,7.5587,7.5334,7.4718,7.3957,7.3559,7.2943,7.2183,7.1675,7.1494,7.1422,7.1132,7.077,7.0372,7.004,6.9605,6.9352,6.9243,6.9062,6.8742,6.8633,6.8235,6.7764,6.78,6.7547,6.7221,6.6822,6.6569,6.6279,6.5844,6.5417,6.5048,6.4613,6.4251,6.3752,6.3354,6.2474,6.1448,6.104,6.0783,6.0132,6.0067,5.9643,5.9153,5.8923,5.8325,5.7515,5.7188,5.6696,5.5818,5.5437,5.5009,5.4126,5.3063,5.1963,5.0903,5.0469,5.0127,4.9726,4.9625,4.9593,4.9593,4.9658,4.9862,5.0236,5.0236,5.0202,5.0168,5.0238,5.027,5.0033,4.9357,4.9154,4.8748,4.7902,4.7394,4.7124,4.6819,4.621,4.5568,4.506,4.4722,4.4288,4.3956,4.3726,4.3636,4.3721,4.3709,4.3566,4.3198,4.2891,4.2895,4.2808,4.2686,4.2532,4.199,4.1433,4.1023,4.0515,3.9683,3.9113,3.8836,3.8305,3.7649,3.6926,3.6325,3.5651,3.4921,3.4925,3.4836,3.4024,3.3514,7.6829,7.6309,7.6275,7.5949,7.5478,7.6058,7.5478,7.4283,7.3925,7.345,7.2653,7.1893,7.1494,7.1494,7.1458,7.1168,7.0734,7.0661,7.0335,6.9937,6.972,6.9684,6.9539,6.9461,6.9068,6.8307,6.8706,6.8452,6.7836,6.7438,6.7366,6.6822,6.6279,6.5989,6.5772,6.5446,6.5048,6.4649,6.3925,6.3245,6.271,6.2602,6.2602,6.2493,6.2312,6.1812,6.0898,6.0425,5.9737,5.8857,5.8627,5.823,5.749,5.7306,5.6985,5.6239,5.5366,5.436,5.3073,5.2186,5.1483,5.1073,5.0834,5.1047,5.0925,5.0776,5.0757,5.133,5.1112,5.1114,5.1185,5.1117,5.1016,5.0744,5.0371,5.0236,4.9963,4.8944,4.8233,4.797,4.7665,4.7259,4.6549,4.5771,4.5297,4.4925,4.4756,4.4654,4.4564,4.4513,4.4265,4.4083,4.3954,4.3676,4.3709,4.3872,4.4064,4.401,4.3443,4.2888,4.2257,4.1816,4.1151,4.0737,4.0387,3.9945,3.9314,3.8175,3.7096,3.6763,3.6336,3.5627,3.511,3.4416,3.4174,7.7144,7.6275,7.6309,7.6203,7.613,7.6239,7.5804,7.483,7.4211,7.3414,7.2545,7.1965,7.1603,7.1494,7.1494,7.1458,7.1386,7.1422,7.1205,7.1205,7.1277,7.0806,7.048,7.0191,6.9932,6.9249,6.9497,6.9358,6.8995,6.8742,6.8017,6.7003,6.7003,6.6822,6.6714,6.6605,6.5953,6.541,6.4649,6.4251,6.4033,6.3997,6.3997,6.3925,6.349,6.3028,6.2891,6.2229,6.1487,6.0528,6.0492,5.9987,5.9257,5.9105,5.8725,5.8045,5.7461,5.6588,5.5736,5.4051,5.3054,5.2866,5.2704,5.2526,5.2544,5.2255,5.2179,5.2295,5.2227,5.1809,5.1613,5.1283,5.1909,5.1836,5.1691,5.1157,5.0714,4.9777,4.9135,4.8843,4.8443,4.8003,4.7597,4.6819,4.6075,4.5703,4.5365,4.5263,4.5037,4.4889,4.4567,4.4375,4.4365,4.4212,4.4059,4.4184,4.427,4.4241,4.3889,4.3469,4.307,4.2666,4.2382,4.2133,4.1749,4.1402,4.1053,4.0292,3.9472,3.8553,3.7797,3.7118,3.6427,3.5836,3.5559,7.7768,7.7175,7.6861,7.6283,7.5623,7.6094,7.5841,7.5011,7.4247,7.316,7.2001,7.211,7.1965,7.1639,7.1494,7.1494,7.1494,7.1494,7.1531,7.1494,7.1422,7.1313,7.1096,7.0951,7.0661,7.0154,7.0263,6.9968,6.9243,6.9714,6.9285,6.8561,6.8307,6.8271,6.8199,6.7619,6.6822,6.5881,6.5301,6.4975,6.4432,6.4396,6.4396,6.4323,6.4215,6.3925,6.3852,6.3635,6.3019,6.2476,6.2259,6.1462,6.0629,6.0412,5.9989,5.9439,5.8916,5.86,5.7973,5.6028,5.4407,5.3675,5.3422,5.3373,5.388,5.355,5.3777,5.3838,5.3792,5.3418,5.3744,5.381,5.397,5.3632,5.3065,5.233,5.1691,5.0849,4.9994,4.9664,4.9175,4.8646,4.8274,4.7902,4.7158,4.6481,4.6177,4.5872,4.5645,4.5486,4.5293,4.5096,4.5091,4.4749,4.4591,4.4518,4.4474,4.4384,4.4332,4.4039,4.3776,4.371,4.3433,4.3259,4.3139,4.2843,4.2643,4.2512,4.1666,4.0133,3.9314,3.8717,3.8053,3.7284,3.6935,7.8247,7.771,7.7503,7.6752,7.5814,7.6125,7.5985,7.5406,7.4645,7.3378,7.1929,7.2436,7.2255,7.1675,7.1494,7.1494,7.1494,7.1531,7.1675,7.182,7.1929,7.1857,7.1857,7.1748,7.1494,7.1024,7.106,7.0806,7.0118,7.048,7.0517,7.0299,6.9973,6.972,6.8953,6.838,6.7402,6.6605,6.5989,6.5772,6.5192,6.5192,6.5192,6.5156,6.4975,6.4758,6.4649,6.4396,6.3997,6.3526,6.3128,6.2585,6.186,6.1245,6.0856,6.0448,6.0086,5.9977,5.9303,5.7908,5.6085,5.5755,5.4945,5.4882,5.4887,5.4924,5.5094,5.5383,5.5414,5.5432,5.5461,5.5079,5.4949,5.4545,5.3987,5.3345,5.2949,5.2275,5.13,5.0518,5.0025,4.9528,4.8846,4.844,4.7819,4.7077,4.6549,4.638,4.635,4.6283,4.6249,4.6085,4.5949,4.5539,4.5094,4.5302,4.5409,4.4666,4.4609,4.4614,4.4438,4.4375,4.4246,4.4006,4.3977,4.4155,4.3963,4.3494,4.2532,4.1348,4.0632,3.9943,3.9156,3.8431,3.8135,7.8554,7.7797,7.8165,7.7789,7.6873,7.6472,7.6306,7.6188,7.5472,7.4171,7.269,7.2762,7.2327,7.1712,7.1603,7.1712,7.1748,7.1748,7.2074,7.2581,7.269,7.269,7.2581,7.2436,7.2038,7.1603,7.1458,7.1386,7.1241,7.1422,7.1748,7.1929,7.149,7.0656,6.9316,6.8452,6.8017,6.7836,6.7184,6.6895,6.6786,6.675,6.675,6.6641,6.6098,6.5844,6.5736,6.5156,6.4758,6.4396,6.3708,6.32,6.2838,6.2114,6.1788,6.1679,6.11,6.0819,6.0612,5.9138,5.8274,5.77,5.6731,5.6665,5.6763,5.6589,5.6106,5.6257,5.5915,5.5629,5.5484,5.5519,5.5607,5.5517,5.4974,5.4578,5.4246,5.371,5.2701,5.1785,5.1222,5.0592,4.9661,4.8907,4.8316,4.7674,4.7048,4.6887,4.7086,4.7124,4.7225,4.6921,4.6752,4.6312,4.6007,4.6346,4.6244,4.5399,4.5026,4.5167,4.5003,4.4811,4.4705,4.4626,4.4502,4.4355,4.4384,4.435,4.3394,4.2561,4.1736,4.0953,4.0193,3.9754,3.9596,7.8903,7.8607,7.8474,7.822,7.7826,7.7076,7.6925,7.7102,7.6486,7.5006,7.3193,7.3233,7.2726,7.2001,7.2106,7.2355,7.2364,7.2979,7.3414,7.345,7.3523,7.3124,7.2943,7.2798,7.2364,7.1712,7.1531,7.1639,7.1458,7.2001,7.2364,7.2545,7.2423,7.1589,7.0403,6.9611,6.9394,6.885,6.8525,6.838,6.8343,6.8337,6.8301,6.8265,6.754,6.7142,6.7033,6.6265,6.5728,6.5221,6.446,6.3844,6.3345,6.2585,6.2087,6.2078,6.1652,6.1616,6.1362,6.0494,5.9444,5.8782,5.8202,5.7768,5.7282,5.7061,5.6897,5.6953,5.6823,5.6653,5.6635,5.6644,5.6697,5.6688,5.6338,5.6036,5.5686,5.498,5.4166,5.3299,5.2601,5.1637,5.0695,5.0346,4.9751,4.9394,4.8929,4.8311,4.8324,4.8271,4.8274,4.777,4.7432,4.7056,4.6887,4.709,4.6921,4.6177,4.5906,4.6007,4.5771,4.5331,4.5094,4.4993,4.4728,4.453,4.4767,4.4902,4.4513,4.3805,4.3215,4.2594,4.2048,4.1648,4.1405,7.9579,7.959,7.9264,7.9123,7.897,7.782,7.7443,7.7592,7.7163,7.5823,7.4513,7.4478,7.4066,7.3386,7.3356,7.3437,7.3411,7.3847,7.4276,7.428,7.4287,7.4033,7.374,7.345,7.3269,7.2545,7.2327,7.24,7.2509,7.2907,7.2975,7.2926,7.2979,7.2174,7.1204,7.0623,7.026,6.9751,6.946,6.9206,6.9206,6.9243,6.9249,6.9104,6.8777,6.8414,6.8087,6.7549,6.6969,6.6141,6.5351,6.4634,6.3917,6.3092,6.2657,6.273,6.2549,6.2476,6.2223,6.1643,6.0557,5.9542,5.9072,5.8601,5.8166,5.8187,5.8115,5.8104,5.7985,5.7959,5.7959,5.7949,5.7804,5.7778,5.7521,5.7225,5.6704,5.5998,5.5455,5.4634,5.3936,5.2886,5.1911,5.18,5.1459,5.1192,5.0887,5.0273,4.9521,4.9236,4.9077,4.867,4.8203,4.78,4.7631,4.7733,4.7428,4.6887,4.6853,4.6887,4.6278,4.5805,4.5568,4.5393,4.5263,4.5235,4.5399,4.5404,4.5313,4.5289,4.5056,4.449,4.3935,4.3487,4.3127,8.0491,8.066,8.048,8.0454,8.0252,7.859,7.7826,7.771,7.7292,7.6987,7.6718,7.5866,7.5375,7.5458,7.5319,7.5051,7.4775,7.4787,7.4988,7.5135,7.5149,7.5008,7.4866,7.4757,7.4106,7.3888,7.3635,7.3378,7.3812,7.3954,7.3724,7.3411,7.3494,7.2863,7.2134,7.1616,7.1149,7.0725,7.0367,7.0149,7.0112,6.996,7.0039,6.993,6.9712,6.9274,6.8939,6.8466,6.7833,6.7084,6.6292,6.5843,6.5133,6.4062,6.4062,6.3917,6.3518,6.3309,6.3128,6.2512,6.2041,6.1172,6.052,5.9977,5.9398,5.9144,5.9072,5.9108,5.9072,5.9253,5.9398,5.918,5.8999,5.8782,5.8456,5.8053,5.7583,5.701,5.6531,5.591,5.5321,5.442,5.345,5.309,5.2981,5.2802,5.2435,5.1857,5.1026,4.9816,4.9657,4.9433,4.8999,4.8578,4.8443,4.8372,4.8139,4.7665,4.7733,4.7699,4.7022,4.6447,4.6312,4.6143,4.594,4.594,4.6041,4.6278,4.6481,4.6393,4.6098,4.5799,4.5056,4.495,4.4691,8.0754,8.0939,8.0707,8.0415,8.0008,7.9453,7.8728,7.8072,7.8118,7.7727,7.6633,7.6404,7.6235,7.5449,7.5883,7.6019,7.6111,7.6173,7.6329,7.6327,7.6126,7.5647,7.5367,7.5182,7.4642,7.4247,7.3993,7.4138,7.4135,7.449,7.5075,7.5072,7.4336,7.3769,7.3347,7.2937,7.2343,7.1786,7.1391,7.1245,7.1142,7.1135,7.1172,7.1099,7.0697,7.0296,7.0004,6.9493,6.8859,6.7913,6.7206,6.6596,6.5682,6.4866,6.4521,6.4456,6.4227,6.4033,6.3997,6.3816,6.3454,6.3192,6.2875,6.1462,6.052,5.9868,5.9905,5.9941,5.9977,6.005,6.005,5.9941,5.976,5.947,5.9253,5.8999,5.8492,5.7934,5.7443,5.6912,5.6315,5.5594,5.4661,5.4463,5.4358,5.4261,5.3999,5.346,5.2584,5.1396,5.0587,5.0429,4.9892,4.9532,4.9046,4.888,4.8744,4.8578,4.8511,4.8342,4.78,4.7327,4.7124,4.6921,4.6752,4.665,4.6616,4.6921,4.7259,4.6921,4.6591,4.6452,4.6317,4.6182,4.6096,8.1498,8.1653,8.1453,8.0817,8.0064,8.0055,7.9614,7.904,7.8904,7.8454,7.7966,7.7707,7.7398,7.7479,7.7741,7.7748,7.7601,7.77,7.7746,7.743,7.7218,7.6808,7.6293,7.5963,7.5758,7.5229,7.499,7.5244,7.5059,7.5184,7.5693,7.5708,7.5141,7.4645,7.4155,7.3714,7.3289,7.2878,7.2635,7.2459,7.2277,7.2167,7.2233,7.2094,7.1582,7.1363,7.1034,7.0412,6.9777,6.9034,6.839,6.8041,6.7381,6.6927,6.6481,6.6377,6.5755,6.5626,6.5416,6.4726,6.4581,6.4545,6.4517,6.3493,6.245,6.1697,6.1235,6.0883,6.0738,6.0629,6.0593,6.0557,6.0339,6.0122,6.0013,5.9905,5.9361,5.8782,5.8249,5.7768,5.7159,5.6515,5.6021,5.5871,5.5787,5.5783,5.5754,5.5518,5.4438,5.3049,5.2276,5.1865,5.1119,5.0458,5.0032,4.9637,4.9379,4.9178,4.8849,4.8646,4.8342,4.7973,4.7631,4.7564,4.7597,4.7564,4.7597,4.7733,4.7902,4.7564,4.7496,4.7597,4.7496,4.7301,4.7241,8.2423,8.2631,8.2326,8.1305,8.0349,8.0411,8.0315,8.0175,7.9532,7.9494,7.9773,7.9366,7.9305,7.9274,7.9358,7.9175,7.8887,7.8804,7.8576,7.8435,7.8143,7.7756,7.7546,7.7474,7.7038,7.6868,7.6656,7.6323,7.6469,7.6418,7.6115,7.5989,7.5415,7.5035,7.4955,7.4515,7.4118,7.3832,7.3729,7.3582,7.2695,7.2467,7.2532,7.2467,7.232,7.2137,7.1623,7.1228,7.0942,7.0307,6.9921,6.9791,6.9404,6.9172,6.8872,6.8487,6.757,6.7331,6.6902,6.6175,6.5484,6.5193,6.483,6.4657,6.4056,6.2921,6.2186,6.1824,6.1643,6.1426,6.1353,6.129,6.1145,6.0991,6.0846,6.0738,6.0375,5.9687,5.8891,5.8347,5.7706,5.7123,5.6725,5.65,5.6428,5.6837,5.691,5.6823,5.6243,5.4741,5.3989,5.3359,5.2329,5.1613,5.1287,5.0802,5.0172,4.9814,4.9511,4.9187,4.9086,4.8612,4.8041,4.8105,4.8206,4.8545,4.868,4.8612,4.8511,4.8545,4.8545,4.8815,4.8714,4.8274,4.8139,8.2139,8.2797,8.1479,8.0697,8.0469,8.0487,8.0487,8.0431,8.0238,8.0058,7.987,7.974,7.974,7.9929,7.9929,7.9762,7.9636,7.9403,7.9085,7.8878,7.8754,7.859,7.8251,7.8234,7.8071,7.7905,7.7628,7.7231,7.704,7.6899,7.6825,7.6808,7.624,7.5836,7.5799,7.5395,7.5102,7.4698,7.4771,7.4184,7.2973,7.2606,7.2532,7.2532,7.2459,7.2422,7.2129,7.2129,7.1602,7.1003,7.0979,7.0612,6.9998,6.9921,6.9783,6.9535,6.9172,6.8932,6.8575,6.7911,6.7328,6.7109,6.6862,6.6195,6.5311,6.3973,6.3156,6.2838,6.244,6.2186,6.2005,6.1978,6.1942,6.1761,6.1616,6.1462,6.1281,6.0412,5.9506,5.8854,5.8239,5.784,5.7478,5.7297,5.7188,5.7152,5.7152,5.7127,5.7235,5.6371,5.5713,5.4892,5.352,5.2803,5.252,5.2125,5.1533,5.099,5.069,5.0274,4.989,4.9255,4.8748,4.8748,4.8883,4.8984,4.9018,4.8951,4.8951,4.9018,4.9018,4.9018,4.9052,4.8748,4.8748,8.1918,8.2264,8.1041,8.0506,8.0506,8.0506,8.0506,8.0506,8.0506,8.0354,8.0099,8.0116,8.0116,8.0116,8.0116,8.0096,8.0037,7.9836,7.9815,7.9627,7.9388,7.9236,7.9071,7.8902,7.8704,7.8551,7.8081,7.7702,7.7533,7.7273,7.7175,7.7261,7.6821,7.6631,7.6564,7.6313,7.5976,7.5469,7.5689,7.4845,7.345,7.3266,7.2826,7.2716,7.2532,7.2532,7.2532,7.2496,7.2247,7.1859,7.1843,7.1696,7.1329,7.1236,7.1134,7.0893,7.0624,7.0245,7.0025,6.9624,6.9076,6.8856,6.8747,6.7996,6.7238,6.5932,6.4283,6.3783,6.244,6.2014,6.2041,6.2005,6.1978,6.1897,6.1761,6.1616,6.1281,6.0665,5.9905,5.9289,5.8927,5.8854,5.8601,5.8601,5.8492,5.8492,5.8311,5.8166,5.813,5.784,5.7237,5.6534,5.5204,5.4292,5.3997,5.3528,5.2892,5.2414,5.1928,5.13,5.0776,5.0011,4.9458,4.9443,4.9304,4.8984,4.9018,4.9246,4.9083,4.9018,4.9018,4.9018,4.912,4.9289,4.9255,8.1614,8.1499,8.0812,8.0506,8.0506,8.0506,8.0506,8.0506,8.0506,8.0506,8.0468,8.0468,8.0506,8.0506,8.0506,8.0506,8.043,8.0258,8.0373,8.0392,8.0373,8.002,7.9794,7.9627,7.9366,7.9037,7.8614,7.8352,7.8173,7.7875,7.768,7.754,7.748,7.748,7.7236,7.6838,7.6383,7.616,7.6019,7.5432,7.4808,7.4258,7.3523,7.2973,7.2642,7.2606,7.2569,7.2496,7.2496,7.2459,7.2386,7.2275,7.2239,7.21,7.2173,7.1998,7.161,7.1333,7.1113,7.0535,7.0206,7.0023,7.0023,6.9482,6.8649,6.7404,6.575,6.4411,6.3066,6.2214,6.2214,6.2078,6.2078,6.2041,6.1969,6.186,6.139,6.0991,6.0448,5.9868,5.976,5.9724,5.9579,5.9579,5.9615,5.9651,5.9651,5.9615,5.9434,5.8891,5.8342,5.7851,5.7011,5.6241,5.558,5.489,5.4275,5.3886,5.3369,5.2532,5.1709,5.1006,5.0463,5.018,4.9949,4.9911,4.9729,4.9862,4.9603,4.9477,4.9018,4.9154,4.9763,4.9898,4.9763,8.0735,8.0735,8.0544,8.0506,8.0506,8.0506,8.0506,8.0506,8.0506,8.0506,8.0506,8.0506,8.0506,8.0506,8.0506,8.0506,8.0506,8.0621,8.0582,8.0506,8.0659,8.0488,8.0354,8.0291,7.9996,7.9643,7.9387,7.9147,7.8766,7.8588,7.8536,7.8458,7.8484,7.8336,7.7923,7.7607,7.7419,7.7105,7.6891,7.656,7.5845,7.5191,7.4294,7.3817,7.3487,7.3046,7.2716,7.2532,7.2496,7.2496,7.2532,7.2532,7.2532,7.2532,7.2532,7.2496,7.2144,7.2108,7.1749,7.1346,7.1052,7.0942,7.0649,6.9814,6.8916,6.8055,6.6609,6.5514,6.4239,6.3012,6.2731,6.2422,6.235,6.225,6.2141,6.2069,6.1779,6.1607,6.129,6.0883,6.0593,6.0303,5.9905,5.9905,5.9905,5.9941,5.9977,5.9977,6.005,5.9724,5.9398,5.8957,5.849,5.7774,5.6964,5.617,5.5577,5.5261,5.474,5.3817,5.2944,5.2089,5.1619,5.1344,5.1338,5.139,5.1187,5.0858,5.0823,5.0663,4.9511,4.9289,5.0065,5.0541,5.0473]}]]